[[{"header":{"parameterUnit":"m.s-1","parameterCategory":1,"la1":30.6,"la2":29.2853,"lo1":-89.7004,"lo2":-87.6739,"dy":0.0162,"dx":0.0183,"nx":112,"ny":82,"refTime":"2026-04-05T12:00:00:Z","depth":0,"parameterNumber":2,"parameterNumberName":"U-component_of_WINDS"},"data":[0.0,0.0,0.0,0.0,0.0,0.0,0.0,0.0,0.0,0.0,0.0,0.0,0.0,0.0,0.0,0.0,0.0,0.0,0.0,0.0,0.0,0.0,0.0,0.0,0.0,0.0,0.0,0.0,0.0,0.0,0.0,0.0,0.0,0.0,0.0,0.0,0.0,0.0,0.0,0.0,0.0,0.0,0.0,0.0,0.0,0.0,0.0,0.0,0.0,0.0,0.0,0.0,0.0,0.0,0.0,0.0,0.0,0.0,0.0,0.0,0.0,0.0,0.0,0.0,0.0,0.0,0.0,0.0,0.0,0.0,0.0,0.0,0.0,0.0,0.0,0.0,0.0,0.0,0.0,0.0,0.0,0.0,0.0,0.0,0.0,0.0,0.0,0.0,0.0,0.0,-0.7142,-0.7559,-0.8223,-0.857,-0.8525,-0.8287,-0.7858,-0.7265,0.0,0.0,0.0,0.0,0.0,0.0,0.0,0.0,0.0,0.0,0.0,0.0,0.0,0.0,0.0,0.0,0.0,0.0,0.0,0.0,0.0,0.0,0.0,0.0,0.0,0.0,0.0,0.0,0.0,0.0,0.0,0.0,0.0,0.0,0.0,0.0,0.0,0.0,0.0,0.0,0.0,0.0,0.0,0.0,0.0,0.0,0.0,0.0,0.0,0.0,0.0,0.0,0.0,0.0,0.0,0.0,0.0,0.0,0.0,0.0,0.0,0.0,0.0,0.0,0.0,0.0,0.0,0.0,0.0,0.0,0.0,0.0,0.0,0.0,0.0,0.0,0.0,0.0,0.0,0.0,0.0,0.0,0.0,0.0,0.0,0.0,0.0,0.0,0.0,0.0,0.0,0.0,0.0,0.0,0.0,0.0,0.0,0.0,0.0,0.0,0.0,0.0,0.0,0.0,-0.7499,-0.8095,-0.8448,-0.857,-0.8525,-0.8362,-0.8104,-0.7718,0.0,0.0,0.0,0.0,0.0,0.0,0.0,0.0,0.0,0.0,0.0,0.0,0.0,0.0,0.0,0.0,0.0,0.0,0.0,0.0,0.0,0.0,0.0,0.0,0.0,0.0,0.0,0.0,0.0,0.0,0.0,0.0,0.0,0.0,0.0,0.0,0.0,0.0,0.0,0.0,0.0,0.0,0.0,0.0,0.0,0.0,0.0,0.0,0.0,0.0,0.0,0.0,0.0,0.0,0.0,0.0,0.0,0.0,0.0,0.0,0.0,0.0,0.0,0.0,0.0,0.0,0.0,0.0,0.0,0.0,0.0,0.0,0.0,0.0,0.0,0.0,0.0,0.0,0.0,0.0,0.0,0.0,0.0,0.0,0.0,0.0,0.0,0.0,0.0,0.0,0.0,0.0,0.0,0.0,0.0,0.0,0.0,0.0,0.0,0.0,0.0,0.0,0.0,-0.7509,-0.8007,-0.8436,-0.8644,-0.8697,-0.8558,-0.837,-0.8085,-0.7676,-0.6626,0.0,0.0,0.0,0.0,0.0,0.0,0.0,0.0,0.0,0.0,0.0,0.0,0.0,0.0,0.0,0.0,0.0,0.0,0.0,0.0,0.0,0.0,0.0,0.0,0.0,0.0,0.0,0.0,0.0,0.0,0.0,0.0,0.0,0.0,0.0,0.0,0.0,0.0,0.0,0.0,0.0,0.0,0.0,0.0,0.0,0.0,0.0,0.0,0.0,0.0,0.0,0.0,0.0,0.0,0.0,0.0,0.0,0.0,0.0,0.0,0.0,0.0,0.0,0.0,0.0,0.0,0.0,0.0,0.0,0.0,0.0,0.0,0.0,0.0,0.0,0.0,0.0,0.0,0.0,0.0,0.0,0.0,0.0,0.0,0.0,0.0,0.0,0.0,0.0,0.0,0.0,0.0,0.0,0.0,0.0,0.0,0.0,0.0,0.0,0.0,0.0,0.0,-0.8035,-0.8468,-0.8652,-0.8791,-0.8791,-0.8591,-0.8326,-0.7974,-0.7521,-0.699,0.0,0.0,0.0,0.0,0.0,0.0,0.0,0.0,0.0,0.0,0.0,0.0,0.0,0.0,0.0,0.0,0.0,0.0,0.0,0.0,0.0,0.0,0.0,0.0,0.0,0.0,0.0,0.0,0.0,0.0,0.0,0.0,0.0,0.0,0.0,0.0,0.0,0.0,0.0,0.0,0.0,0.0,0.0,0.0,0.0,0.0,0.0,0.0,0.0,0.0,0.0,0.0,0.0,0.0,0.0,0.0,0.0,0.0,0.0,0.0,0.0,0.0,0.0,0.0,0.0,0.0,0.0,0.0,0.0,0.0,0.0,0.0,0.0,0.0,0.0,0.0,0.0,0.0,0.0,0.0,0.0,0.0,0.0,0.0,0.0,0.0,0.0,0.0,0.0,0.0,0.0,0.0,0.0,0.0,0.0,0.0,0.0,0.0,0.0,0.0,0.0,0.0,-0.8305,-0.8656,-0.8878,-0.891,-0.8812,-0.8549,-0.827,-0.7921,-0.7427,-0.6896,0.0,0.0,0.0,0.0,0.0,0.0,0.0,0.0,0.0,0.0,0.0,0.0,0.0,0.0,0.0,0.0,0.0,0.0,0.0,0.0,0.0,0.0,0.0,0.0,0.0,0.0,0.0,0.0,0.0,0.0,0.0,0.0,0.0,0.0,0.0,0.0,0.0,0.0,0.0,0.0,0.0,0.0,0.0,0.0,0.0,0.0,0.0,0.0,0.0,0.0,0.0,0.0,0.0,0.0,0.0,0.0,0.0,0.0,0.0,0.0,0.0,0.0,0.0,0.0,0.0,0.0,0.0,0.0,0.0,0.0,0.0,0.0,0.0,0.0,0.0,0.0,0.0,0.0,0.0,0.0,0.0,0.0,0.0,0.0,0.0,0.0,0.0,0.0,0.0,0.0,0.0,0.0,0.0,0.0,0.0,0.0,0.0,0.0,0.0,0.0,0.0,0.0,-0.8558,-0.8946,-0.8954,-0.9056,-0.8971,-0.8591,-0.8295,-0.7889,-0.738,0.0,0.0,0.0,0.0,0.0,0.0,0.0,0.0,0.0,0.0,0.0,0.0,0.0,0.0,0.0,0.0,0.0,0.0,0.0,0.0,0.0,0.0,0.0,0.0,0.0,0.0,0.0,0.0,0.0,0.0,0.0,0.0,0.0,0.0,0.0,0.0,0.0,0.0,0.0,0.0,0.0,0.0,0.0,0.0,0.0,0.0,0.0,0.0,0.0,0.0,0.0,0.0,0.0,0.0,0.0,0.0,0.0,0.0,0.0,0.0,0.0,0.0,0.0,0.0,0.0,0.0,0.0,0.0,0.0,0.0,0.0,0.0,0.0,0.0,0.0,0.0,0.0,0.0,0.0,0.0,0.0,0.0,0.0,0.0,0.0,0.0,0.0,0.0,0.0,0.0,0.0,0.0,0.0,0.0,0.0,0.0,0.0,0.0,0.0,0.0,0.0,0.0,-0.8085,-0.873,-0.9095,-0.9134,-0.9224,-0.9122,-0.8726,-0.833,-0.7917,-0.7375,0.0,0.0,0.0,0.0,0.0,0.0,0.0,0.0,0.0,0.0,0.0,0.0,0.0,0.0,0.0,0.0,0.0,0.0,0.0,0.0,0.0,0.0,0.0,0.0,0.0,0.0,0.0,0.0,0.0,0.0,0.0,0.0,0.0,0.0,0.0,0.0,0.0,0.0,0.0,0.0,0.0,0.0,0.0,0.0,0.0,0.0,0.0,0.0,0.0,0.0,0.0,0.0,0.0,0.0,0.0,0.0,0.0,0.0,0.0,0.0,0.0,0.0,0.0,0.0,0.0,0.0,0.0,0.0,0.0,0.0,0.0,0.0,0.0,0.0,0.0,0.0,0.0,0.0,0.0,0.0,0.0,0.0,0.0,0.0,0.0,0.0,0.0,0.0,0.0,0.0,0.0,0.0,0.0,0.0,0.0,0.0,0.0,0.0,0.0,0.0,0.0,0.0,-0.8213,-0.872,-0.9168,-0.9338,-0.9286,-0.9171,-0.8897,-0.8416,-0.7929,0.0,0.0,0.0,0.0,0.0,0.0,0.0,0.0,0.0,0.0,0.0,0.0,0.0,0.0,0.0,0.0,0.0,0.0,0.0,0.0,0.0,0.0,0.0,0.0,0.0,0.0,0.0,0.0,0.0,0.0,0.0,0.0,0.0,0.0,0.0,0.0,0.0,0.0,0.0,0.0,0.0,0.0,0.0,0.0,0.0,0.0,0.0,0.0,0.0,0.0,0.0,0.0,0.0,0.0,0.0,0.0,0.0,0.0,0.0,0.0,0.0,0.0,0.0,0.0,0.0,0.0,0.0,0.0,0.0,0.0,0.0,0.0,0.0,0.0,0.0,0.0,0.0,0.0,0.0,0.0,0.0,0.0,0.0,0.0,0.0,0.0,0.0,0.0,0.0,0.0,0.0,0.0,0.0,0.0,0.0,0.0,0.0,0.0,0.0,0.0,0.0,0.0,0.0,-0.6782,-0.7001,-0.7116,-0.7156,-0.7184,-0.7097,-0.6795,-0.6549,-0.6286,-0.6147,0.0,0.0,0.0,0.0,0.0,0.0,0.0,0.0,0.0,0.0,0.0,0.0,0.0,0.0,0.0,0.0,0.0,0.0,0.0,0.0,0.0,0.0,0.0,0.0,0.0,0.0,0.0,0.0,0.0,0.0,0.0,0.0,0.0,0.0,0.0,0.0,0.0,0.0,0.0,0.0,0.0,0.0,0.0,0.0,0.0,0.0,0.0,0.0,0.0,0.0,0.0,0.0,0.0,0.0,0.0,0.0,0.0,0.0,0.0,0.0,0.0,0.0,0.0,0.0,0.0,0.0,0.0,0.0,0.0,0.0,0.0,0.0,0.0,0.0,0.0,0.0,0.0,0.0,0.0,0.0,0.0,0.0,0.0,0.0,0.0,0.0,0.0,0.0,0.0,0.0,0.0,0.0,0.0,0.0,0.0,0.0,0.0,0.0,0.0,0.0,0.0,0.0,-0.5361,-0.515,-0.5043,-0.4981,-0.4991,-0.4902,-0.4741,-0.4616,-0.4547,-0.4651,0.0,0.0,0.0,0.0,0.0,0.0,0.0,0.0,0.0,0.0,0.0,0.0,0.0,0.0,0.0,0.0,0.0,0.0,0.0,0.0,0.0,0.0,0.0,0.0,0.0,0.0,0.0,0.0,0.0,0.0,0.0,0.0,0.0,0.0,0.0,0.0,0.0,0.0,0.0,0.0,0.0,0.0,0.0,0.0,0.0,0.0,0.0,0.0,0.0,0.0,0.0,0.0,0.0,0.0,0.0,0.0,0.0,0.0,0.0,0.0,0.0,0.0,0.0,0.0,0.0,0.0,0.0,0.0,0.0,0.0,0.0,0.0,0.0,0.0,0.0,0.0,0.0,0.0,0.0,0.0,0.0,0.0,0.0,0.0,0.0,0.0,0.0,0.0,0.0,0.0,0.0,0.0,0.0,0.0,0.0,0.0,0.0,0.0,0.0,0.0,0.0,0.0,-0.3861,-0.3242,-0.2851,-0.2906,-0.279,-0.2725,-0.272,-0.2637,-0.2751,-0.302,0.0,0.0,0.0,0.0,0.0,0.0,0.0,0.0,0.0,0.0,0.0,0.0,0.0,0.0,0.0,0.0,0.0,0.0,0.0,0.0,0.0,0.0,0.0,0.0,0.0,0.0,0.0,0.0,0.0,0.0,0.0,0.0,0.0,0.0,0.0,0.0,0.0,0.0,0.0,0.0,0.0,0.0,0.0,0.0,0.0,0.0,0.0,0.0,0.0,0.0,0.0,0.0,0.0,0.0,0.0,0.0,0.0,0.0,0.0,0.0,-0.4474,-0.4462,0.0,0.0,0.0,0.0,0.0,0.0,0.0,0.0,0.0,0.0,0.0,0.0,0.0,0.0,0.0,0.0,0.0,0.0,0.0,0.0,0.0,0.0,0.0,0.0,0.0,0.0,0.0,0.0,0.0,0.0,0.0,0.0,0.0,0.0,0.0,0.0,0.0,0.0,0.0,0.0,-0.1973,-0.115,-0.0651,-0.0664,-0.0617,-0.0564,-0.0555,-0.0551,-0.0872,-0.1585,-0.2266,0.0,0.0,0.0,0.0,0.0,0.0,0.0,0.0,0.0,0.0,0.0,0.0,0.0,0.0,0.0,0.0,0.0,0.0,0.0,0.0,0.0,0.0,0.0,0.0,0.0,0.0,0.0,0.0,0.0,0.0,0.0,0.0,0.0,0.0,0.0,0.0,0.0,0.0,0.0,0.0,0.0,0.0,0.0,0.0,0.0,0.0,0.0,0.0,0.0,0.0,0.0,0.0,0.0,0.0,0.0,0.0,0.0,0.0,0.0,-0.3002,-0.3257,0.0,0.0,0.0,0.0,0.0,0.0,0.0,0.0,0.0,0.0,0.0,0.0,0.0,0.0,0.0,0.0,0.0,0.0,0.0,0.0,0.0,0.0,0.0,0.0,0.0,0.0,0.0,0.0,0.0,0.0,0.0,0.0,0.0,0.0,0.0,0.0,0.0,0.0,0.0,0.0,0.009,0.0969,0.1572,0.1594,0.1661,0.1665,0.17,0.1634,0.1341,0.0612,-0.0179,0.0,0.0,0.0,0.0,0.0,0.0,0.0,0.0,0.0,0.0,0.0,0.0,0.0,0.0,0.0,0.0,0.0,0.0,0.0,0.0,0.0,0.0,0.0,0.0,0.0,0.0,0.0,0.0,0.0,0.0,0.0,0.0,0.0,0.0,0.0,0.0,0.0,0.0,0.0,0.0,0.0,0.0,0.0,0.0,0.0,0.0,0.0,0.0,0.0,0.0,0.0,0.0,0.0,-0.1385,-0.1353,-0.1423,-0.1377,-0.0923,-0.0258,-0.1164,-0.157,-0.1694,-0.1696,0.0,0.0,0.0,0.0,0.0,0.0,0.0,0.0,0.0,0.0,0.0,0.0,0.0,0.0,0.0,0.0,0.0,0.0,0.0,0.0,0.0,0.0,0.0929,0.0945,0.0952,0.0639,-0.045,0.0,0.0,0.0,0.0,0.0,0.0,0.0,0.0,0.0,0.0,0.0,0.1731,0.2698,0.3298,0.3333,0.3365,0.3435,0.3435,0.3388,0.3103,0.2548,0.1591,0.1065,0.0,0.0,0.0,0.0,0.0,0.0,0.0,0.0,0.0,0.0,0.0,0.0,0.0,0.0,0.0,0.0,0.0,0.0,0.0,0.0,0.0,0.0,0.0,0.0,0.0,0.0,0.0,0.0,0.0,0.0,0.0,0.0,-0.6915,-0.6621,0.0,0.0,0.0,0.0,0.0,0.0,0.0,0.0,0.0,0.0,0.0,0.0,0.0,-0.2336,-0.1426,-0.0418,0.0106,0.0108,0.011,0.0111,0.011,0.0112,0.0452,0.1075,0.1411,0.0,0.0784,0.0444,0.0,0.0,0.0,0.0,0.0,0.0,0.0,0.0,0.0,0.0,0.0,0.0,0.0,0.0,0.0,0.0,0.0,0.0,0.0,0.0,0.0,0.0,0.3004,0.3088,0.3148,0.3116,0.2853,0.1347,0.0047,0.0137,0.0132,0.0126,0.0,0.0,0.0,0.0,0.0,0.0,0.2255,0.2898,0.3337,0.3393,0.3427,0.3499,0.3499,0.3492,0.3222,0.2649,0.2074,0.1709,0.1532,0.1363,0.0,0.0,0.0,0.0,0.0,0.0,0.0,0.0,0.0,0.0,0.0,0.0,0.0,0.0,0.0,0.0,0.0,0.0,0.0,0.0,0.0,0.0,0.0,0.0,0.0,0.0,0.0,0.0,0.0,-0.658,-0.575,-0.5084,-0.4306,-0.3814,0.0,0.0,0.0,0.0,0.0,0.0,0.0,0.0,0.0,-0.2184,-0.1078,-0.0106,0.077,0.1822,0.2384,0.2346,0.2391,0.2416,0.2478,0.2507,0.2641,0.289,0.3158,0.3075,0.2739,0.1848,0.1145,0.0501,0.0,0.0,0.0,0.0,-0.0293,0.0447,0.1165,0.1775,0.2409,0.2968,0.0,0.0,0.0,0.0,0.0,0.0,0.0,0.3076,0.3269,0.3427,0.3549,0.3596,0.3639,0.3652,0.3594,0.2832,0.2144,0.2032,0.2014,0.1937,0.1816,0.1762,0.0,0.0,0.0,0.2556,0.2745,0.3174,0.3408,0.3434,0.3464,0.3483,0.3483,0.3483,0.3399,0.3118,0.2858,0.2684,0.2538,0.2416,0.2395,0.0,0.0,0.0,0.0,0.0,0.0,0.0,0.0,0.0,0.0,0.0,0.0,0.0,0.0,0.0,0.0,0.0,0.0,0.0,0.0,0.0,0.0,0.0,0.0,0.0,0.0,0.0,0.0,-0.5335,-0.4291,-0.3395,-0.2311,-0.1698,0.0,0.0,0.0,0.0,0.0,0.0,-0.1462,-0.1329,-0.0938,-0.0214,0.0775,0.1658,0.2409,0.3456,0.3956,0.3932,0.3987,0.4086,0.411,0.4137,0.4152,0.4155,0.4177,0.4142,0.3991,0.3014,0.2309,0.18,0.1428,0.1252,0.1199,0.1157,0.1442,0.1904,0.2339,0.2681,0.3043,0.3378,0.3388,0.326,0.316,0.0,0.0,0.0,0.0,0.3307,0.3525,0.3604,0.3705,0.3757,0.3782,0.3782,0.3737,0.3708,0.3621,0.3381,0.3285,0.3186,0.2998,0.2864,0.0,0.2781,0.2938,0.3061,0.3124,0.3352,0.3525,0.3479,0.3499,0.3516,0.3524,0.3524,0.3513,0.3482,0.3452,0.3397,0.3314,0.3189,0.3065,0.2945,0.0,0.0,0.0,0.0,0.0,0.0,0.0,0.0,0.0,0.0,0.0,0.0,0.0,0.0,0.0,0.0,0.0,0.0,0.0,0.0,0.0,0.0,0.0,0.0,0.0,0.0,0.0,0.0,0.0,-0.1625,-0.049,0.0,0.0,0.0,0.0,0.0157,0.0214,0.0272,0.0272,0.0278,0.0512,0.1099,0.1766,0.2411,0.3045,0.3703,0.4002,0.4121,0.4152,0.4166,0.417,0.4202,0.4215,0.4215,0.4215,0.4197,0.4159,0.3994,0.3789,0.3688,0.3568,0.3468,0.3449,0.3535,0.3583,0.3702,0.376,0.3764,0.3733,0.3761,0.367,0.3488,0.3418,0.3353,0.0,0.0,0.3438,0.3516,0.3639,0.3816,0.3916,0.3887,0.3938,0.3956,0.3929,0.3909,0.3779,0.3538,0.3442,0.336,0.3234,0.0,0.3092,0.3074,0.3135,0.3209,0.33,0.3422,0.3509,0.3482,0.3485,0.35,0.3583,0.3587,0.3572,0.3485,0.3513,0.3469,0.3408,0.3343,0.3251,0.3082,0.3007,0.0,0.0,0.0,0.0,0.0,0.0,0.0,0.0,0.0,0.0,0.0,0.0,0.0,0.0,0.0,0.0,0.0,0.0,0.0,0.0,0.0,0.0,0.0,0.0,0.0,0.0,0.0,0.0,0.0755,0.1931,0.0,0.2565,0.2523,0.2507,0.2473,0.26,0.2649,0.2663,0.2724,0.289,0.3091,0.3325,0.362,0.3789,0.4049,0.4225,0.4247,0.4296,0.432,0.432,0.433,0.4334,0.4334,0.4334,0.4305,0.4257,0.4225,0.4097,0.3907,0.3848,0.3806,0.3782,0.3813,0.3851,0.3891,0.3932,0.3938,0.3922,0.3851,0.3737,0.3621,0.3583,0.3527,0.3493,0.3565,0.3628,0.3699,0.3799,0.3887,0.3953,0.3985,0.4009,0.4005,0.3932,0.3887,0.3884,0.3699,0.3625,0.3549,0.3426,0.3337,0.3287,0.3298,0.3335,0.3386,0.3402,0.3555,0.3621,0.3632,0.3632,0.3636,0.3645,0.3649,0.3643,0.3632,0.3621,0.3607,0.3587,0.3544,0.3467,0.3348,0.3206,0.3036,0.0,0.0,0.0,0.0,0.0,0.0,0.0,0.0,0.0,0.0,0.0,0.0,0.0,0.0,0.0,0.0,0.0,0.0,0.0,0.0,0.0,0.0,0.0,0.0,0.0,0.0626,0.1671,0.2328,0.335,0.3963,0.3887,0.3831,0.3806,0.3817,0.3907,0.397,0.3919,0.4048,0.4086,0.4086,0.4131,0.4166,0.4187,0.4267,0.4313,0.4327,0.4376,0.4401,0.4401,0.4401,0.4401,0.4401,0.4401,0.4372,0.4323,0.4313,0.4222,0.4082,0.4041,0.4005,0.3985,0.4016,0.4034,0.398,0.4065,0.4072,0.4058,0.3978,0.3911,0.3855,0.3813,0.3775,0.375,0.3793,0.3838,0.3891,0.3938,0.3994,0.4043,0.4054,0.4065,0.3987,0.3919,0.3918,0.3855,0.3786,0.3723,0.3652,0.3562,0.3506,0.3472,0.3472,0.3489,0.352,0.3513,0.3636,0.3681,0.3681,0.3681,0.3681,0.3681,0.3681,0.3677,0.3667,0.3667,0.366,0.3649,0.3632,0.3569,0.3514,0.3268,0.3071,0.2871,0.0,0.0,0.0,0.0,0.0,0.0,0.0,0.0,0.0,0.0,0.0,0.0,0.0,0.0,0.0,0.0,0.0,0.0,0.0,0.0,0.0,0.0,0.0,0.1384,0.194,0.2598,0.3058,0.3756,0.4159,0.4099,0.4068,0.4037,0.4005,0.4061,0.4079,0.3984,0.4072,0.409,0.409,0.4114,0.4155,0.4218,0.4281,0.4327,0.4426,0.4386,0.4403,0.4403,0.4403,0.4403,0.4403,0.4403,0.4386,0.4422,0.4327,0.4296,0.4334,0.4331,0.4247,0.4222,0.4253,0.4242,0.4218,0.4218,0.4218,0.4208,0.4148,0.4131,0.4057,0.3994,0.3978,0.3974,0.3974,0.4058,0.4075,0.4043,0.4018,0.4121,0.4093,0.411,0.4106,0.4016,0.3947,0.388,0.3793,0.3726,0.3674,0.3588,0.3618,0.3596,0.3596,0.3596,0.0,0.3582,0.3667,0.3688,0.3688,0.3688,0.3684,0.3684,0.3684,0.367,0.3582,0.3582,0.3625,0.3594,0.3594,0.3549,0.3513,0.3245,0.3018,0.2793,0.0,0.0,0.0,0.0,0.0,0.0,0.0,0.0,0.0,0.0,0.0,0.0,0.0,0.0,0.0,0.0,0.0,0.0,0.0,0.0,0.0,0.3475,0.3468,0.3088,0.3408,0.3778,0.4,0.4284,0.4379,0.432,0.4305,0.4278,0.4225,0.426,0.4257,0.4204,0.417,0.4148,0.4148,0.4137,0.4159,0.4218,0.4323,0.4379,0.439,0.4439,0.4463,0.4463,0.4463,0.4463,0.4463,0.4463,0.4446,0.4417,0.441,0.439,0.4354,0.4289,0.4247,0.4222,0.4253,0.4242,0.4218,0.4218,0.4218,0.4211,0.4173,0.4146,0.4117,0.3994,0.3947,0.3908,0.3949,0.3963,0.3923,0.3916,0.4037,0.4097,0.409,0.411,0.4113,0.4043,0.3963,0.3898,0.3873,0.3803,0.3744,0.3737,0.3761,0.3845,0.3845,0.3845,0.3788,0.3795,0.3863,0.387,0.387,0.387,0.3803,0.3782,0.3779,0.3757,0.3705,0.3681,0.3663,0.3656,0.3636,0.3569,0.3514,0.332,0.317,0.0,0.0,0.0,0.0,0.0,0.0,0.0,0.0,0.0,0.0,0.0,0.0,0.0,0.0,0.0,0.0,0.0,0.0,0.0,0.0,0.0,0.0,0.3502,0.3859,0.3985,0.4159,0.4305,0.4383,0.447,0.4501,0.4441,0.4435,0.441,0.4352,0.4365,0.4347,0.4285,0.4225,0.4191,0.4191,0.4177,0.4197,0.4257,0.4365,0.4417,0.4417,0.4466,0.4488,0.4488,0.4488,0.4488,0.4488,0.4488,0.447,0.4372,0.4372,0.4424,0.4397,0.0,0.0,0.0,0.0,0.4271,0.4257,0.4257,0.4257,0.4249,0.4222,0.4197,0.417,0.4099,0.3971,0.3916,0.3936,0.3925,0.387,0.3885,0.4016,0.409,0.4103,0.4137,0.4152,0.4026,0.4016,0.3953,0.3929,0.388,0.0,0.3844,0.3851,0.392,0.392,0.392,0.392,0.392,0.392,0.392,0.392,0.392,0.3911,0.3835,0.3835,0.0,0.0,0.0,0.3708,0.3681,0.3652,0.0,0.0,0.0,0.0,0.0,0.3511,0.0,0.0,0.3227,0.3051,0.0,0.0,0.0,0.0,0.0,0.0,0.0,0.0,0.0,0.0,0.0,0.0,0.0,0.0,0.0,0.0,0.3513,0.4072,0.4242,0.433,0.4397,0.4456,0.4536,0.4564,0.4504,0.4497,0.4473,0.4414,0.441,0.4383,0.4323,0.4257,0.0,0.0,0.0,0.4247,0.4309,0.4397,0.4372,0.4372,0.4473,0.4488,0.4488,0.4488,0.4488,0.4488,0.4488,0.4473,0.4446,0.4446,0.4432,0.441,0.4432,0.4403,0.4419,0.4323,0.4313,0.4309,0.4309,0.0,0.0,0.4274,0.4331,0.4247,0.4155,0.4022,0.3963,0.3905,0.3929,0.3911,0.3881,0.4016,0.4093,0.4124,0.4177,0.4202,0.4146,0.409,0.3971,0.3916,0.3901,0.3898,0.3898,0.3915,0.394,0.394,0.394,0.394,0.394,0.394,0.394,0.394,0.394,0.0,0.3934,0.3934,0.3909,0.3845,0.3775,0.3748,0.3688,0.3663,0.3636,0.3607,0.3558,0.3506,0.3448,0.4203,0.4926,0.5613,0.4154,0.3605,0.0,0.0,0.0,0.0,0.0,0.0,0.0,0.0,0.0,0.0,0.0,0.0,0.0,0.0,0.0,0.3532,0.3874,0.4152,0.4281,0.4414,0.4522,0.4582,0.4627,0.4627,0.4568,0.456,0.4536,0.4473,0.447,0.4446,0.4386,0.4302,0.4253,0.4253,0.4233,0.4247,0.4309,0.4397,0.4372,0.4372,0.4473,0.0,0.4488,0.4488,0.4488,0.4488,0.4488,0.4484,0.4477,0.4477,0.4477,0.4466,0.4424,0.4386,0.4422,0.4415,0.433,0.4309,0.4309,0.4309,0.4305,0.4274,0.4331,0.4247,0.4159,0.4026,0.0,0.3905,0.3929,0.3911,0.3881,0.4016,0.4093,0.4124,0.4177,0.4208,0.4173,0.4135,0.4099,0.4065,0.4041,0.396,0.396,0.3949,0.4005,0.4005,0.4005,0.4005,0.4005,0.4005,0.4005,0.4005,0.4005,0.3994,0.3971,0.3967,0.3932,0.3909,0.3855,0.3754,0.3719,0.3737,0.373,0.3701,0.3712,0.3701,0.3667,0.4837,0.6088,0.7228,0.627,0.6153,0.0,0.0,0.0,0.0,0.0,0.0,0.0,0.0,0.0,0.0,0.0,0.2308,0.2671,0.0,0.302,0.345,0.3948,0.4267,0.4403,0.4526,0.4596,0.4582,0.4606,0.4606,0.456,0.4568,0.456,0.4512,0.4526,0.4512,0.447,0.4407,0.4376,0.4376,0.4361,0.4376,0.4421,0.448,0.4512,0.4512,0.4526,0.4533,0.4533,0.4533,0.4533,0.4533,0.4533,0.4533,0.4533,0.4515,0.4501,0.4484,0.4456,0.4425,0.4392,0.4433,0.4413,0.433,0.4316,0.4309,0.4305,0.4292,0.4289,0.4274,0.4197,0.4135,0.4008,0.3949,0.3901,0.3877,0.3923,0.405,0.4117,0.4162,0.4233,0.4278,0.4247,0.4242,0.4229,0.4184,0.4162,0.4148,0.4131,0.4131,0.4046,0.3987,0.3978,0.3978,0.3978,0.3978,0.3978,0.3978,0.3978,0.3971,0.4019,0.4005,0.3974,0.3929,0.3887,0.3855,0.3778,0.4214,0.4514,0.4858,0.5232,0.5525,0.5778,0.7197,0.8559,0.986,1.0139,1.0044,0.0,0.0,0.0,0.0,0.0,0.0,0.0,0.0901,0.1761,0.1809,0.2315,0.2792,0.2992,0.3077,0.3161,0.3379,0.393,0.4376,0.4497,0.4602,0.4638,0.4551,0.4585,0.46,0.4564,0.4582,0.4582,0.4544,0.4422,0.4353,0.4259,0.4165,0.4082,0.4082,0.4078,0.4018,0.4043,0.4133,0.4143,0.4149,0.4143,0.4143,0.4149,0.4143,0.4145,0.4149,0.4149,0.4145,0.4139,0.4046,0.4021,0.4066,0.4066,0.4054,0.4028,0.4324,0.4369,0.4361,0.4334,0.4327,0.4327,0.4327,0.4327,0.4316,0.426,0.4208,0.4155,0.4099,0.398,0.3953,0.4068,0.4117,0.4169,0.4222,0.4296,0.4415,0.4316,0.4334,0.4404,0.4341,0.4331,0.4253,0.4225,0.4218,0.4187,0.4026,0.4011,0.4011,0.4011,0.4011,0.4011,0.4011,0.4011,0.4011,0.4011,0.4048,0.403,0.403,0.4003,0.3923,0.3923,0.4795,0.5595,0.6393,0.7197,0.8034,0.8759,1.017,1.1492,1.285,1.4239,1.4075,0.164,0.1144,0.0818,0.0903,0.044,0.0,0.0,0.0967,0.189,0.1937,0.2511,0.3164,0.3777,0.3463,0.3328,0.3967,0.4249,0.4363,0.4379,0.4578,0.4645,0.4582,0.4669,0.4714,0.4658,0.4658,0.4634,0.4578,0.3931,0.3504,0.3502,0.2856,0.2426,0.2426,0.2484,0.2484,0.2428,0.2487,0.249,0.2503,0.249,0.249,0.2503,0.249,0.249,0.2503,0.2503,0.2496,0.2482,0.248,0.247,0.2455,0.2455,0.2453,0.2589,0.3889,0.4417,0.4392,0.439,0.439,0.439,0.439,0.439,0.4383,0.4352,0.4316,0.4281,0.4249,0.4215,0.4197,0.4229,0.4242,0.4257,0.4292,0.4327,0.4415,0.4316,0.4334,0.4404,0.4341,0.4331,0.4253,0.4225,0.4218,0.4215,0.4202,0.4197,0.4197,0.4197,0.4197,0.4197,0.4197,0.4197,0.4197,0.4197,0.417,0.4152,0.4152,0.4124,0.4106,0.4106,0.5392,0.6714,0.7927,0.9257,1.0549,1.1709,1.3045,1.4427,1.5732,1.7067,1.6926,0.2116,0.1651,0.1325,0.1441,0.1336,0.1204,0.1274,0.1646,0.1967,0.2068,0.2221,0.25,0.2785,0.2599,0.2557,0.2948,0.3013,0.3073,0.3188,0.3267,0.3378,0.3333,0.3338,0.37,0.4548,0.4616,0.4476,0.3979,0.3644,0.3287,0.2765,0.2474,0.2251,0.2242,0.2237,0.2237,0.2242,0.2237,0.2237,0.2242,0.2229,0.2229,0.2242,0.2237,0.2245,0.2267,0.2259,0.2247,0.2234,0.2225,0.2212,0.22,0.22,0.22,0.2265,0.2861,0.3395,0.3733,0.3787,0.4056,0.4401,0.4401,0.4401,0.4397,0.4386,0.4372,0.4358,0.4347,0.4334,0.4327,0.4341,0.4345,0.4347,0.4358,0.4383,0.4397,0.4369,0.4386,0.4392,0.4352,0.4345,0.4341,0.4327,0.4323,0.4323,0.4323,0.4264,0.4218,0.4218,0.4218,0.4549,0.5402,0.5799,0.6259,0.665,0.6698,0.6688,0.6688,0.6666,0.6655,0.6655,0.8023,0.944,1.0769,1.2195,1.3563,1.4873,1.5897,1.6798,1.7749,1.8725,1.9152,0.2266,0.1934,0.1753,0.1899,0.2002,0.2084,0.1913,0.1992,0.2009,0.1837,0.1911,0.2048,0.1997,0.2056,0.2066,0.2117,0.2151,0.2185,0.2227,0.2344,0.236,0.2397,0.2361,0.2768,0.3833,0.3993,0.3739,0.3207,0.2953,0.2596,0.1994,0.1769,0.169,0.1682,0.1676,0.1675,0.1677,0.1675,0.1675,0.1677,0.1664,0.1666,0.1682,0.1685,0.1695,0.1636,0.1701,0.169,0.1677,0.1668,0.1657,0.1573,0.1573,0.1573,0.1571,0.1619,0.2312,0.336,0.3342,0.3823,0.4448,0.4448,0.4441,0.4439,0.4446,0.4441,0.4439,0.4446,0.4441,0.4435,0.4435,0.4424,0.441,0.441,0.4428,0.4365,0.4407,0.4421,0.4365,0.4407,0.4401,0.4469,0.4676,0.4882,0.5085,0.5291,0.5405,0.5202,0.4334,0.4602,0.5465,0.6927,0.7856,0.8792,0.971,0.9846,0.9846,0.9846,0.9846,0.9846,0.9846,1.1155,1.2517,1.3941,1.5302,1.6608,1.799,1.8462,1.8981,1.9418,2.0032,2.0532,0.1708,0.1681,0.1815,0.1906,0.2058,0.2006,0.1313,0.1655,0.2,0.1276,0.1663,0.2114,0.213,0.2131,0.2142,0.2103,0.2239,0.2287,0.2217,0.2329,0.234,0.2295,0.2252,0.2224,0.2363,0.2403,0.2445,0.2332,0.1697,0.1264,0.1264,0.0517,0.0074,0.0074,0.0073,0.0072,0.0073,0.0073,0.0073,0.0073,0.0072,0.0072,0.0074,0.0074,0.0074,0.0074,0.0074,0.0074,0.0073,0.0073,0.0072,0.0072,0.0072,0.0072,0.0072,0.0072,0.1501,0.3431,0.3431,0.3928,0.4571,0.4571,0.4553,0.4533,0.4564,0.4553,0.4536,0.4564,0.4551,0.4529,0.4529,0.4484,0.4372,0.4372,0.4372,0.4365,0.4407,0.4421,0.4365,0.4407,0.4401,0.4607,0.5359,0.6042,0.6799,0.7551,0.83,0.7676,0.4737,0.5625,0.7133,0.8632,1.013,1.1563,1.3059,1.3127,1.3127,1.3127,1.3127,1.3127,1.3127,1.4403,1.5714,1.7013,1.8353,1.9625,2.0864,2.0871,2.0936,2.0936,2.0936,2.1001,0.1118,0.1175,0.129,0.1291,0.1729,0.2053,0.1891,0.1635,0.1369,0.1161,0.0871,0.0728,0.0737,0.0733,0.0736,0.069,0.0709,0.0793,0.0724,0.0805,0.0803,0.0784,0.0771,0.0761,0.0754,0.1737,0.2119,0.1583,0.1322,0.0966,0.0446,0.0149,0.0,0.0,0.0,0.0,0.0,0.0,0.0,0.0,0.0,0.0,0.0,0.0,0.0,0.0,0.0599,0.0821,0.0818,0.1406,0.1617,0.1606,0.1613,0.161,0.1604,0.1604,0.2406,0.3347,0.2229,0.2718,0.3791,0.3791,0.4129,0.454,0.4568,0.4557,0.454,0.4571,0.4557,0.4533,0.4533,0.4501,0.4473,0.4473,0.4473,0.447,0.4459,0.4466,0.447,0.4459,0.4459,0.4874,0.6059,0.7304,0.8894,1.1182,1.0002,0.8508,0.7483,0.8653,1.0152,1.1581,1.3092,1.452,1.6014,1.6156,1.6156,1.6156,1.6156,1.6156,1.6156,1.7014,1.7993,1.8887,1.9786,2.0655,2.1441,2.1441,2.1387,2.1299,2.1299,2.1299,0.0554,0.0757,0.0976,0.1016,0.1577,0.2097,0.1856,0.1454,0.1038,0.0752,0.0332,0.0,0.0,0.0,0.0,0.0,0.0,0.0,0.0,0.0,0.0,0.0,0.0,0.0,0.0,0.089,0.1248,0.0781,0.0797,0.0515,0.0,0.0,0.0,0.0,0.0,0.0,0.0,0.0,0.0,0.0,0.0,0.0,0.0,0.0,0.0,0.0076,0.083,0.1654,0.2548,0.3361,0.4153,0.4932,0.4961,0.4958,0.4928,0.5013,0.5308,0.5358,0.3113,0.3384,0.4753,0.5043,0.5594,0.6211,0.625,0.6235,0.6211,0.625,0.6235,0.6202,0.6202,0.6174,0.6211,0.6211,0.6211,0.6211,0.6211,0.6211,0.6211,0.6211,0.6211,0.6634,0.8185,1.0154,1.2322,1.4772,1.3462,1.1772,1.0634,1.1805,1.3254,1.4693,1.6212,1.7652,1.9158,1.9301,1.9318,1.936,1.9366,1.9366,1.9366,1.9735,2.0183,2.0604,2.1028,2.1342,2.1672,2.1672,2.1597,2.1375,2.1375,2.1375,0.0117,0.0489,0.0956,0.105,0.155,0.1927,0.1179,0.1041,0.0827,0.0135,0.0,0.0,0.0,0.0,0.0,0.0,0.0,0.0,0.0,0.0,0.0,0.0,0.0,0.0,0.0,0.0,0.0,0.0,0.0,0.0,0.0,0.0,0.0,0.0,0.0,0.0,0.0,0.0074,0.0074,0.0074,0.0075,0.015,0.0149,0.0151,0.0152,0.0152,0.1061,0.2791,0.5024,0.5849,0.7585,0.9635,0.9773,0.9759,0.9635,0.9773,0.975,0.9178,0.6211,0.6053,0.7362,0.8092,0.8922,0.9534,0.952,0.957,0.9534,0.952,0.957,0.9528,0.9528,0.9478,0.9433,0.9433,0.9433,0.9433,0.9433,0.9433,0.9433,0.9433,0.9504,1.0072,1.1568,1.4343,1.6828,1.8315,1.8428,1.7177,1.4056,1.4878,1.6338,1.7864,1.9336,2.074,2.2199,2.2268,2.2391,2.2603,2.2624,2.2624,2.2624,2.2411,2.2269,2.2127,2.1991,2.1828,2.1692,2.1692,2.1618,2.1455,2.1455,2.1455,0.0061,0.0127,0.0264,0.0269,0.0409,0.0482,0.0347,0.0276,0.0204,0.0066,0.0,0.0,0.0,0.0,0.0,0.0,0.0,0.0,0.0,0.0,0.0,0.0,0.0,0.0,0.0,0.0,0.0,0.0,0.0,0.0,0.0,0.0,0.0,0.0,0.0,0.0,0.0,0.0601,0.0904,0.0902,0.151,0.1813,0.1811,0.1816,0.1818,0.1894,0.3938,0.5517,0.6789,0.8826,1.0354,1.1399,1.1477,1.1458,1.1399,1.1419,1.1419,1.1318,1.1103,1.0784,1.0475,1.0693,1.1658,1.2753,1.2695,1.2741,1.2764,1.2695,1.2729,1.2745,1.2745,1.2677,1.2688,1.2688,1.2688,1.2688,1.2688,1.2688,1.2688,1.2688,1.3612,1.4823,1.6321,1.8168,1.9948,2.1438,2.1624,2.0474,1.7317,1.7651,1.8499,1.9406,2.0381,2.1293,2.2199,2.2268,2.2391,2.2603,2.2445,2.2445,2.2624,2.2411,2.2254,2.222,2.2249,2.2147,2.2004,2.2004,2.1916,2.1774,2.1774,2.1774,0.0,0.0,0.0,0.0,0.0,0.0,0.0,0.0,0.0,0.0,0.0,0.0,0.0,0.0,0.0,0.0,0.0,0.0,0.0,0.0,0.0,0.0,0.0,0.0,0.0,0.0,0.0,0.0,0.0,0.0,0.0,0.0,0.0,0.0,0.0,0.0,0.0,0.0833,0.1742,0.2801,0.3632,0.4541,0.5597,0.5597,0.5597,0.5673,0.7486,0.9072,1.0572,1.2319,1.3846,1.5197,1.5221,1.52,1.5197,1.5157,1.5219,1.5188,1.5656,1.5605,1.517,1.4148,1.4693,1.5753,1.6022,1.6144,1.6183,1.6172,1.6144,1.6169,1.6169,1.6136,1.6161,1.6161,1.6161,1.6161,1.6156,1.6161,1.6161,1.6161,1.7113,1.8272,1.949,2.064,2.1783,2.2933,2.3008,2.2353,2.0508,2.0464,2.0733,2.1023,2.1432,2.184,2.2268,2.2268,2.2391,2.2603,2.2479,2.2466,2.2624,2.2479,2.2411,2.2268,2.2268,2.22,2.2113,2.2113,2.2038,2.1882,2.1882,2.1882,0.0,0.0,0.0,0.0,0.0,0.0,0.0,0.0,0.0,0.0,0.0,0.0,0.0,0.0,0.0,0.0,0.0,0.0,0.0,0.0,0.0,0.0,0.0,0.0,0.0,0.0,0.0,0.0,0.0,0.0,0.0,0.0,0.0,0.0,0.0075,0.0151,0.0153,0.1291,0.2951,0.5143,0.6198,0.7859,1.0042,1.0042,1.0042,1.0042,1.0952,1.2613,1.4721,1.5636,1.7316,1.9185,1.9283,1.9267,1.9185,1.9283,1.9267,1.9185,1.9185,1.9554,1.9681,1.7784,1.7784,1.86,1.9257,1.9545,1.9698,1.9698,1.9692,1.9619,1.9619,1.9692,1.9698,1.9698,1.9698,1.9692,1.9619,1.9692,1.9698,1.9698,2.0224,2.0886,2.162,2.2207,2.2815,2.3318,2.3275,2.3185,2.3029,2.2764,2.2534,2.2411,2.2391,2.2391,2.2308,2.2391,2.2445,2.2644,2.2658,2.2658,2.2678,2.2658,2.252,2.2391,2.2391,2.2337,2.2201,2.2201,2.2127,2.2004,2.2004,2.2004,0.0,0.0,0.0,0.0,0.0,0.0,0.0,0.0,0.0,0.0,0.0,0.0,0.0,0.0,0.0,0.0,0.0,0.0,0.0,0.0,0.0,0.0,0.0,0.0,0.0,0.0,0.0,0.0,0.0,0.0,0.0,0.0,0.0,0.0,0.0676,0.0981,0.0994,0.3778,0.5719,0.688,0.8997,1.0657,1.1713,1.1713,1.1713,1.1788,1.3223,1.4503,1.5636,1.7074,1.8346,1.9294,1.931,1.931,1.9294,1.931,1.931,1.9294,1.9294,1.9358,1.9453,1.9465,2.0506,2.1754,2.1828,2.2341,2.2867,2.2867,2.2867,2.2867,2.2867,2.2867,2.2867,2.2867,2.2867,2.2867,2.2867,2.2867,2.2867,2.2867,2.302,2.3167,2.3247,2.338,2.3479,2.3397,2.3356,2.3307,2.3042,2.2852,2.273,2.271,2.271,2.2656,2.2534,2.2642,2.271,2.2744,2.2744,2.2798,2.292,2.2818,2.273,2.271,2.271,2.2696,2.2656,2.2656,2.2656,2.2622,2.2622,2.2622,0.0,0.0,0.0,0.0,0.0,0.0,0.0,0.0,0.0,0.0,0.0,0.0,0.0,0.0,0.0,0.0,0.0,0.0,0.0,0.0,0.0,0.0,0.0,0.0,0.0,0.0,0.0,0.0,0.0,0.0,0.0,0.0,0.0,0.0,0.0757,0.1817,0.3055,0.543,0.8115,1.1103,1.2613,1.4277,1.5853,1.5853,1.5853,1.5853,1.6689,1.7215,1.7595,1.8421,1.8957,1.9327,1.9327,1.9327,1.9327,1.9327,1.9327,1.9327,1.9327,1.9327,1.931,1.9563,2.049,2.1602,2.2424,2.3009,2.3393,2.3756,2.391,2.391,2.391,2.391,2.391,2.391,2.391,2.391,2.391,2.391,2.391,2.391,2.391,2.391,2.391,2.391,2.3856,2.37,2.368,2.3612,2.3381,2.3293,2.3137,2.2818,2.2784,2.278,2.2644,2.2696,2.2744,2.2676,2.273,2.2818,2.2886,2.2818,2.2784,2.2784,2.2784,2.2784,2.2784,2.2784,2.2784,2.2784,2.2784,2.2784,0.0,0.0,0.0,0.0,0.0,0.0,0.0,0.0,0.0,0.0,0.0,0.0,0.0,0.0,0.0,0.0,0.0,0.0,0.0,0.0,0.0,0.0,0.0,0.0,0.0,0.0,0.0,0.0,0.0,0.0,0.0,0.0152,0.0229,0.0229,0.1517,0.3184,0.5339,0.7448,1.0573,1.4796,1.5787,1.729,1.9327,1.9327,1.9327,1.9327,1.9327,1.9327,1.9327,1.9327,1.9327,1.9327,1.9327,1.9327,1.9327,1.9327,1.9337,1.9365,1.9365,1.9381,1.9408,1.9408,1.9902,2.0762,2.2023,2.2621,2.3001,2.368,2.3965,2.4121,2.4121,2.4121,2.4121,2.4121,2.4121,2.4121,2.4121,2.4121,2.4121,2.4121,2.4121,2.4121,2.4121,2.4121,2.4066,2.391,2.389,2.3843,2.37,2.368,2.349,2.2974,2.292,2.2852,2.2732,2.2784,2.2818,2.2656,2.2798,2.2873,2.2873,2.2873,2.2873,2.2873,2.2873,2.2873,2.2873,2.2873,2.2873,2.2873,2.2873,2.2873,0.0,0.0,0.0,0.0,0.0,0.0,0.0,0.0,0.0,0.0,0.0,0.0,0.0,0.0,0.0,0.0,0.0,0.0,0.0,0.0,0.0,0.0,0.0,0.0,0.0,0.0,0.0,0.0,0.0,0.0,0.0,0.0686,0.107,0.107,0.3929,0.5963,0.7096,1.0713,1.3596,1.5636,1.7149,1.8346,1.9327,1.9327,1.9327,1.9327,1.9327,1.9327,1.9327,1.9327,1.9327,1.9327,1.9327,1.9327,1.9327,1.9327,1.9392,1.9495,1.9495,1.9566,1.9664,1.9664,2.0036,2.0532,2.0687,2.173,2.2926,2.3001,2.3524,2.4121,2.4121,2.4121,2.4121,2.4121,2.4121,2.4121,2.4121,2.4121,2.4121,2.4121,2.4121,2.4121,2.4121,2.4121,2.4066,2.391,2.389,2.3843,2.37,2.368,2.3612,2.3343,2.3323,2.3273,2.2995,2.3097,2.3117,2.2974,2.3097,2.3185,2.3185,2.3185,2.3185,2.3185,2.3185,2.3185,2.3185,2.3185,2.3185,2.3185,2.3185,2.3185,0.0,0.0,0.0,0.0,0.0,0.0,0.0,0.0,0.0,0.0,0.0,0.0,0.0,0.0,0.0,0.0,0.0,0.0,0.0,0.0,0.0,0.0,0.0,0.0,0.0,0.0,0.0,0.0,0.0,0.0,0.0,0.0765,0.1842,0.3284,0.5526,0.8308,1.1601,1.3646,1.5728,1.79,1.8496,1.8957,1.9327,1.9327,1.9327,1.9327,1.9327,1.9327,1.9327,1.9327,1.9327,1.9327,1.9327,1.9327,1.9327,1.9327,1.9354,1.9408,1.9479,1.9533,1.9593,1.9664,1.9854,2.0064,2.0514,2.1394,2.2347,2.2802,2.3515,2.4168,2.4141,2.4121,2.4121,2.4121,2.4121,2.4121,2.4121,2.4121,2.4155,2.4168,2.4188,2.4188,2.4188,2.4188,2.4134,2.4053,2.4033,2.4012,2.3944,2.3944,2.389,2.3734,2.3558,2.3255,2.3029,2.313,2.3171,2.3029,2.3151,2.3219,2.3219,2.3219,2.3219,2.3219,2.3219,2.3219,2.3219,2.3219,2.3219,2.3219,2.3219,2.3219,0.0,0.0,0.0,0.0,0.0,0.0,0.0,0.0,0.0,0.0,0.0,0.0,0.0,0.0,0.0,0.0,0.0,0.0,0.0,0.0,0.0,0.0,0.0,0.0,0.0,0.0,0.0,0.0,0.0,0.0,0.0,0.0993,0.2678,0.5096,0.7182,1.0407,1.48,1.5838,1.7342,1.9327,1.9327,1.9327,1.9327,1.9327,1.9327,1.9327,1.9327,1.9327,1.9327,1.9327,1.9327,1.9327,1.9327,1.9327,1.9327,1.9327,1.9354,1.9392,1.9522,1.9593,1.9631,1.9761,1.9789,1.9855,2.0333,2.1147,2.1982,2.2535,2.3496,2.4385,2.4229,2.4189,2.4175,2.4141,2.4121,2.4121,2.4121,2.4155,2.4229,2.4256,2.4385,2.4406,2.4276,2.4276,2.4222,2.4141,2.4121,2.4121,2.4121,2.4121,2.4066,2.391,2.37,2.3483,2.3225,2.3293,2.3314,2.3219,2.3307,2.3361,2.3361,2.3361,2.3361,2.3361,2.3361,2.3361,2.3361,2.3361,2.3361,2.3361,2.3361,2.3327,0.0,0.0,0.0,0.0,0.0,0.0,0.0,0.0,0.0,0.0,0.0,0.0,0.0,0.0,0.0,0.0,0.0,0.0,0.0,0.0,0.0,0.0,0.0,0.0,0.0,0.0,0.0,0.0,0.0,0.0,0.0,0.1515,0.3483,0.5896,0.9088,1.2314,1.5636,1.7188,1.8392,1.9327,1.9327,1.9327,1.9327,1.9327,1.9327,1.9327,1.9327,1.9327,1.9327,1.9327,1.9327,1.9327,1.9327,1.9327,1.9327,1.9327,1.9392,1.9522,1.9647,1.9772,1.9886,2.0001,1.9961,2.0012,1.9903,2.0842,2.195,2.2078,2.3345,2.4528,2.4385,2.4276,2.4235,2.4155,2.4121,2.4121,2.4121,2.4168,2.4276,2.4276,2.446,2.4507,2.4365,2.4276,2.4222,2.4141,2.4121,2.4121,2.4121,2.4121,2.4066,2.391,2.389,2.3822,2.368,2.368,2.368,2.368,2.368,2.368,2.368,2.368,2.368,2.368,2.368,2.368,2.368,2.368,2.368,2.368,2.368,2.3592,0.0,0.0,0.0,0.0,0.0,0.0,0.0,0.0,0.0,0.0,0.0,0.0,0.0,0.0,0.0,0.0,0.0,0.0,0.0,0.0,0.0,0.0,0.0,0.0,0.0,0.0,0.0,0.0,0.053,0.0833,0.0833,0.3317,0.5866,0.8333,1.0414,1.3634,1.8083,1.8579,1.894,1.9212,1.9283,1.9283,1.9212,1.9283,1.9327,1.9327,1.9327,1.9327,1.9327,1.9327,1.9327,1.9327,1.9327,1.9327,1.9327,1.9327,1.9354,1.9392,1.9522,1.9593,1.9647,1.9761,1.98,1.9789,1.9761,2.0905,2.2442,2.3634,2.4255,2.4582,2.4629,2.4582,2.4494,2.444,2.4419,2.4419,2.4419,2.446,2.4528,2.4629,2.4684,2.4704,2.467,2.4562,2.444,2.4297,2.4189,2.4121,2.4121,2.4121,2.41,2.4053,2.4053,2.3944,2.37,2.368,2.368,2.368,2.368,2.368,2.368,2.368,2.368,2.368,2.368,2.368,2.368,2.368,2.368,2.368,2.368,2.3592,0.0,0.0,0.0,0.0,0.0,0.0,0.0,0.0,0.0,0.0,0.0,0.0,0.0,0.0,0.0,0.0,0.0,0.0,0.0,0.0,0.0,0.0,0.0,0.0,0.0,0.0,0.0,0.0,0.0752,0.1579,0.248,0.4942,0.7832,1.107,1.2216,1.484,1.9087,1.9087,1.9087,1.9161,1.9212,1.9229,1.9232,1.9267,1.9327,1.9327,1.9327,1.9327,0.0,1.9327,1.9327,1.9327,1.9327,1.9327,1.9327,1.9327,1.9327,1.9337,1.9462,1.9506,1.9522,1.9647,1.9925,2.0237,2.0593,2.15,2.2694,2.4199,2.4684,2.4738,2.4704,2.4684,2.4636,2.4582,2.4562,2.4562,2.4562,2.4616,2.467,2.4704,2.4792,2.4847,2.4724,2.467,2.4582,2.431,2.4263,2.4189,2.4121,2.4121,2.4121,2.4121,2.4121,2.4053,2.3856,2.3843,2.3843,2.3843,2.3843,2.3843,2.3843,2.3843,2.3843,2.3843,2.3843,2.3843,2.3843,2.3843,2.3843,2.3843,2.3843,2.3768,0.0,0.0,0.0,0.0,0.0,0.0,0.0,0.0,0.0,0.0,0.0,0.0,0.0,0.0,0.0,0.0,0.0,0.0,0.0,0.0,0.0,0.0,0.0,0.0,0.0,0.0,0.0,0.0,0.0818,0.2303,0.4675,0.6379,0.9387,1.3945,1.4328,1.5913,1.8946,1.8957,1.8957,1.8946,1.9161,1.9232,1.9216,1.9267,1.9327,1.9327,1.9327,1.9327,1.9327,1.9327,1.9327,1.9327,1.9327,1.9327,1.9327,1.9327,1.9327,1.9337,1.9452,1.9495,1.9587,1.9772,2.035,2.1142,2.2114,2.2476,2.274,2.4026,2.4628,2.4948,2.4684,2.4704,2.4772,2.4636,2.4672,2.4596,2.4596,2.4704,2.4772,2.4616,2.4826,2.4935,2.465,2.4704,2.4704,2.4344,2.4365,2.4235,2.4155,2.4141,2.4141,2.4121,2.4121,2.4121,2.4121,2.4121,2.4121,2.4121,2.4121,2.4121,2.4121,2.4121,2.4121,2.4121,2.4121,2.4121,2.4121,2.4141,2.4141,2.4121,2.4141,2.4053,0.0,0.0,0.0,0.0,0.0,0.0,0.0,0.0,0.0,0.0,0.0,0.0,0.0,0.0,0.0,0.0,0.0,0.0,0.0,0.0,0.0,0.0,0.0,0.0,0.0,0.0,0.0,0.0,0.1338,0.3121,0.5491,0.8201,1.1259,1.4822,1.6094,1.7389,1.8707,1.8788,1.8788,1.8707,1.9017,1.9115,1.9028,1.9223,1.9327,1.9327,1.9327,1.9327,1.9327,1.9327,1.9327,1.9327,1.9327,1.9327,1.9327,1.9327,1.9327,1.9327,1.9354,1.9751,2.0347,2.1052,2.1442,2.1829,2.268,2.3079,2.3424,2.4546,2.4935,2.5023,2.507,2.5023,2.4982,2.5057,2.4982,2.4914,2.4914,2.4935,2.4948,2.4914,2.4969,2.5003,2.4935,2.4847,2.4772,2.4704,2.4582,2.446,2.4317,2.4222,2.4243,2.4141,2.4121,2.4121,2.4121,2.4121,2.4121,2.4121,2.4121,2.4121,2.4121,2.4121,2.4121,2.4121,2.4121,2.4121,2.4121,2.4168,2.4168,2.4121,2.4243,2.4155,0.0,0.0,0.0,0.0,0.0,0.0,0.0,0.0,0.0,0.0,0.0,0.0,0.0,0.0,0.0,0.0,0.0,0.0,0.0,0.0,0.0,0.0,0.0,0.0,0.0,0.0,0.0,0.0,0.1472,0.3829,0.728,0.968,1.2799,1.6662,1.7556,1.8181,1.862,1.868,1.868,1.862,1.8875,1.8989,1.8973,1.9169,1.9283,1.9327,1.9327,1.9327,1.9327,1.9327,1.9327,1.9327,1.9327,1.9327,1.9327,1.9327,1.9327,1.9327,1.9327,1.9857,2.0612,2.1424,2.201,2.246,2.3039,2.3612,2.4179,2.4652,2.5003,2.5213,2.5145,2.5179,2.5233,2.5233,2.5179,2.5091,2.5036,2.5023,2.5003,2.4935,2.4969,2.5003,2.4935,2.4894,2.488,2.4806,2.4724,2.4616,2.4473,2.4385,2.4235,2.4229,2.4155,2.4121,2.4121,2.4121,2.4121,2.4121,2.4121,2.4121,2.4121,2.4121,2.4121,2.4121,2.4121,2.4155,2.4229,2.4235,2.4331,2.4317,2.4276,2.4188,0.0,0.0,0.0,0.0,0.0,0.0,0.0,0.0,0.0,0.0,0.0,0.0,0.0,0.0,0.0,0.0,0.0,0.0,0.0,0.0,0.0,0.0,0.0,0.0,0.0,0.0144,0.0217,0.0217,0.1818,0.4808,0.9236,1.1059,1.3968,1.8475,1.862,1.862,1.862,1.862,1.8609,1.8593,1.8734,1.8859,1.8973,1.9172,1.9212,1.9327,1.9327,1.9327,1.9327,1.9327,1.9327,1.9327,1.9327,1.9327,1.9327,1.9327,1.9327,1.9327,1.9557,2.0076,2.0825,2.173,2.2571,2.3147,2.3476,2.4136,2.4792,2.4636,2.5023,2.541,2.5179,2.5287,2.543,2.5321,2.5267,2.5199,2.507,2.5036,2.4982,2.4847,2.4935,2.4982,2.4847,2.4935,2.4969,2.4847,2.4826,2.4772,2.4616,2.4494,2.433,2.4276,2.4229,2.4141,2.4121,2.4141,2.4155,2.4155,2.4155,2.4175,2.4189,2.4189,2.4189,2.4189,2.4189,2.4243,2.4385,2.4406,2.4473,2.4562,2.4453,2.4385,0.0,0.0,0.0,0.0,0.0,0.0,0.0,0.0,0.0,0.0,0.0,0.0,0.0,0.0,0.0,0.0,0.0,0.0,0.0,0.0,0.0,0.0,0.0,0.0,0.0,0.058,0.1019,0.1019,0.3642,0.6771,1.011,1.2442,1.5132,1.8475,1.862,1.862,1.862,1.862,1.8565,1.8396,1.869,1.8859,1.8973,1.9172,1.9212,1.9327,1.9327,1.9327,1.9327,1.9327,1.9327,1.9327,1.9327,1.9327,1.9327,1.9327,1.9327,1.9477,2.0825,2.1424,2.173,2.3218,2.3903,2.4099,2.4139,2.4511,2.4948,2.4792,2.5091,2.5477,2.5566,2.5532,2.5498,2.5599,2.5423,2.5155,2.5199,2.5111,2.5023,2.4982,2.5003,2.5023,2.4982,2.5003,2.5023,2.4982,2.4982,2.4935,2.4772,2.4738,2.4629,2.431,2.4256,2.4188,2.4141,2.4168,2.4235,2.4235,2.4235,2.4365,2.4494,2.4494,2.4494,2.4494,2.4494,2.4507,2.4528,2.467,2.467,2.4562,2.467,2.4596,0.0,0.0,0.0,0.0,0.0,0.0,0.0,0.0,0.0,0.0,0.0,0.0,0.0,0.0,0.0,0.0,0.0,0.0,0.0,0.0,0.0,0.0,0.0,0.0,0.0,0.0721,0.1666,0.2885,0.5152,0.8141,1.2084,1.3719,1.5852,1.8548,1.862,1.862,1.862,1.862,1.8593,1.8538,1.8647,1.8788,1.8973,1.8957,1.906,1.9229,1.9169,1.9169,1.924,1.924,1.9267,1.9327,1.9327,1.9327,1.9327,1.9327,1.9327,1.9552,2.1131,2.173,2.196,2.3598,2.4175,2.4263,2.4419,2.467,2.4914,2.5003,2.5301,2.5586,2.5566,2.564,2.5694,2.5694,2.5586,2.5423,2.5267,2.5179,2.5111,2.5036,2.5023,2.5023,2.5023,2.5023,2.5023,2.5023,2.5023,2.5003,2.4935,2.4847,2.4738,2.4596,2.4507,2.444,2.4372,2.4419,2.446,2.446,2.446,2.4494,2.4562,2.4562,2.4562,2.4562,2.4562,2.4672,2.4684,2.4758,2.4792,2.4813,2.4792,2.467,0.0,0.0,0.0,0.0,0.0,0.0,0.0,0.0,0.0,0.0,0.0,0.0,0.0,0.0,0.0,0.0,0.0,0.0,0.0,0.0,0.0,0.0,0.014,0.0284,0.0284,0.1509,0.3029,0.4872,0.7089,1.0013,1.3834,1.5075,1.6585,1.8548,1.8647,1.8663,1.8663,1.869,1.868,1.862,1.862,1.875,1.8973,1.8848,1.893,1.9158,1.9028,1.9028,1.9189,1.9216,1.9212,1.9283,1.931,1.9327,1.9327,1.9327,1.9327,1.9552,2.1131,2.173,2.196,2.3598,2.4141,2.4209,2.444,2.465,2.4847,2.507,2.5355,2.5566,2.5532,2.5708,2.5864,2.5762,2.5694,2.5566,2.5335,2.5233,2.5145,2.5036,2.5023,2.5023,2.5023,2.5023,2.5023,2.5023,2.5023,2.5023,2.5023,2.4914,2.4826,2.4792,2.4684,2.4616,2.4616,2.4658,2.4596,2.467,2.467,2.467,2.467,2.467,2.467,2.467,2.467,2.4724,2.4847,2.4847,2.4894,2.5023,2.4894,2.4758,0.0,0.0,0.0,0.0,0.0,0.0,0.0,0.0,0.0,0.0,0.0,0.0,0.0,0.0,0.0,0.0,0.0,0.0,0.0,0.0,0.0,0.0,0.0633,0.1144,0.1144,0.3759,0.5807,0.6562,1.0219,1.3132,1.4703,1.6378,1.7752,1.8548,1.8718,1.8777,1.8777,1.8892,1.8832,1.862,1.862,1.875,1.8973,1.8848,1.893,1.9158,1.9028,1.8973,1.9,1.9115,1.9232,1.9185,1.9283,1.9327,1.9327,1.9327,1.9327,1.9552,2.1131,2.173,2.196,2.3598,2.4209,2.4256,2.4276,2.4562,2.4792,2.4813,2.5036,2.5321,2.5599,2.5783,2.5905,2.5884,2.5674,2.5477,2.5443,2.5233,2.5036,2.5023,2.5023,2.5023,2.5023,2.5023,2.5023,2.5023,2.5023,2.5023,2.5023,2.5003,2.4948,2.4806,2.4772,2.4772,2.4772,2.465,2.4684,2.4969,2.4982,2.4982,2.4982,2.4982,2.4982,2.4982,2.4982,2.4982,2.5003,2.5003,2.5003,2.5023,2.5003,2.4914,0.0,0.0,0.0,0.0,0.0,0.0,0.0,0.0,0.0,0.0,0.0,0.0,0.0,0.0,0.0,0.0,0.0,0.0,0.0,0.0,0.0,0.0,0.0701,0.1706,0.3125,0.5154,0.7689,1.0813,1.296,1.4945,1.6993,1.7757,1.8368,1.8718,1.8761,1.8832,1.8902,1.8946,1.8892,1.8734,1.8805,1.8886,1.8973,1.893,1.8957,1.9101,1.8919,1.8859,1.8875,1.8989,1.9087,1.9243,1.9283,1.9327,1.9327,1.9327,1.9632,2.0226,2.1287,2.2023,2.2634,2.3861,2.4297,2.431,2.4562,2.4704,2.4813,2.4914,2.5023,2.5125,2.5247,2.5443,2.5606,2.5511,2.5477,2.5443,2.5335,2.5233,2.5125,2.5036,2.5023,2.5023,2.5023,2.5023,2.5023,2.5023,2.5023,2.5023,2.5023,2.5023,2.5003,2.4935,2.4847,2.4758,2.465,2.4684,2.4758,2.486,2.4969,2.5023,2.5023,2.5023,2.5023,2.5023,2.5023,2.5023,2.5023,2.5023,2.5023,2.5023,2.5023,2.4935,0.0,0.0,0.0,0.0,0.0,0.0,0.0,0.0,0.0,0.0,0.0,0.0,0.0,0.0,0.0,0.0,0.0,0.0,0.0,0.0,0.0,0.0,0.0842,0.2415,0.4681,0.6789,0.9684,1.3736,1.5045,1.6535,1.8292,1.8549,1.868,1.8788,1.8832,1.8902,1.9028,1.9071,1.9,1.8848,1.9017,1.9044,1.8973,1.8973,1.8973,1.8973,1.8848,1.8777,1.875,1.8859,1.9017,1.9169,1.924,1.9294,1.9327,1.9557,2.0001,2.0687,2.173,2.2497,2.3085,2.4003,2.4344,2.4528,2.467,2.4758,2.4806,2.486,2.488,2.486,2.4826,2.5057,2.5301,2.5247,2.5287,2.5301,2.5247,2.5199,2.5145,2.5036,2.5023,2.5023,2.5023,2.5023,2.5023,2.5023,2.5023,2.5023,2.5023,2.5023,2.5003,2.4948,2.4813,2.467,2.4582,2.465,2.4738,2.4792,2.4935,2.5023,2.5023,2.5023,2.5023,2.5023,2.5023,2.5023,2.5023,2.5023,2.5023,2.5023,2.5023,2.4969,0.0,0.0,0.0,0.0,0.0,0.0,0.0,0.0,0.0,0.0,0.0,0.0,0.0,0.0,0.0,0.0,0.0,0.0,0.0,0.0,0.0,0.0,0.1342,0.3216,0.5569,0.8666,1.1754,1.4775,1.6599,1.7773,1.838,1.8549,1.868,1.8788,1.8919,1.9101,1.9232,1.9267,1.9212,1.8973,1.9212,1.9196,1.8973,1.8973,1.8973,1.8973,1.8848,1.8734,1.8636,1.875,1.893,1.9232,1.9232,1.9229,1.9402,2.0226,2.0532,2.0762,2.2328,2.301,2.3208,2.4043,2.4541,2.4758,2.4616,2.467,2.4758,2.4672,2.4562,2.4528,2.4385,2.4607,2.5057,2.5199,2.5111,2.5057,2.5199,2.5111,2.5023,2.5023,2.5023,2.5023,2.5023,2.5023,2.5023,2.5023,2.5023,2.5023,2.5023,2.5023,2.4969,2.4806,2.465,2.4562,2.4562,2.4562,2.4636,2.4772,2.4935,2.5023,2.5023,2.5023,2.5023,2.5023,2.5023,2.5023,2.5023,2.5023,2.5023,2.5023,2.5023,2.5023,0.0,0.0,0.0,0.0,0.0,0.0,0.0,0.0,0.0,0.0,0.0,0.0,0.0,0.0,0.0,0.0,0.0,0.0,0.0,0.0,0.0,0.0,0.1341,0.3839,0.7773,0.995,1.2858,1.707,1.7822,1.8256,1.868,1.8718,1.8832,1.9044,1.9087,1.9158,1.9267,1.931,1.9256,1.9172,1.9256,1.9196,1.8973,1.9142,1.9125,1.8973,1.893,1.8805,1.8636,1.875,1.893,1.9232,1.9232,1.9229,1.9327,1.9552,2.0382,2.1424,2.1885,2.2809,2.3916,2.4364,2.4494,2.4507,2.467,2.4684,2.4616,2.4582,2.4494,2.4406,2.429,2.4365,2.4419,2.4506,2.465,2.4704,2.4758,2.4813,2.486,2.486,2.4948,2.5023,2.5023,2.5023,2.5023,2.5023,2.5023,2.5023,2.5023,2.4935,2.4806,2.465,2.4494,2.4365,2.4263,2.444,2.4658,2.4636,2.488,2.5023,2.5023,2.5023,2.5023,2.5023,2.5023,2.5023,2.5023,2.5023,2.5023,2.5023,2.5023,2.5023,0.0,0.0,0.0,0.0,0.0,0.0,0.0,0.0,0.0,0.0,0.0,0.0,0.0,0.0,0.0,0.0,0.0,0.0,0.0,0.0276,0.0418,0.0492,0.2407,0.5271,0.9232,1.1344,1.4133,1.8283,1.8582,1.8663,1.8848,1.8859,1.8957,1.9158,1.9232,1.9212,1.9327,1.9327,1.9267,1.9232,1.9229,1.9158,1.8973,1.9169,1.9158,1.8973,1.8875,1.875,1.862,1.869,1.8859,1.9087,1.9087,1.9185,1.9327,1.9632,2.0382,2.1287,2.196,2.2883,2.3779,2.4344,2.4453,2.4453,2.4582,2.4541,2.4473,2.4406,2.4331,2.4188,2.4188,2.4189,2.4155,2.4235,2.4419,2.4494,2.4548,2.4636,2.4724,2.4772,2.486,2.4948,2.5003,2.5023,2.5023,2.5023,2.5023,2.5003,2.4935,2.4847,2.4704,2.4507,2.4406,2.4277,2.4141,2.4331,2.4473,2.4473,2.4704,2.4847,2.4847,2.4948,2.5023,2.5023,2.5023,2.5023,2.5023,2.5023,2.5023,2.5023,2.5023,2.5023,0.0,0.0,0.0,0.0,0.0,0.0,0.0,0.0,0.0,0.0,0.0,0.0,0.0,0.0,0.0,0.0,0.0,0.0,0.0,0.0625,0.1188,0.1487,0.4133,0.7168,1.0524,1.2839,1.5399,1.858,1.8805,1.8859,1.8989,1.8989,1.9044,1.9243,1.9243,1.9212,1.931,1.9327,1.9267,1.9216,1.9158,1.9161,1.8973,1.9161,1.9145,1.8946,1.8718,1.862,1.862,1.8636,1.8777,1.8973,1.8989,1.9125,1.9402,2.0151,2.0457,2.0687,2.2253,2.2935,2.3188,2.4037,2.4419,2.4507,2.4385,2.4256,2.4297,2.4155,2.4121,2.4121,2.4121,2.4121,2.4155,2.4235,2.4256,2.4365,2.4494,2.4528,2.4582,2.4724,2.4772,2.4847,2.4969,2.5003,2.5023,2.5023,2.5003,2.4948,2.4826,2.4792,2.467,2.4344,2.429,2.4222,2.4155,2.4263,2.4276,2.4276,2.4494,2.4562,2.4562,2.4826,2.4982,2.4982,2.4982,2.4982,2.5003,2.5003,2.5003,2.5023,2.5023,2.5023,0.0,0.0,0.0,0.0,0.0,0.0,0.0,0.0,0.0,0.0,0.0,0.0,0.0,0.0,0.0,0.0,0.0,0.0,0.0,0.0628,0.1828,0.3702,0.5567,0.841,1.2918,1.4346,1.6082,1.8783,1.893,1.8989,1.9115,1.9189,1.9169,1.9283,1.9283,1.9256,1.9196,1.9283,1.9223,1.9017,1.9115,1.9161,1.8973,1.9,1.8946,1.8821,1.868,1.862,1.862,1.8718,1.8848,1.8989,1.9087,1.9196,1.9327,1.9477,1.9921,2.0612,2.1655,2.2422,2.3072,2.4003,2.4297,2.4229,2.4317,2.4263,2.4155,2.4141,2.4121,2.4121,2.4121,2.4121,2.4155,2.4235,2.4188,2.4175,2.4209,2.4317,2.4406,2.444,2.4629,2.4806,2.4826,2.4935,2.5023,2.5023,2.4914,2.488,2.4969,2.4758,2.4636,2.4684,2.4494,2.4256,2.4297,2.4256,2.4276,2.4276,2.4494,2.4562,2.4562,2.4636,2.467,2.467,2.467,2.4724,2.4847,2.4847,2.4894,2.5023,2.5023,2.5023,0.0,0.0,0.0,0.0,0.0,0.0,0.0,0.0,0.0,0.0,0.0,0.0,0.0,0.0,0.0,0.0,0.0276,0.0556,0.0558,0.21,0.3873,0.5564,0.8065,1.0936,1.4358,1.5712,1.7174,1.897,1.9134,1.9115,1.9229,1.924,1.9267,1.9327,1.9267,1.9212,1.9232,1.9158,1.9098,1.8973,1.8973,1.8919,1.8805,1.8859,1.8821,1.8707,1.8647,1.862,1.8636,1.875,1.8859,1.8973,1.9044,1.9169,1.9327,1.9267,1.9571,2.0076,2.1287,2.196,2.2559,2.3766,2.4189,2.4141,2.4209,2.4189,2.4121,2.4121,2.4121,2.4121,2.4121,2.4175,2.4243,2.4256,2.4229,2.4141,2.4209,2.4168,2.4188,2.4256,2.4528,2.4704,2.4772,2.4914,2.5023,2.5023,2.4894,2.4792,2.4806,2.467,2.4548,2.4473,2.4406,2.4235,2.4243,2.4168,2.4168,2.4168,2.4317,2.4351,2.4351,2.4351,2.4419,2.4562,2.4562,2.4596,2.4684,2.4758,2.4826,2.4914,2.4982,2.5023,0.0,0.0,0.0,0.0,0.0,0.0,0.0,0.0,0.0,0.0,0.0,0.0,0.0,0.0,0.0,0.0,0.0627,0.1257,0.1687,0.408,0.6422,0.7929,1.1011,1.383,1.5772,1.7061,1.8258,1.9142,1.9232,1.9185,1.9256,1.9283,1.9294,1.9294,1.9196,1.9216,1.9205,1.9028,1.8957,1.8919,1.8805,1.8707,1.862,1.8718,1.8707,1.862,1.862,1.862,1.8636,1.8761,1.8875,1.8973,1.9,1.9142,1.931,1.9196,1.9229,1.9552,2.1131,2.173,2.196,2.3598,2.4121,2.4121,2.4121,2.4121,2.4121,2.4121,2.4121,2.4121,2.4121,2.4209,2.4317,2.4365,2.4202,2.4189,2.4317,2.4243,2.4189,2.4222,2.444,2.4616,2.4792,2.4935,2.5023,2.5023,2.486,2.4724,2.4616,2.4562,2.444,2.4229,2.4222,2.4297,2.4175,2.4141,2.4121,2.4121,2.4121,2.4121,2.4121,2.4121,2.4243,2.4473,2.4494,2.4494,2.4528,2.465,2.4724,2.4758,2.488,2.4948,0.0,0.0,0.0,0.0,0.0,0.0,0.0,0.0,0.0,0.0,0.0,0.0,0.0,0.0,0.0,0.0,0.0636,0.1911,0.3916,0.5698,0.8281,1.2572,1.41,1.5733,1.8242,1.8657,1.8937,1.9216,1.9232,1.9115,1.9028,1.9115,1.9185,1.9185,1.9169,1.9172,1.9,1.8989,1.8875,1.8663,1.8647,1.8636,1.862,1.8636,1.8636,1.862,1.862,1.862,1.8636,1.8859,1.8957,1.8989,1.9161,1.9212,1.931,1.9196,1.9229,1.9552,2.1131,2.173,2.196,2.3598,2.4121,2.4121,2.4121,2.4121,2.4121,2.4121,2.4121,2.4121,2.4121,2.4141,2.4209,2.4473,2.4419,2.4256,2.4276,2.4256,2.4202,2.4175,2.4372,2.465,2.4935,2.5003,2.5023,2.5023,2.4772,2.4636,2.4738,2.4541,2.4406,2.4494,2.4406,2.4276,2.4235,2.4189,2.4121,2.4121,2.4121,2.4121,2.4121,2.4121,2.4141,2.4175,2.4175,2.4243,2.431,2.433,2.4473,2.4596,2.4616,2.4616,0.0,0.0,0.0,0.0,0.0,0.0,0.0,0.0,0.0,0.0,0.0,0.0,0.0,0.0,0.0,0.0,0.0992,0.2626,0.4996,0.7356,1.0229,1.4172,1.5627,1.7051,1.8794,1.8973,1.9044,1.924,1.9256,1.9196,1.9087,1.9205,1.9205,1.906,1.8989,1.893,1.8875,1.8805,1.8718,1.862,1.862,1.862,1.862,1.862,1.8647,1.8718,1.8718,1.875,1.8832,1.9,1.9101,1.8973,1.9028,1.9087,1.9115,1.9,1.9071,1.9453,2.1024,2.1669,2.196,2.3598,2.4121,2.41,2.4012,2.4053,2.41,2.4012,2.4053,2.4121,2.4121,2.4189,2.4277,2.4419,2.4528,2.4582,2.4494,2.4473,2.4473,2.4494,2.4596,2.4758,2.4982,2.5023,2.5023,2.5023,2.4758,2.4658,2.465,2.4473,2.4331,2.4317,2.4331,2.4235,2.4229,2.4155,2.4121,2.4121,2.4121,2.4121,2.4121,2.4121,2.4121,2.4121,2.4121,2.4155,2.4229,2.4235,2.4385,2.444,2.4528,2.4562,0.0,0.0,0.0,0.0,0.0,0.0,0.0,0.0,0.0,0.0,0.0,0.0,0.0,0.0,0.0,0.0,0.1278,0.3346,0.6306,0.8965,1.1931,1.5587,1.6971,1.7959,1.8946,1.8973,1.906,1.9267,1.9283,1.9212,1.9071,1.9161,1.906,1.893,1.8832,1.8788,1.8788,1.868,1.862,1.862,1.862,1.862,1.862,1.8647,1.8707,1.8788,1.8788,1.8832,1.8892,1.9044,1.9044,1.893,1.893,1.8946,1.8957,1.8832,1.8946,1.9387,2.0935,2.162,2.196,2.3598,2.4121,2.41,2.3978,2.4033,2.41,2.3978,2.4033,2.4121,2.4121,2.4134,2.4297,2.4256,2.4541,2.4724,2.4636,2.4596,2.4616,2.4758,2.4792,2.4847,2.4982,2.5023,2.5023,2.5023,2.4758,2.4562,2.4562,2.4406,2.4243,2.4141,2.4229,2.4243,2.4141,2.4121,2.4121,2.4121,2.4121,2.4121,2.4121,2.4121,2.4121,2.4121,2.4121,2.4121,2.4121,2.4168,2.4222,2.4222,2.4406,2.446,0.0,0.0,0.0,0.0,0.0,0.0,0.0,0.0,0.0,0.0,0.0,0.0,0.0,0.0,0.0,0.0,0.1287,0.3874,0.8487,1.0539,1.3228,1.7886,1.8459,1.8634,1.8946,1.8973,1.9028,1.9158,1.9243,1.906,1.8821,1.8919,1.893,1.8805,1.8788,1.8788,1.8788,1.868,1.862,1.862,1.862,1.862,1.862,1.8734,1.8788,1.8788,1.8788,1.8734,1.8663,1.8886,1.8919,1.8805,1.8805,1.8875,1.8957,1.8832,1.8946,1.9387,2.0935,2.162,2.196,2.3598,2.4121,2.4121,2.41,2.4121,2.4121,2.41,2.4121,2.4121,2.4121,2.4121,2.4175,2.4235,2.446,2.4616,2.4758,2.467,2.4616,2.4758,2.4792,2.4847,2.4982,2.5023,2.5023,2.5023,2.4758,2.4562,2.4562,2.4317,2.4141,2.4121,2.4121,2.4121,2.4121,2.4121,2.4121,2.4121,2.4121,2.4121,2.4121,2.4121,2.4121,2.4121,2.4121,2.4121,2.4121,2.4121,2.4141,2.4141,2.4141,2.4141,0.0,0.0,0.0,0.0,0.0,0.0,0.0,0.0,0.0,0.0,0.0,0.0,0.0,0.0419,0.0705,0.0785,0.2861,0.5814,0.9584,1.1854,1.448,1.8181,1.862,1.8718,1.8946,1.8902,1.8946,1.9216,1.9087,1.8957,1.8805,1.8832,1.8805,1.869,1.868,1.868,1.868,1.8636,1.862,1.862,1.862,1.862,1.862,1.8734,1.875,1.869,1.8848,1.8886,1.8921,1.9455,1.9337,1.8867,1.9299,1.9209,1.875,1.869,1.8788,1.9139,2.0685,2.1351,2.1707,2.3426,2.3978,2.3978,2.3978,2.4053,2.41,2.3999,2.4053,2.4121,2.4121,2.4121,2.4175,2.4419,2.4528,2.4636,2.488,2.4894,2.488,2.4935,2.4935,2.4948,2.5003,2.5023,2.5023,2.5023,2.4758,2.4562,2.4562,2.4297,2.4121,2.4121,2.4121,2.4121,2.4121,2.4121,2.4121,2.4121,2.4121,2.4121,2.4121,2.4121,2.4121,2.4121,2.4121,2.4121,2.4121,2.4121,2.4121,2.4121,2.4121,2.4121,0.0,0.0,0.0,0.0,0.0,0.0,0.0,0.0,0.0,0.0,0.0,0.0,0.0,0.0835,0.1686,0.2283,0.4504,0.7461,1.1182,1.3236,1.5426,1.8253,1.862,1.8718,1.8946,1.8859,1.8892,1.9216,1.9044,1.8919,1.8788,1.8788,1.8734,1.862,1.862,1.862,1.862,1.862,1.862,1.862,1.862,1.862,1.862,1.8777,1.8788,1.869,1.893,1.8973,1.8932,1.941,1.9281,1.8807,1.9237,1.912,1.862,1.862,1.8868,1.9428,2.076,2.1455,2.2071,2.3487,2.3965,2.3965,2.3965,2.4033,2.41,2.3999,2.4053,2.4121,2.4121,2.4121,2.4189,2.444,2.4528,2.4636,2.4894,2.4982,2.5023,2.5023,2.5023,2.5023,2.5023,2.5023,2.5023,2.5023,2.4758,2.4562,2.4562,2.4297,2.4121,2.4121,2.4121,2.4121,2.4121,2.4121,2.4121,2.4121,2.4121,2.4121,2.4121,2.4121,2.4121,2.4121,2.4121,2.4121,2.4121,2.4121,2.4121,2.4121,2.4121,2.4121,0.0,0.0,0.0,0.0,0.0,0.0,0.0,0.0,0.0,0.0,0.0,0.0,0.0,0.1175,0.2725,0.4415,0.5997,0.8605,1.3281,1.4616,1.6001,1.8325,1.862,1.8707,1.8946,1.8859,1.8886,1.9205,1.9028,1.8919,1.8788,1.8788,1.8734,1.862,1.862,1.862,1.862,1.862,1.862,1.862,1.862,1.862,1.8636,1.8859,1.8902,1.8805,1.9044,1.8957,1.8636,1.875,1.8723,1.862,1.862,1.862,1.862,1.8692,1.9355,2.0354,2.1167,2.2083,2.2988,2.3816,2.4121,2.4121,2.4121,2.4121,2.4121,2.4121,2.4121,2.4121,2.4121,2.4121,2.4155,2.4235,2.4453,2.4596,2.4758,2.4894,2.5003,2.5023,2.5023,2.5023,2.5023,2.5023,2.5023,2.5023,2.4758,2.4562,2.4562,2.4297,2.4121,2.4121,2.4121,2.4121,2.4121,2.4121,2.4121,2.4121,2.4121,2.4121,2.4121,2.4121,2.4121,2.4121,2.4121,2.4121,2.4121,2.4121,2.4121,2.4121,2.4121,2.4121,0.0,0.0,0.0,0.0,0.0,0.0,0.0,0.0,0.0,0.0,0.0,0.0,0.0,0.0757,0.2154,0.434,0.6855,0.9612,1.2706,1.4765,1.659,1.8403,1.862,1.868,1.8832,1.8734,1.8734,1.8875,1.8788,1.8707,1.8663,1.8663,1.8647,1.862,1.862,1.862,1.862,1.862,1.862,1.862,1.862,1.862,1.8636,1.8859,1.8902,1.8805,1.9044,1.9044,1.8949,1.9399,1.9226,1.8698,1.9847,1.992,1.9553,2.0052,2.0532,2.0967,2.1757,2.2322,2.2777,2.3621,2.3965,2.3978,2.4087,2.4121,2.4121,2.4121,2.4121,2.4121,2.4121,2.4121,2.4155,2.4235,2.431,2.4453,2.4596,2.465,2.4758,2.4982,2.5023,2.5023,2.5023,2.4935,2.486,2.486,2.4596,2.4406,2.4406,2.4243,2.4121,2.4121,2.4121,2.4121,2.4121,2.4121,2.4121,2.4121,2.4121,2.4121,2.4121,2.4121,2.4121,2.4121,2.4121,2.4121,2.4121,2.4121,2.4121,2.4121,2.4121,2.4121,0.0,0.0,0.0,0.0,0.0,0.0,0.0347,0.0522,0.0664,0.071,0.0735,0.0759,0.0794,0.1403,0.2495,0.4272,0.6542,0.9396,1.2832,1.4765,1.6512,1.8398,1.862,1.8663,1.8777,1.869,1.8663,1.8777,1.869,1.862,1.862,1.862,1.862,1.862,1.862,1.862,1.862,1.862,1.862,1.862,1.862,1.862,1.862,1.8821,1.8886,1.8875,1.9145,1.9189,1.9118,1.9483,1.9208,1.8768,1.97,1.9772,1.9416,1.985,2.0548,2.1363,2.1815,2.2485,2.3286,2.381,2.3978,2.3924,2.3646,2.3598,2.3524,2.3157,2.3082,2.3157,2.3524,2.3598,2.3693,2.4093,2.4297,2.4365,2.4453,2.4528,2.4616,2.4792,2.4826,2.4826,2.4826,2.4758,2.4704,2.4704,2.4494,2.4276,2.4276,2.4209,2.4121,2.4121,2.4121,2.4121,2.4121,2.4121,2.4121,2.4121,2.4121,2.4121,2.4121,2.4121,2.4121,2.4121,2.4121,2.4121,2.4121,2.4121,2.4121,2.4121,2.4121,2.4121,0.0,0.0,0.0,0.0,0.0364,0.0,0.1003,0.1454,0.1909,0.2137,0.222,0.2299,0.239,0.2992,0.3727,0.4434,0.5722,0.8308,1.2953,1.4208,1.5548,1.7814,1.8181,1.8296,1.8465,1.8529,1.8591,1.8761,1.868,1.862,1.862,1.862,1.862,1.862,1.862,1.862,1.862,1.862,1.862,1.862,1.862,1.862,1.862,1.8734,1.8848,1.8957,1.9172,1.9232,1.9232,1.9243,1.9028,1.8805,1.8878,1.8951,1.8951,1.9029,2.0133,2.1522,2.1602,2.2655,2.3965,2.4046,2.4046,2.3816,2.3157,2.2851,2.2621,2.1885,2.173,2.1885,2.2559,2.2851,2.3082,2.3829,2.4148,2.4256,2.4256,2.4419,2.4507,2.4507,2.4548,2.4562,2.4562,2.4548,2.4548,2.4548,2.4419,2.4256,2.4256,2.4134,2.4121,2.4121,2.4121,2.4121,2.4121,2.4121,2.4121,2.4121,2.4121,2.4121,2.4121,2.4121,2.4121,2.4121,2.4121,2.4121,2.4121,2.4121,2.4121,2.4121,2.4121,2.4121,0.0,0.0,0.0,0.0,0.036,0.0,0.2205,0.2954,0.3746,0.4965,0.5327,0.5424,0.5504,0.5675,0.5833,0.5984,0.627,0.7515,1.0566,1.175,1.2953,1.468,1.5426,1.6083,1.6686,1.7323,1.7974,1.8575,1.8636,1.862,1.862,1.862,1.862,1.862,1.862,1.862,1.862,1.862,1.862,1.862,1.862,1.862,1.862,1.8734,1.8805,1.8832,1.906,1.9232,1.9169,1.9256,1.9158,1.9009,1.9591,1.9817,1.989,2.055,2.1093,2.1602,2.2269,2.2736,2.3218,2.389,2.368,2.3082,2.2926,2.2484,2.1885,2.173,2.173,2.173,2.1885,2.2403,2.2926,2.3082,2.3618,2.4175,2.4175,2.4189,2.4209,2.4209,2.4406,2.4562,2.4562,2.4473,2.4385,2.4385,2.4263,2.4175,2.4175,2.4141,2.4121,2.4121,2.4121,2.4121,2.4121,2.4121,2.4121,2.4121,2.4121,2.4121,2.4121,2.4121,2.4121,2.4121,2.4121,2.4121,2.4121,2.4121,2.4121,2.4121,2.4121,2.4121,0.0,0.0,0.0,0.0,0.0539,0.0,0.0,0.3682,0.449,0.5818,0.616,0.63,0.6437,0.667,0.6937,0.7164,0.7125,0.7501,0.872,0.9319,1.0169,1.1486,1.234,1.3457,1.4983,1.5852,1.6942,1.8475,1.862,1.862,1.862,1.862,1.862,1.862,1.862,1.862,1.862,1.862,1.862,1.862,1.862,1.862,1.862,1.868,1.8734,1.8788,1.8919,1.9044,1.9232,1.9212,1.9196,1.9216,1.9526,1.9646,1.972,2.0101,2.0552,2.1024,2.1483,2.1899,2.2403,2.277,2.2621,2.2253,2.1805,2.1131,2.052,2.052,2.052,2.0595,2.0981,2.1424,2.1805,2.2179,2.2621,2.3001,2.3449,2.3524,2.3598,2.4046,2.4243,2.4351,2.4351,2.4277,2.4168,2.4168,2.4175,2.4121,2.4121,2.4121,2.4121,2.4121,2.4121,2.4121,2.4121,2.4121,2.4121,2.4121,2.4121,2.4121,2.4121,2.4121,2.4121,2.4121,2.4121,2.4121,2.4121,2.4121,2.4121,2.4121,2.4121,2.4121,0.0,0.0,0.0,0.0,0.0719,0.1844,0.0,0.0,0.0,0.638,0.6611,0.669,0.7003,0.7508,0.8081,0.8766,0.8663,0.8369,0.7921,0.7865,0.8102,0.8715,0.9727,1.1289,1.3471,1.4662,1.6061,1.7936,1.8085,1.8157,1.8301,1.8466,1.8549,1.8549,1.8549,1.8565,1.8582,1.8582,1.8593,1.862,1.862,1.862,1.862,1.862,1.868,1.8761,1.8777,1.8902,1.9161,1.9216,1.9212,1.9283,1.9212,1.9185,1.9185,1.9185,1.9699,2.0307,2.0457,2.09,2.1499,2.1655,2.158,2.1287,2.0532,1.9921,1.9477,1.9327,1.9402,1.9632,2.0151,2.0382,2.0687,2.1287,2.158,2.1885,2.2559,2.277,2.3082,2.3754,2.3972,2.4121,2.4121,2.4121,2.4121,2.4121,2.4121,2.4121,2.4121,2.4121,2.4121,2.4121,2.4121,2.4121,2.4121,2.4121,2.4121,2.4121,2.4121,2.4121,2.4121,2.4121,2.4121,2.4121,2.4121,2.4121,2.4121,2.4121,2.4121,2.4121,2.4121,2.4121,0.0,0.0,0.0,0.0,0.0723,0.211,0.4843,0.0,0.6278,0.8173,0.0,0.832,0.8893,0.0,0.0,1.1683,1.1427,1.0693,0.9617,0.8798,0.7991,0.6989,0.8733,1.066,1.2389,1.4571,1.5947,1.6163,1.6234,1.6521,1.7155,1.788,1.8299,1.8299,1.8299,1.8353,1.8451,1.8451,1.8511,1.862,1.862,1.862,1.862,1.862,1.862,1.8647,1.875,1.8805,1.8848,1.9071,1.9169,1.9185,1.9267,1.931,1.931,1.931,1.9385,1.9552,2.0226,2.0537,2.0762,2.1499,2.1212,2.0457,1.9707,1.9863,2.0226,1.9477,1.9782,2.0226,1.9632,1.9996,2.0532,2.0612,2.1206,2.173,2.1805,2.2403,2.2926,2.3001,2.3598,2.4121,2.4121,2.4121,2.4121,2.4121,2.4121,2.4121,2.4121,2.4121,2.4121,2.4121,2.4121,2.4121,2.4121,2.4121,2.4121,2.4121,2.4121,2.4121,2.4121,2.4121,2.4121,2.4121,2.4121,2.4121,2.4121,2.4121,2.4121,2.4121,2.4121,2.4121,0.0,0.0,0.0,0.0,0.0743,0.2067,0.4348,0.4967,0.5424,0.6829,0.0,0.0,0.0,0.0,0.0,0.0,1.0402,1.0078,0.9273,0.8712,0.7935,0.6715,0.7911,0.9673,1.181,1.3644,1.4457,1.3974,1.433,1.488,1.5574,1.7273,1.8217,1.8217,1.8288,1.8283,1.8326,1.8397,1.8396,1.845,1.8593,1.862,1.862,1.862,1.862,1.862,1.868,1.8734,1.8805,1.8902,1.9028,1.9232,1.9212,1.9267,1.9327,1.9327,1.9327,1.9327,1.9707,1.9782,1.9846,2.0226,2.0076,1.9707,1.9402,1.9552,1.9707,1.9402,1.9552,1.9707,1.9402,1.9552,1.9782,1.9782,2.0076,2.0457,2.09,2.1287,2.1805,2.2696,2.3157,2.3524,2.4046,2.4121,2.4121,2.4121,2.4121,2.4121,2.4121,2.4121,2.4121,2.4121,2.4121,2.4121,2.4121,2.4121,2.4121,2.4121,2.4121,2.4121,2.4121,2.4121,2.4121,2.4121,2.4121,2.4121,2.4121,2.4121,2.4121,2.4121,2.4121,2.4066,0.0,0.0,0.0,0.0,0.0625,0.1748,0.3506,0.3831,0.4036,0.4856,0.4985,0.0,0.0,0.0,0.6942,0.8058,0.0,0.8837,0.8969,0.8685,0.8026,0.6755,0.7634,0.9106,1.1043,1.2114,1.2484,1.2195,1.2667,1.3426,1.4561,1.6644,1.7864,1.7918,1.8076,1.8245,1.8272,1.8326,1.8408,1.8369,1.8565,1.862,1.862,1.862,1.862,1.862,1.862,1.8663,1.875,1.8777,1.8892,1.9134,1.9205,1.9185,1.924,1.9294,1.9327,1.9327,1.9327,1.9327,1.9327,1.9327,1.931,1.9283,1.9283,1.9405,1.9527,1.9303,1.9378,1.9527,1.9341,1.9283,1.9283,1.931,1.9294,1.9433,2.0076,2.0353,2.0796,2.2023,2.2634,2.3082,2.368,2.3965,2.4121,2.4121,2.4087,2.4066,2.4121,2.4087,2.4066,2.4121,2.4121,2.4121,2.4121,2.4121,2.4121,2.4121,2.4121,2.41,2.4066,2.4053,2.4033,2.3999,2.3999,2.3999,2.3999,2.3999,2.3999,2.3999,2.4033,2.3999,0.0,0.0,0.0,0.0,0.035,0.1119,0.2596,0.258,0.2387,0.2871,0.2657,0.2449,0.29,0.0,0.0,0.0,0.0,0.0,0.0,0.8956,0.8131,0.6868,0.8054,0.9258,1.0044,0.9825,1.0113,1.1254,1.1367,1.2327,1.4466,1.6295,1.7315,1.7486,1.7793,1.7973,1.8146,1.8272,1.8326,1.8369,1.8565,1.862,1.862,1.862,1.862,1.862,1.862,1.862,1.8636,1.875,1.8788,1.8832,1.9134,1.9087,1.9017,1.924,1.9327,1.9327,1.9327,1.9327,1.9327,1.9327,1.9256,1.9232,1.9232,1.9674,2.0009,1.92,1.9573,2.0038,1.9354,1.9232,1.9185,1.9294,1.924,1.9196,1.9299,1.9837,2.0387,2.0503,2.1811,2.2926,2.2926,2.3598,2.4121,2.4121,2.3999,2.3944,2.41,2.3999,2.3965,2.41,2.4121,2.4121,2.4121,2.4121,2.4121,2.4121,2.4121,2.4053,2.391,2.389,2.3843,2.37,2.37,2.37,2.37,2.37,2.37,2.37,2.3843,2.389,0.0,0.0,0.0,0.0,0.0372,0.0986,0.1754,0.1841,0.1784,0.1901,0.1803,0.1809,0.1962,0.0,0.0,0.0,0.0,0.0,0.0,0.7122,0.6664,0.5689,0.7077,0.8061,0.7951,0.8264,0.8491,0.8723,1.0244,1.1792,1.3277,1.551,1.6978,1.7299,1.7696,1.7918,1.7962,1.8158,1.8343,1.8326,1.8522,1.862,1.862,1.862,1.862,1.862,1.862,1.862,1.862,1.8663,1.8718,1.8805,1.8875,1.8946,1.8989,1.9158,1.9212,1.9229,1.9294,1.9327,1.9327,1.9327,1.9256,1.9232,1.9232,1.9299,1.9336,1.9047,1.92,1.9347,1.9107,1.9098,1.9216,1.9098,1.9125,1.9216,1.9098,1.9343,1.9764,2.025,2.0916,2.1655,2.2696,2.3072,2.3372,2.3904,2.3931,2.3877,2.3843,2.3788,2.3768,2.3822,2.3822,2.3877,2.3965,2.4066,2.4121,2.4121,2.4033,2.3944,2.389,2.3802,2.3734,2.368,2.368,2.368,2.368,2.368,2.368,2.368,2.3626,2.3592,0.0,0.0,0.0,0.0,0.0284,0.0611,0.0858,0.0953,0.0942,0.0919,0.0915,0.0964,0.0961,0.0,0.0,0.0,0.0,0.0,0.0,0.4925,0.4708,0.3846,0.5165,0.613,0.5994,0.6761,0.7412,0.7805,0.988,1.168,1.3058,1.5161,1.6597,1.7049,1.7609,1.7902,1.7902,1.8103,1.8212,1.8326,1.8468,1.8576,1.862,1.862,1.862,1.862,1.862,1.862,1.862,1.862,1.8663,1.8734,1.8777,1.8821,1.8875,1.9028,1.9161,1.9172,1.9169,1.9196,1.9196,1.9196,1.9125,1.9028,1.9028,1.8946,1.8848,1.8848,1.8848,1.8859,1.8902,1.8973,1.9017,1.8989,1.9,1.9017,1.8989,1.9,1.9181,1.9748,2.0113,2.0691,2.1725,2.233,2.2944,2.3742,2.3802,2.3714,2.368,2.3626,2.3626,2.368,2.368,2.3734,2.3877,2.4033,2.4121,2.4121,2.3978,2.3877,2.3822,2.368,2.3571,2.3524,2.3524,2.3524,2.3524,2.3524,2.3524,2.3524,2.3415,2.3361]},{"header":{"parameterUnit":"m.s-1","parameterCategory":1,"la1":30.6,"la2":29.2853,"lo1":-89.7004,"lo2":-87.6739,"dy":0.0162,"dx":0.0183,"nx":112,"ny":82,"refTime":"2026-04-05T12:00:00:Z","depth":0,"parameterNumber":3,"parameterNumberName":"V-component_of_WINDS"},"data":[0.0,0.0,0.0,0.0,0.0,0.0,0.0,0.0,0.0,0.0,0.0,0.0,0.0,0.0,0.0,0.0,0.0,0.0,0.0,0.0,0.0,0.0,0.0,0.0,0.0,0.0,0.0,0.0,0.0,0.0,0.0,0.0,0.0,0.0,0.0,0.0,0.0,0.0,0.0,0.0,0.0,0.0,0.0,0.0,0.0,0.0,0.0,0.0,0.0,0.0,0.0,0.0,0.0,0.0,0.0,0.0,0.0,0.0,0.0,0.0,0.0,0.0,0.0,0.0,0.0,0.0,0.0,0.0,0.0,0.0,0.0,0.0,0.0,0.0,0.0,0.0,0.0,0.0,0.0,0.0,0.0,0.0,0.0,0.0,0.0,0.0,0.0,0.0,0.0,0.0,6.7592,7.2301,7.8241,8.1543,8.0684,7.843,7.5962,7.3352,0.0,0.0,0.0,0.0,0.0,0.0,0.0,0.0,0.0,0.0,0.0,0.0,0.0,0.0,0.0,0.0,0.0,0.0,0.0,0.0,0.0,0.0,0.0,0.0,0.0,0.0,0.0,0.0,0.0,0.0,0.0,0.0,0.0,0.0,0.0,0.0,0.0,0.0,0.0,0.0,0.0,0.0,0.0,0.0,0.0,0.0,0.0,0.0,0.0,0.0,0.0,0.0,0.0,0.0,0.0,0.0,0.0,0.0,0.0,0.0,0.0,0.0,0.0,0.0,0.0,0.0,0.0,0.0,0.0,0.0,0.0,0.0,0.0,0.0,0.0,0.0,0.0,0.0,0.0,0.0,0.0,0.0,0.0,0.0,0.0,0.0,0.0,0.0,0.0,0.0,0.0,0.0,0.0,0.0,0.0,0.0,0.0,0.0,0.0,0.0,0.0,0.0,0.0,0.0,7.0972,7.7429,8.0377,8.1543,8.0684,7.9562,7.7507,7.4209,0.0,0.0,0.0,0.0,0.0,0.0,0.0,0.0,0.0,0.0,0.0,0.0,0.0,0.0,0.0,0.0,0.0,0.0,0.0,0.0,0.0,0.0,0.0,0.0,0.0,0.0,0.0,0.0,0.0,0.0,0.0,0.0,0.0,0.0,0.0,0.0,0.0,0.0,0.0,0.0,0.0,0.0,0.0,0.0,0.0,0.0,0.0,0.0,0.0,0.0,0.0,0.0,0.0,0.0,0.0,0.0,0.0,0.0,0.0,0.0,0.0,0.0,0.0,0.0,0.0,0.0,0.0,0.0,0.0,0.0,0.0,0.0,0.0,0.0,0.0,0.0,0.0,0.0,0.0,0.0,0.0,0.0,0.0,0.0,0.0,0.0,0.0,0.0,0.0,0.0,0.0,0.0,0.0,0.0,0.0,0.0,0.0,0.0,0.0,0.0,0.0,0.0,0.0,7.1442,7.6182,8.0261,8.2242,8.2747,8.1426,7.9639,7.692,7.3035,6.6899,0.0,0.0,0.0,0.0,0.0,0.0,0.0,0.0,0.0,0.0,0.0,0.0,0.0,0.0,0.0,0.0,0.0,0.0,0.0,0.0,0.0,0.0,0.0,0.0,0.0,0.0,0.0,0.0,0.0,0.0,0.0,0.0,0.0,0.0,0.0,0.0,0.0,0.0,0.0,0.0,0.0,0.0,0.0,0.0,0.0,0.0,0.0,0.0,0.0,0.0,0.0,0.0,0.0,0.0,0.0,0.0,0.0,0.0,0.0,0.0,0.0,0.0,0.0,0.0,0.0,0.0,0.0,0.0,0.0,0.0,0.0,0.0,0.0,0.0,0.0,0.0,0.0,0.0,0.0,0.0,0.0,0.0,0.0,0.0,0.0,0.0,0.0,0.0,0.0,0.0,0.0,0.0,0.0,0.0,0.0,0.0,0.0,0.0,0.0,0.0,0.0,0.0,7.6847,8.0572,8.232,8.3641,8.3641,8.1737,7.9212,7.5871,7.1559,6.6508,0.0,0.0,0.0,0.0,0.0,0.0,0.0,0.0,0.0,0.0,0.0,0.0,0.0,0.0,0.0,0.0,0.0,0.0,0.0,0.0,0.0,0.0,0.0,0.0,0.0,0.0,0.0,0.0,0.0,0.0,0.0,0.0,0.0,0.0,0.0,0.0,0.0,0.0,0.0,0.0,0.0,0.0,0.0,0.0,0.0,0.0,0.0,0.0,0.0,0.0,0.0,0.0,0.0,0.0,0.0,0.0,0.0,0.0,0.0,0.0,0.0,0.0,0.0,0.0,0.0,0.0,0.0,0.0,0.0,0.0,0.0,0.0,0.0,0.0,0.0,0.0,0.0,0.0,0.0,0.0,0.0,0.0,0.0,0.0,0.0,0.0,0.0,0.0,0.0,0.0,0.0,0.0,0.0,0.0,0.0,0.0,0.0,0.0,0.0,0.0,0.0,0.0,7.9018,8.2359,8.4024,8.4335,8.3403,8.0917,7.8275,7.4973,7.0665,6.5615,0.0,0.0,0.0,0.0,0.0,0.0,0.0,0.0,0.0,0.0,0.0,0.0,0.0,0.0,0.0,0.0,0.0,0.0,0.0,0.0,0.0,0.0,0.0,0.0,0.0,0.0,0.0,0.0,0.0,0.0,0.0,0.0,0.0,0.0,0.0,0.0,0.0,0.0,0.0,0.0,0.0,0.0,0.0,0.0,0.0,0.0,0.0,0.0,0.0,0.0,0.0,0.0,0.0,0.0,0.0,0.0,0.0,0.0,0.0,0.0,0.0,0.0,0.0,0.0,0.0,0.0,0.0,0.0,0.0,0.0,0.0,0.0,0.0,0.0,0.0,0.0,0.0,0.0,0.0,0.0,0.0,0.0,0.0,0.0,0.0,0.0,0.0,0.0,0.0,0.0,0.0,0.0,0.0,0.0,0.0,0.0,0.0,0.0,0.0,0.0,0.0,0.0,8.1426,8.5117,8.5195,8.6166,8.535,8.1737,7.8508,7.4662,6.9845,0.0,0.0,0.0,0.0,0.0,0.0,0.0,0.0,0.0,0.0,0.0,0.0,0.0,0.0,0.0,0.0,0.0,0.0,0.0,0.0,0.0,0.0,0.0,0.0,0.0,0.0,0.0,0.0,0.0,0.0,0.0,0.0,0.0,0.0,0.0,0.0,0.0,0.0,0.0,0.0,0.0,0.0,0.0,0.0,0.0,0.0,0.0,0.0,0.0,0.0,0.0,0.0,0.0,0.0,0.0,0.0,0.0,0.0,0.0,0.0,0.0,0.0,0.0,0.0,0.0,0.0,0.0,0.0,0.0,0.0,0.0,0.0,0.0,0.0,0.0,0.0,0.0,0.0,0.0,0.0,0.0,0.0,0.0,0.0,0.0,0.0,0.0,0.0,0.0,0.0,0.0,0.0,0.0,0.0,0.0,0.0,0.0,0.0,0.0,0.0,0.0,0.0,7.692,8.3058,8.6987,8.6904,8.7759,8.6787,8.3019,7.9251,7.4934,6.9807,0.0,0.0,0.0,0.0,0.0,0.0,0.0,0.0,0.0,0.0,0.0,0.0,0.0,0.0,0.0,0.0,0.0,0.0,0.0,0.0,0.0,0.0,0.0,0.0,0.0,0.0,0.0,0.0,0.0,0.0,0.0,0.0,0.0,0.0,0.0,0.0,0.0,0.0,0.0,0.0,0.0,0.0,0.0,0.0,0.0,0.0,0.0,0.0,0.0,0.0,0.0,0.0,0.0,0.0,0.0,0.0,0.0,0.0,0.0,0.0,0.0,0.0,0.0,0.0,0.0,0.0,0.0,0.0,0.0,0.0,0.0,0.0,0.0,0.0,0.0,0.0,0.0,0.0,0.0,0.0,0.0,0.0,0.0,0.0,0.0,0.0,0.0,0.0,0.0,0.0,0.0,0.0,0.0,0.0,0.0,0.0,0.0,0.0,0.0,0.0,0.0,0.0,7.8556,8.3844,8.7686,8.9318,8.8813,8.7254,8.4651,8.0499,7.5836,0.0,0.0,0.0,0.0,0.0,0.0,0.0,0.0,0.0,0.0,0.0,0.0,0.0,0.0,0.0,0.0,0.0,0.0,0.0,0.0,0.0,0.0,0.0,0.0,0.0,0.0,0.0,0.0,0.0,0.0,0.0,0.0,0.0,0.0,0.0,0.0,0.0,0.0,0.0,0.0,0.0,0.0,0.0,0.0,0.0,0.0,0.0,0.0,0.0,0.0,0.0,0.0,0.0,0.0,0.0,0.0,0.0,0.0,0.0,0.0,0.0,0.0,0.0,0.0,0.0,0.0,0.0,0.0,0.0,0.0,0.0,0.0,0.0,0.0,0.0,0.0,0.0,0.0,0.0,0.0,0.0,0.0,0.0,0.0,0.0,0.0,0.0,0.0,0.0,0.0,0.0,0.0,0.0,0.0,0.0,0.0,0.0,0.0,0.0,0.0,0.0,0.0,0.0,7.9516,8.5377,8.9169,8.9676,9.0026,8.8936,8.5747,8.3219,7.9321,7.3493,0.0,0.0,0.0,0.0,0.0,0.0,0.0,0.0,0.0,0.0,0.0,0.0,0.0,0.0,0.0,0.0,0.0,0.0,0.0,0.0,0.0,0.0,0.0,0.0,0.0,0.0,0.0,0.0,0.0,0.0,0.0,0.0,0.0,0.0,0.0,0.0,0.0,0.0,0.0,0.0,0.0,0.0,0.0,0.0,0.0,0.0,0.0,0.0,0.0,0.0,0.0,0.0,0.0,0.0,0.0,0.0,0.0,0.0,0.0,0.0,0.0,0.0,0.0,0.0,0.0,0.0,0.0,0.0,0.0,0.0,0.0,0.0,0.0,0.0,0.0,0.0,0.0,0.0,0.0,0.0,0.0,0.0,0.0,0.0,0.0,0.0,0.0,0.0,0.0,0.0,0.0,0.0,0.0,0.0,0.0,0.0,0.0,0.0,0.0,0.0,0.0,0.0,8.0446,8.6526,9.0563,9.1231,9.1426,9.0688,8.8623,8.6283,8.2453,7.6734,0.0,0.0,0.0,0.0,0.0,0.0,0.0,0.0,0.0,0.0,0.0,0.0,0.0,0.0,0.0,0.0,0.0,0.0,0.0,0.0,0.0,0.0,0.0,0.0,0.0,0.0,0.0,0.0,0.0,0.0,0.0,0.0,0.0,0.0,0.0,0.0,0.0,0.0,0.0,0.0,0.0,0.0,0.0,0.0,0.0,0.0,0.0,0.0,0.0,0.0,0.0,0.0,0.0,0.0,0.0,0.0,0.0,0.0,0.0,0.0,0.0,0.0,0.0,0.0,0.0,0.0,0.0,0.0,0.0,0.0,0.0,0.0,0.0,0.0,0.0,0.0,0.0,0.0,0.0,0.0,0.0,0.0,0.0,0.0,0.0,0.0,0.0,0.0,0.0,0.0,0.0,0.0,0.0,0.0,0.0,0.0,0.0,0.0,0.0,0.0,0.0,0.0,8.1314,8.7362,9.1674,9.3431,9.2966,9.2499,9.2343,8.9492,8.5463,8.0216,0.0,0.0,0.0,0.0,0.0,0.0,0.0,0.0,0.0,0.0,0.0,0.0,0.0,0.0,0.0,0.0,0.0,0.0,0.0,0.0,0.0,0.0,0.0,0.0,0.0,0.0,0.0,0.0,0.0,0.0,0.0,0.0,0.0,0.0,0.0,0.0,0.0,0.0,0.0,0.0,0.0,0.0,0.0,0.0,0.0,0.0,0.0,0.0,0.0,0.0,0.0,0.0,0.0,0.0,0.0,0.0,0.0,0.0,0.0,0.0,6.9426,6.6413,0.0,0.0,0.0,0.0,0.0,0.0,0.0,0.0,0.0,0.0,0.0,0.0,0.0,0.0,0.0,0.0,0.0,0.0,0.0,0.0,0.0,0.0,0.0,0.0,0.0,0.0,0.0,0.0,0.0,0.0,0.0,0.0,0.0,0.0,0.0,0.0,0.0,0.0,0.0,0.0,8.2203,8.7883,9.1872,9.3591,9.4217,9.3943,9.2576,9.1795,8.8863,8.3032,7.8366,0.0,0.0,0.0,0.0,0.0,0.0,0.0,0.0,0.0,0.0,0.0,0.0,0.0,0.0,0.0,0.0,0.0,0.0,0.0,0.0,0.0,0.0,0.0,0.0,0.0,0.0,0.0,0.0,0.0,0.0,0.0,0.0,0.0,0.0,0.0,0.0,0.0,0.0,0.0,0.0,0.0,0.0,0.0,0.0,0.0,0.0,0.0,0.0,0.0,0.0,0.0,0.0,0.0,0.0,0.0,0.0,0.0,0.0,0.0,7.7481,7.3678,0.0,0.0,0.0,0.0,0.0,0.0,0.0,0.0,0.0,0.0,0.0,0.0,0.0,0.0,0.0,0.0,0.0,0.0,0.0,0.0,0.0,0.0,0.0,0.0,0.0,0.0,0.0,0.0,0.0,0.0,0.0,0.0,0.0,0.0,0.0,0.0,0.0,0.0,0.0,0.0,8.2656,8.8784,9.2994,9.4283,9.5181,9.5376,9.4438,9.3618,9.1084,8.6287,8.1914,0.0,0.0,0.0,0.0,0.0,0.0,0.0,0.0,0.0,0.0,0.0,0.0,0.0,0.0,0.0,0.0,0.0,0.0,0.0,0.0,0.0,0.0,0.0,0.0,0.0,0.0,0.0,0.0,0.0,0.0,0.0,0.0,0.0,0.0,0.0,0.0,0.0,0.0,0.0,0.0,0.0,0.0,0.0,0.0,0.0,0.0,0.0,0.0,0.0,0.0,0.0,0.0,0.0,9.0653,9.1904,9.3153,9.3466,9.4019,9.4453,8.8898,8.4673,8.174,8.1818,0.0,0.0,0.0,0.0,0.0,0.0,0.0,0.0,0.0,0.0,0.0,0.0,0.0,0.0,0.0,0.0,0.0,0.0,0.0,0.0,0.0,0.0,8.9604,9.1206,9.1909,9.0154,8.2499,0.0,0.0,0.0,0.0,0.0,0.0,0.0,0.0,0.0,0.0,0.0,8.3497,8.992,9.4434,9.5449,9.6347,9.6853,9.6853,9.5526,9.3229,8.9807,8.5805,8.1321,0.0,0.0,0.0,0.0,0.0,0.0,0.0,0.0,0.0,0.0,0.0,0.0,0.0,0.0,0.0,0.0,0.0,0.0,0.0,0.0,0.0,0.0,0.0,0.0,0.0,0.0,0.0,0.0,0.0,0.0,0.0,0.0,8.1073,8.1842,0.0,0.0,0.0,0.0,0.0,0.0,0.0,0.0,0.0,0.0,0.0,0.0,0.0,8.9227,9.3348,9.5858,9.7617,9.8593,10.0898,10.1797,10.1289,10.2812,10.3593,10.3705,10.3506,0.0,8.9801,9.0507,0.0,0.0,0.0,0.0,0.0,0.0,0.0,0.0,0.0,0.0,0.0,0.0,0.0,0.0,0.0,0.0,0.0,0.0,0.0,0.0,0.0,0.0,9.6594,9.7568,9.9481,10.0186,9.6833,9.1474,8.6523,8.3789,8.0664,7.7109,0.0,0.0,0.0,0.0,0.0,0.0,8.6103,9.1595,9.5567,9.7167,9.8143,9.8649,9.8649,9.8453,9.6821,9.3361,9.0523,8.7014,8.2603,7.8113,0.0,0.0,0.0,0.0,0.0,0.0,0.0,0.0,0.0,0.0,0.0,0.0,0.0,0.0,0.0,0.0,0.0,0.0,0.0,0.0,0.0,0.0,0.0,0.0,0.0,0.0,0.0,0.0,0.0,8.3608,8.6293,8.6217,8.669,8.6283,0.0,0.0,0.0,0.0,0.0,0.0,0.0,0.0,0.0,9.0989,9.4134,9.7422,10.0895,10.4398,10.6614,10.7513,10.9583,11.0716,11.0792,11.2081,11.2586,11.2697,11.351,11.0504,10.4612,9.9631,9.5384,9.1795,0.0,0.0,0.0,0.0,8.957,9.1014,9.2883,9.2952,9.1999,9.0654,0.0,0.0,0.0,0.0,0.0,0.0,0.0,8.8071,9.3615,9.8143,10.1618,10.2984,10.4194,10.4584,10.2906,9.9842,9.5874,9.0836,8.7906,8.4548,7.9276,7.5135,0.0,0.0,0.0,8.3672,8.8277,9.3813,9.7597,9.8338,9.9197,9.9744,9.9744,9.9744,9.8887,9.6864,9.523,9.2813,8.9456,8.5161,8.1293,0.0,0.0,0.0,0.0,0.0,0.0,0.0,0.0,0.0,0.0,0.0,0.0,0.0,0.0,0.0,0.0,0.0,0.0,0.0,0.0,0.0,0.0,0.0,0.0,0.0,0.0,0.0,0.0,8.8824,9.1423,9.1499,9.208,9.1547,0.0,0.0,0.0,0.0,0.0,0.0,9.2449,9.3701,9.5503,9.7929,10.1481,10.4791,10.7707,11.1118,11.329,11.4385,11.5986,11.6999,11.7701,11.8482,11.8912,11.899,11.9614,11.8599,11.6103,10.8317,10.3216,9.9984,9.6981,9.5656,9.5578,9.6438,9.788,9.9708,10.2082,10.2387,10.1399,9.9865,9.7011,9.3341,8.9084,0.0,0.0,0.0,0.0,9.4708,9.939,10.3218,10.6107,10.759,10.8293,10.8293,10.7005,10.6185,10.3687,9.6816,9.4083,9.1233,8.5846,8.202,0.0,8.089,8.4128,8.7642,9.0884,9.5996,9.939,9.9627,10.0212,10.0681,10.0915,10.0915,10.0603,9.9705,9.8846,9.7284,9.4903,9.1311,8.7759,8.4323,0.0,0.0,0.0,0.0,0.0,0.0,0.0,0.0,0.0,0.0,0.0,0.0,0.0,0.0,0.0,0.0,0.0,0.0,0.0,0.0,0.0,0.0,0.0,0.0,0.0,0.0,0.0,0.0,0.0,9.9322,9.9725,0.0,0.0,0.0,0.0,9.5781,9.8242,9.9726,9.9765,10.2109,10.4295,10.6088,10.7915,11.0481,11.3904,11.5018,11.6415,11.8014,11.8912,11.9302,11.9419,12.0317,12.0707,12.0707,12.0707,12.02,11.9107,11.6181,11.2006,10.728,10.5486,10.42,10.3614,10.451,10.5916,10.771,10.9388,10.9505,10.8607,10.7708,10.3489,9.8336,9.6384,9.455,0.0,0.0,9.8455,10.0681,10.4194,10.7588,11.0399,11.1299,11.2783,11.329,11.0789,11.0204,10.8215,10.1305,9.8572,9.623,9.26,0.0,8.7172,8.8032,8.9789,9.1897,9.4512,9.7987,10.0485,10.1307,10.1385,10.1815,10.2593,10.2711,10.2281,10.1385,10.0603,9.9353,9.7597,9.5723,9.3107,8.9673,8.6119,0.0,0.0,0.0,0.0,0.0,0.0,0.0,0.0,0.0,0.0,0.0,0.0,0.0,0.0,0.0,0.0,0.0,0.0,0.0,0.0,0.0,0.0,0.0,0.0,0.0,0.0,0.0,0.0,10.6481,10.7287,0.0,10.45,10.2781,10.2117,10.3017,10.5905,10.7897,10.8483,11.0982,11.2697,11.3317,11.4991,11.6389,11.7712,11.9697,12.0981,12.1605,12.3011,12.3713,12.3713,12.3987,12.4104,12.4104,12.4104,12.3284,12.1918,12.0981,11.7311,11.1885,11.0206,10.8996,10.8293,10.9191,11.0284,11.1416,11.2587,11.2783,11.2314,11.0284,10.7005,10.3687,10.2593,10.0993,10.0017,10.2086,10.3882,10.5912,10.8801,11.1299,11.3212,11.411,11.4813,11.4695,11.2587,11.1299,10.9501,10.5912,10.3804,10.1618,9.8104,9.5567,9.4122,9.4434,9.5488,9.6972,9.8965,10.1813,10.3687,10.3999,10.3999,10.4116,10.4389,10.4506,10.4311,10.3999,10.3687,10.3296,10.2711,10.15,9.9275,9.5879,9.1819,8.6939,0.0,0.0,0.0,0.0,0.0,0.0,0.0,0.0,0.0,0.0,0.0,0.0,0.0,0.0,0.0,0.0,0.0,0.0,0.0,0.0,0.0,0.0,0.0,0.0,0.0,10.4412,10.9401,11.2319,11.37,11.3485,11.1299,10.9699,10.8996,10.9308,11.1885,11.368,11.3995,11.5906,11.6999,11.6999,11.8287,11.9302,11.9888,12.2191,12.3518,12.3909,12.5314,12.6017,12.6017,12.6017,12.6017,12.6017,12.6017,12.5197,12.3791,12.3518,12.0903,11.6882,11.571,11.4695,11.411,11.5008,11.5515,11.5791,11.6413,11.6608,11.6218,11.3915,11.2002,11.0401,10.9191,10.8098,10.7395,10.8605,10.9894,11.1416,11.2783,11.4383,11.5789,11.6101,11.6413,11.5986,11.3995,11.2197,11.0401,10.841,10.6614,10.4584,10.2008,10.0407,9.9431,9.9431,9.99,10.0798,10.2205,10.4116,10.5404,10.5404,10.5404,10.5404,10.5404,10.5404,10.5287,10.5014,10.5014,10.4819,10.4506,10.3999,10.2203,9.9078,9.3576,8.7954,8.2215,0.0,0.0,0.0,0.0,0.0,0.0,0.0,0.0,0.0,0.0,0.0,0.0,0.0,0.0,0.0,0.0,0.0,0.0,0.0,0.0,0.0,0.0,0.0,10.1514,10.7795,11.3407,11.6796,11.869,11.9107,11.7389,11.6491,11.5593,11.4695,11.6296,11.6804,11.5908,11.6608,11.7116,11.7116,11.7819,11.899,12.0785,12.2581,12.3909,12.4804,12.5587,12.6095,12.6095,12.6095,12.6095,12.6095,12.6095,12.5587,12.4687,12.3909,12.3011,12.2189,12.211,12.1605,12.0903,12.18,12.1488,12.0785,12.0785,12.0785,12.0512,11.8795,11.8287,11.8016,11.6181,11.5713,11.5596,11.5596,11.6218,11.6686,11.5789,11.6884,11.8014,11.7194,11.7701,11.7584,11.5008,11.3017,11.1104,10.8605,10.6693,10.5209,10.4391,10.3608,10.2984,10.2984,10.2984,0.0,10.4196,10.5014,10.5599,10.5599,10.5599,10.5482,10.5482,10.5482,10.5092,10.4196,10.4196,10.3804,10.2906,10.2906,10.1618,9.9039,9.1505,8.5103,7.999,0.0,0.0,0.0,0.0,0.0,0.0,0.0,0.0,0.0,0.0,0.0,0.0,0.0,0.0,0.0,0.0,0.0,0.0,0.0,0.0,0.0,9.9509,10.42,10.6791,11.3581,11.9393,12.22,12.4614,12.5392,12.3713,12.3284,12.2503,12.0981,12.1996,12.1918,12.0395,11.9419,11.8795,11.8795,11.8482,11.9107,12.0785,12.3791,12.5392,12.5704,12.711,12.7812,12.7812,12.7812,12.7812,12.7812,12.7812,12.7305,12.6485,12.629,12.5704,12.4689,12.2815,12.1605,12.0903,12.18,12.1488,12.0785,12.0785,12.0785,12.059,11.9497,11.8716,11.7897,11.6181,11.4815,11.3683,11.3095,11.3485,11.4112,11.3917,11.5593,11.7311,11.7116,11.7701,11.778,11.5789,11.3485,11.1611,11.0909,10.8918,10.72,10.7005,10.7708,10.8408,10.8408,10.8408,10.8488,10.8684,10.8916,10.9111,10.9111,10.9111,10.8918,10.8293,10.8215,10.759,10.6107,10.5404,10.4897,10.4702,10.4116,10.2203,9.9078,9.5059,9.0765,0.0,0.0,0.0,0.0,0.0,0.0,0.0,0.0,0.0,0.0,0.0,0.0,0.0,0.0,0.0,0.0,0.0,0.0,0.0,0.0,0.0,0.0,10.5215,11.0518,11.411,11.9107,12.3284,12.5509,12.8008,12.8905,12.7188,12.6993,12.629,12.4611,12.5002,12.4494,12.2698,12.0981,12.0005,12.0005,11.9614,12.02,12.1918,12.5002,12.6485,12.6485,12.7891,12.8515,12.8515,12.8515,12.8515,12.8515,12.8515,12.8008,12.719,12.719,12.668,12.59,0.0,0.0,0.0,0.0,12.2308,12.1918,12.1918,12.1918,12.1683,12.0903,12.02,11.9419,11.7389,11.5517,11.3917,11.2704,11.2392,11.2589,11.3019,11.5008,11.7116,11.7506,11.8482,11.8912,11.7118,11.5008,11.3212,11.2509,11.1104,0.0,11.0089,11.0284,11.0516,11.0516,11.0516,11.0516,11.0516,11.0516,11.0516,11.0516,11.0516,11.0282,10.9816,10.9816,0.0,0.0,0.0,10.6185,10.5404,10.4584,0.0,0.0,0.0,0.0,0.0,9.1925,0.0,0.0,8.572,8.7368,0.0,0.0,0.0,0.0,0.0,0.0,0.0,0.0,0.0,0.0,0.0,0.0,0.0,0.0,0.0,0.0,11.0999,11.6608,12.1488,12.3987,12.59,12.7617,12.9881,13.0701,12.8984,12.8788,12.8086,12.6407,12.629,12.5509,12.3791,12.1918,0.0,0.0,0.0,12.1605,12.3401,12.59,12.719,12.719,12.8086,12.8515,12.8515,12.8515,12.8515,12.8515,12.8515,12.8086,12.7305,12.7305,12.6915,12.629,12.6915,12.6095,12.4609,12.3791,12.3518,12.3401,12.3401,0.0,0.0,12.2386,12.211,12.1605,11.899,11.7001,11.5283,11.3605,11.2509,11.2002,11.2902,11.5008,11.7194,11.8092,11.9614,12.0317,11.8716,11.7116,11.5517,11.3917,11.3487,11.3409,11.3409,11.2119,11.1102,11.1102,11.1102,11.1102,11.1102,11.1102,11.1102,11.1102,11.1102,0.0,11.0907,11.0907,11.0204,10.8408,10.8098,10.7317,10.5599,10.4897,10.4116,10.3296,10.1891,10.0407,9.8729,9.8738,9.9174,9.9803,9.397,9.3055,0.0,0.0,0.0,0.0,0.0,0.0,0.0,0.0,0.0,0.0,0.0,0.0,0.0,0.0,0.0,10.9709,11.4505,11.8912,12.2581,12.6407,12.9491,13.1209,13.2497,13.2497,13.0818,13.0584,12.9881,12.8086,12.8008,12.7305,12.5587,12.3206,12.18,12.18,12.1215,12.1605,12.3401,12.59,12.719,12.719,12.8086,0.0,12.8515,12.8515,12.8515,12.8515,12.8515,12.8398,12.8203,12.8203,12.8203,12.7891,12.668,12.5587,12.4687,12.4492,12.3987,12.3401,12.3401,12.3401,12.3284,12.2386,12.211,12.1605,11.9107,11.7118,0.0,11.3605,11.2509,11.2002,11.2902,11.5008,11.7194,11.8092,11.9614,12.0512,11.9497,11.8404,11.7389,11.6413,11.571,11.5205,11.5205,11.4893,11.4695,11.4695,11.4695,11.4695,11.4695,11.4695,11.4695,11.4695,11.4695,11.4383,11.3719,11.3602,11.2587,11.0204,10.8681,10.7512,10.6497,10.7005,10.681,10.599,10.6302,10.599,10.5014,10.5514,10.6193,10.6708,10.1603,10.0593,0.0,0.0,0.0,0.0,0.0,0.0,0.0,0.0,0.0,0.0,0.0,10.0716,10.4184,0.0,11.0701,11.4987,11.8606,12.2191,12.6095,12.9608,13.1599,13.1209,13.1911,13.1911,13.0584,13.0818,13.0584,12.9218,12.9608,12.9218,12.8008,12.6212,12.5314,12.5314,12.4885,12.5314,12.6602,12.8281,12.9218,12.9218,12.9608,12.9803,12.9803,12.9803,12.9803,12.9803,12.9803,12.9803,12.9803,12.9296,12.8905,12.8398,12.7617,12.6719,12.5782,12.4999,12.4414,12.3987,12.3596,12.3401,12.3284,12.2894,12.2815,12.2386,12.02,11.8404,11.6611,11.4893,11.3487,11.2785,11.4112,11.5984,11.7897,11.9185,12.1215,12.2503,12.1605,12.1488,12.1098,11.981,11.9185,11.8795,11.8287,11.8287,11.7704,11.5986,11.5713,11.5713,11.5713,11.5713,11.5713,11.5713,11.5713,11.5517,11.5086,11.4695,11.3798,11.2509,11.1299,11.0401,10.9896,11.031,11.0298,10.9892,11.0188,11.0017,10.9105,10.9803,11.0293,11.0616,10.8394,10.7383,0.0,0.0,0.0,0.0,0.0,0.0,0.0,9.7144,9.7835,10.0491,10.3489,10.6604,10.9686,11.2809,11.5894,11.9092,12.2085,12.5314,12.8788,13.1794,13.2809,13.0311,13.1287,13.1716,13.0701,13.1209,13.1209,13.0116,13.0706,13.0787,13.0086,12.9386,12.8998,12.8998,12.888,12.9195,13.0015,13.0598,13.0911,13.1106,13.0911,13.0911,13.1106,13.0911,13.0989,13.1106,13.1106,13.0989,13.0794,13.0093,12.9312,12.849,12.849,12.81,12.728,12.5785,12.5119,12.4885,12.4104,12.3909,12.3909,12.3909,12.3909,12.3596,12.1996,12.0512,11.899,11.7389,11.5791,11.501,11.6491,11.7897,11.938,12.0903,12.3011,12.4492,12.3596,12.4104,12.4179,12.2384,12.211,12.18,12.0981,12.0785,11.9888,11.7118,11.6689,11.6689,11.6689,11.6689,11.6689,11.6689,11.6689,11.6689,11.6689,11.5906,11.5398,11.5398,11.4617,11.4112,11.4112,11.4118,11.3886,11.3687,11.36,11.3113,11.208,11.2706,11.2893,11.2786,11.3406,11.26,8.3499,8.7414,9.3746,9.7378,10.0819,10.3515,0.0,10.4292,10.4983,10.76,10.958,11.1517,11.3492,11.5417,11.7296,11.9192,12.3599,12.6917,12.7385,13.1092,13.3005,13.1209,13.3707,13.4996,13.3395,13.3395,13.2692,13.1092,13.0995,13.1086,13.1008,13.0906,13.0798,13.0798,13.0093,13.0093,13.0915,13.0288,13.0406,13.1109,13.0406,13.0406,13.1109,13.0406,13.0406,13.1109,13.1109,13.0718,13.0015,12.9898,12.939,12.8609,12.8609,12.8492,12.8294,12.7284,12.6485,12.5782,12.5704,12.5704,12.5704,12.5704,12.5704,12.5509,12.4611,12.3596,12.2581,12.1683,12.0707,12.02,12.1098,12.1488,12.1918,12.2894,12.3909,12.4492,12.3596,12.4104,12.4179,12.2384,12.211,12.18,12.0981,12.0785,12.0707,12.0317,12.02,12.02,12.02,12.02,12.02,12.02,12.02,12.02,12.02,11.9419,11.8912,11.8912,11.8092,11.7584,11.7584,11.7611,11.7112,11.6097,11.5998,11.5496,11.4402,11.4493,11.4406,11.4195,11.42,11.4103,8.8138,9.1743,9.7178,10.1591,10.6515,11.0384,11.1203,11.1784,11.2717,11.4903,11.6307,11.7512,11.8717,11.9112,12.0207,12.2816,12.551,12.801,12.9882,13.3085,13.4606,13.2809,13.3005,13.2995,13.2304,13.2185,13.2307,13.2596,13.3583,13.3905,13.3409,13.3414,13.3106,13.2598,13.2285,13.2285,13.2598,13.2285,13.2285,13.2598,13.1817,13.1817,13.2598,13.2285,13.2793,13.4082,13.3613,13.291,13.209,13.1582,13.0801,13.0098,13.0098,13.0098,12.9785,12.7897,12.6986,12.6703,12.6193,12.5989,12.6017,12.6017,12.6017,12.59,12.5587,12.5197,12.4806,12.4494,12.4104,12.3909,12.4299,12.4416,12.4494,12.4806,12.5509,12.59,12.5119,12.5587,12.5782,12.4611,12.4416,12.4299,12.3909,12.3791,12.3791,12.3791,12.2113,12.0785,12.0785,12.0785,12.0813,12.0699,12.072,12.0697,12.0598,12.0282,12.0087,12.0087,11.9697,11.9502,11.9502,11.9418,11.9118,11.8613,11.8515,11.7894,11.6909,11.7287,11.7201,11.6586,11.6987,11.7195,9.2316,9.584,10.0414,10.549,11.1193,11.5801,11.6898,11.7795,11.8811,12.0298,12.0805,12.1115,12.2015,12.1584,12.2209,12.5216,12.7208,12.92,13.17,13.4315,13.5213,13.3181,13.1189,13.0087,13.01,13.0681,13.1783,13.3594,13.5319,13.5991,13.5415,13.5105,13.4716,13.4091,13.3583,13.3505,13.37,13.3505,13.3505,13.37,13.2606,13.2802,13.4091,13.4286,13.5106,13.6318,13.5614,13.4716,13.37,13.2997,13.2099,13.1084,13.1084,13.1084,13.0889,12.9091,12.8416,12.8315,12.7612,12.7403,12.7383,12.7383,12.7188,12.711,12.7305,12.7188,12.711,12.7305,12.7188,12.6993,12.6993,12.668,12.629,12.629,12.6797,12.6995,12.6212,12.6602,12.6995,12.6212,12.6017,12.6014,12.6007,12.5999,12.5913,12.5904,12.3788,12.2194,12.2189,12.2218,12.2104,12.1991,12.1895,12.191,12.1683,12.1711,12.1711,12.1711,12.1711,12.1711,12.1711,12.1402,12.0995,12.0603,12.028,11.9594,11.8604,11.9085,11.9003,11.8418,11.891,11.9102,9.4906,9.9439,10.4007,10.9202,11.4317,11.8616,12.0383,12.1395,12.221,12.3118,12.1981,12.1114,12.2012,12.209,12.2715,12.4396,12.83,13.0995,13.1114,13.3417,13.4081,13.1503,12.9003,12.7402,12.74,12.9587,13.1813,13.3612,13.5302,13.6283,13.6283,13.5507,13.5,13.5,13.3398,13.289,13.3789,13.3007,13.3007,13.3789,13.2109,13.25,13.5,13.5781,13.6211,13.6289,13.6289,13.5312,13.3789,13.3789,13.2695,13.1211,13.1211,13.1211,13.1211,13.1093,13.1007,13.1009,13.1009,13.0917,13.0896,13.0896,13.0389,12.9803,13.0701,13.0389,12.9881,13.0701,13.0311,12.9686,12.9686,12.8398,12.719,12.719,12.719,12.6995,12.6212,12.6602,12.6995,12.6212,12.6017,12.6009,12.5901,12.5792,12.5793,12.5711,12.5585,12.5507,12.5809,12.5694,12.5618,12.5406,12.5216,12.5091,12.4905,12.4898,12.4898,12.4898,12.4898,12.4898,12.4898,12.401,12.2984,12.2022,12.0999,12.0086,11.9084,11.9123,11.9111,11.9111,11.9111,11.91,9.7572,10.261,10.7492,11.2688,11.7409,12.1389,12.3813,12.4911,12.55,12.519,12.2887,12.1287,12.281,12.2107,12.2615,12.6599,12.9998,13.2185,13.281,13.4099,13.3786,13.07,12.8513,12.6911,12.5701,12.741,12.9514,13.1904,13.4681,13.6285,13.6288,13.6601,13.6484,13.5898,13.5312,13.5195,13.5508,13.5195,13.5195,13.5508,13.4883,13.5,13.5898,13.6797,13.75,13.8007,13.7381,13.6794,13.6286,13.5696,13.4795,13.3818,13.4404,13.4209,13.3701,13.3701,13.3689,13.3395,13.1817,13.1104,13.1117,13.1117,13.0481,12.9999,13.0818,13.0506,12.9999,13.0896,13.0506,12.9803,12.9803,12.8905,12.8086,12.8086,12.8086,12.8008,12.7695,12.7891,12.8008,12.7695,12.7695,12.7602,12.759,12.7408,12.7189,12.7008,12.6206,12.561,12.5715,12.5718,12.5488,12.5286,12.5216,12.5019,12.4797,12.4818,12.4818,12.4818,12.4818,12.4818,12.4818,12.4507,12.4093,12.3604,12.3186,12.2608,12.16,12.16,12.1293,12.0793,12.0793,12.0793,10.16,10.6794,11.1792,11.6402,12.0497,12.4005,12.6002,12.6905,12.691,12.5388,12.1913,11.9609,12.1289,12.0195,12.0898,12.6406,12.9687,13.1992,13.3203,13.3984,13.3515,13.0703,12.8789,12.6992,12.5,12.5504,12.7103,13.0115,13.2888,13.4882,13.5781,13.6718,13.6718,13.5898,13.5781,13.5781,13.5781,13.6093,13.6093,13.5781,13.6484,13.6601,13.6289,13.75,13.8398,13.8906,13.8317,13.7802,13.7398,13.6912,13.5913,13.491,13.569,13.5612,13.4792,13.5102,13.5091,13.4502,13.2698,13.1988,13.1984,13.2013,13.1404,13.079,13.1609,13.1297,13.079,13.1609,13.1297,13.0595,13.0595,13.0009,12.9304,12.9304,12.9304,12.9304,12.9304,12.9304,12.9304,12.9304,12.9304,12.9283,12.9194,12.9015,12.8708,12.8411,12.7416,12.6602,12.6311,12.6207,12.6102,12.5903,12.5795,12.5601,12.538,12.5398,12.5514,12.5784,12.5823,12.5823,12.5823,12.5489,12.522,12.4795,12.4407,12.3799,12.2908,12.2908,12.2485,12.1612,12.1612,12.1612,10.6914,11.2108,11.6793,12.0308,12.3584,12.6196,12.7104,12.7183,12.6403,12.3789,11.9101,11.6015,11.7695,11.6718,11.7617,12.3711,12.7617,13.0508,13.2187,13.3281,13.3203,13.1484,12.9804,12.7812,12.5195,12.4218,12.5,12.8281,13.0195,13.2304,13.4883,13.5781,13.5898,13.5117,13.5117,13.5117,13.5117,13.6015,13.6015,13.5195,13.6914,13.7187,13.6484,13.8086,13.8906,13.8906,13.8902,13.8292,13.7408,13.7414,13.6195,13.4616,13.5507,13.5312,13.4616,13.5507,13.5195,13.4413,13.3879,13.3613,13.3508,13.3505,13.2786,13.2195,13.3019,13.2702,13.2195,13.3019,13.2702,13.2117,13.2117,13.1416,13.0793,13.0793,13.0793,13.0793,13.0793,13.0793,13.0793,13.0793,13.0788,13.0706,13.0582,13.0306,13.0009,12.9808,12.9081,12.8308,12.7705,12.7494,12.7315,12.711,12.7013,12.691,12.6703,12.669,12.6986,12.7782,12.7897,12.7897,12.7897,12.7101,12.6294,12.5486,12.4716,12.3793,12.3024,12.3024,12.2601,12.1677,12.1677,12.1677,11.1601,11.6601,12.1093,12.3281,12.4882,12.621,12.7109,12.6288,12.4492,12.1289,11.6484,11.3203,11.4297,11.3593,11.5117,12.1797,12.6289,12.9804,13.2187,13.3281,13.3398,13.2304,13.2304,13.1211,12.789,12.6289,12.6289,12.8398,12.9609,13.1601,13.4804,13.5781,13.6211,13.6015,13.6601,13.6914,13.6914,13.7811,13.8083,13.7887,13.839,13.8503,13.8308,13.8699,13.8894,13.8893,13.8811,13.8484,13.8192,13.8116,13.7305,13.6282,13.7216,13.6982,13.6282,13.6515,13.6515,13.621,13.5405,13.4216,13.3104,13.3086,13.2417,13.1688,13.2597,13.2317,13.1805,13.2597,13.2201,13.1611,13.1611,13.0911,13.0282,13.0282,13.0282,13.0282,13.0282,13.0282,13.0282,13.0282,13.0188,13.0096,12.9995,12.9789,12.9606,12.9408,12.9219,12.8812,12.8289,12.7613,12.7098,12.7002,12.6889,12.6818,12.6703,12.669,12.6986,12.7782,12.7294,12.7294,12.7897,12.7101,12.6614,12.6421,12.6178,12.5601,12.4793,12.4793,12.4293,12.3485,12.3485,12.3485,11.6211,12.0508,12.4101,12.5117,12.6015,12.6406,12.5781,12.4297,12.1992,11.8203,11.3203,11.0,11.1289,11.1093,11.3008,11.9883,12.5,12.8789,13.1015,13.2109,13.25,13.1992,13.1992,13.1289,12.9414,12.789,12.789,12.9609,12.9101,13.0312,13.3711,13.5117,13.5703,13.5703,13.6914,13.8007,13.8711,13.8786,13.8895,13.88,13.8702,13.8714,13.8598,13.8598,13.8598,13.8595,13.8508,13.8414,13.819,13.8202,13.7507,13.6697,13.7598,13.7404,13.6697,13.7015,13.6891,13.6619,13.6094,13.4999,13.3791,13.3903,13.349,13.3094,13.3495,13.3283,13.3003,13.3516,13.3283,13.2887,13.2887,13.2615,13.2219,13.2219,13.2219,13.2219,13.218,13.2219,13.2219,13.2219,13.2217,13.2101,13.1888,13.1713,13.1489,13.0897,13.0487,13.0085,12.9479,12.83,12.7307,12.6903,12.6795,12.6686,12.669,12.669,12.6986,12.7782,12.7486,12.7409,12.7897,12.7486,12.7101,12.669,12.669,12.6306,12.5409,12.5409,12.4986,12.4101,12.4101,12.4101,12.0703,12.3906,12.6289,12.6211,12.6718,12.6406,12.3789,12.1484,11.8711,11.4492,10.9609,10.6601,10.8281,10.8906,11.1406,11.8281,12.3789,12.7695,12.9492,13.039,13.0898,13.0898,13.0312,12.9883,13.0117,12.9609,13.0,13.1601,12.9609,12.9609,13.2695,13.4297,13.5312,13.5508,13.6914,13.8398,14.0195,13.9212,13.8718,13.8615,13.8494,13.841,13.819,13.819,13.819,13.819,13.8199,13.8097,13.7888,13.7905,13.7311,13.651,13.7206,13.709,13.651,13.7206,13.709,13.651,13.651,13.5905,13.5216,13.5084,13.5084,13.5014,13.4882,13.4801,13.4818,13.4818,13.478,13.479,13.479,13.478,13.4818,13.4818,13.4818,13.478,13.479,13.478,13.4818,13.4818,13.4819,13.4718,13.4603,13.4507,13.4088,13.309,13.2423,13.1487,13.0602,12.9102,12.7794,12.7101,12.6986,12.6986,12.6921,12.6986,12.7294,12.8012,12.8089,12.8089,12.8205,12.8089,12.7717,12.6986,12.6986,12.6678,12.5909,12.5909,12.5486,12.4793,12.4793,12.4793,12.4414,12.6601,12.8008,12.7304,12.6601,12.539,12.2109,11.7812,11.3515,10.9883,10.5586,10.3008,10.4804,10.6797,11.0508,11.7383,12.289,12.6797,12.8593,12.8984,12.9101,12.9101,12.9609,13.0195,13.0898,13.2109,13.3281,13.4297,13.3906,13.3906,13.4492,13.5508,13.6718,13.8203,13.7811,13.8395,14.0191,13.8503,13.7889,13.8501,13.8419,13.8301,13.8215,13.8215,13.8215,13.8209,13.8118,13.799,13.7905,13.7813,13.761,13.7283,13.7399,13.7399,13.7283,13.7399,13.7399,13.7283,13.7283,13.7195,13.6788,13.5286,13.4698,13.4502,13.449,13.4406,13.4396,13.4396,13.4396,13.4396,13.4396,13.4396,13.4396,13.4396,13.4396,13.4396,13.4396,13.4396,13.4396,13.4396,13.441,13.4385,13.441,13.4308,13.4013,13.3115,13.2885,13.2179,13.0679,12.9602,12.8909,12.8794,12.8794,12.8486,12.7794,12.8409,12.8794,12.8986,12.8986,12.9294,12.9987,12.941,12.8909,12.8794,12.8794,12.8717,12.8486,12.8486,12.8486,12.8294,12.8294,12.8294,12.6093,12.789,12.8789,12.7109,12.5703,12.3398,11.8711,11.3906,10.9609,10.6601,10.289,10.0898,10.3086,10.5312,10.8789,11.5312,12.0703,12.4492,12.5781,12.6289,12.6601,12.6601,12.7383,12.8593,13.039,13.289,13.4609,13.5,13.5781,13.6406,13.6406,13.7617,13.8711,13.9609,13.8709,13.8816,14.0005,13.8213,13.7612,13.8187,13.8097,13.8013,13.7802,13.7802,13.7802,13.7802,13.7782,13.7717,13.7708,13.76,13.7606,13.7515,13.7515,13.7515,13.7515,13.7515,13.7515,13.7515,13.7515,13.7515,13.7399,13.6496,13.6083,13.5911,13.5817,13.568,13.5693,13.5591,13.5603,13.5603,13.5603,13.5603,13.5603,13.5603,13.5603,13.5603,13.5603,13.5603,13.5603,13.5603,13.5603,13.5603,13.5603,13.5603,13.5295,13.4411,13.4295,13.391,13.2603,13.2102,13.1218,12.941,12.9217,12.8782,12.8012,12.8717,12.8986,12.8602,12.8909,12.941,12.9794,12.941,12.9217,12.9217,12.9217,12.9217,12.9217,12.9217,12.9217,12.9217,12.9217,12.9217,12.7109,12.8906,12.9492,12.6484,12.4297,12.1289,11.5117,10.9883,10.5703,10.3281,10.0195,9.8633,10.1094,10.3086,10.6406,11.2383,11.7695,12.1484,12.25,12.3398,12.3984,12.4218,12.5,12.6601,12.9609,13.3008,13.5195,13.5508,13.7187,13.8086,13.789,13.9414,14.0195,14.0195,13.9093,13.8987,13.9781,13.7806,13.721,13.788,13.7888,13.7708,13.7515,13.7515,13.7515,13.7515,13.7515,13.7515,13.7515,13.7515,13.7515,13.7515,13.7515,13.7515,13.7515,13.7515,13.7593,13.7786,13.7786,13.7902,13.8096,13.8096,13.7789,13.7385,13.7109,13.7012,13.6988,13.6912,13.6783,13.6796,13.6796,13.6796,13.6796,13.6796,13.6796,13.6796,13.6796,13.6796,13.6796,13.6796,13.6796,13.6796,13.6796,13.6796,13.6488,13.5603,13.5488,13.5218,13.4411,13.4295,13.3218,13.0294,12.9987,12.9602,12.8512,12.9217,12.941,12.8486,12.9294,12.9717,12.9717,12.9717,12.9717,12.9717,12.9717,12.9717,12.9717,12.9717,12.9717,12.9717,12.9717,12.9717,12.7812,12.9804,13.0117,12.5898,12.3008,11.9414,11.25,10.5781,10.0508,9.8672,9.6211,9.4922,9.6758,9.9101,10.2812,10.8789,11.4101,11.8086,11.9687,12.0703,12.1601,12.2304,12.3203,12.539,12.9492,13.3008,13.5703,13.7187,13.8984,13.9609,13.8789,13.9685,14.0191,14.0191,13.8499,13.8309,13.9781,13.7082,13.6512,13.7905,13.7804,13.761,13.7515,13.7515,13.7515,13.7515,13.7515,13.7515,13.7515,13.7515,13.7515,13.7515,13.7515,13.7515,13.7515,13.7515,13.798,13.8715,13.8715,13.9217,13.9914,13.9914,13.8716,13.738,13.7396,13.7196,13.7001,13.6988,13.69,13.6796,13.6796,13.6796,13.6796,13.6796,13.6796,13.6796,13.6796,13.6796,13.6796,13.6796,13.6796,13.6796,13.6796,13.6796,13.6488,13.5603,13.5488,13.5218,13.4411,13.4295,13.391,13.2808,13.2692,13.1987,13.041,13.0987,13.1102,13.0294,13.0987,13.1487,13.1487,13.1487,13.1487,13.1487,13.1487,13.1487,13.1487,13.1487,13.1487,13.1487,13.1487,13.1487,12.5586,12.8281,12.9414,12.5117,12.1289,11.6914,11.0508,10.3711,9.8554,9.7851,9.5664,9.457,9.6797,9.8476,10.1211,10.6211,11.0508,11.3789,11.5508,11.7383,11.8906,11.9687,12.1093,12.3398,12.7187,13.1211,13.4883,13.8086,13.8984,13.9297,13.8906,14.0193,14.0691,14.0,13.8718,13.8305,13.8695,13.7017,13.6715,13.7708,13.759,13.7606,13.7515,13.7515,13.7515,13.7515,13.7515,13.7515,13.7515,13.7515,13.7515,13.7515,13.7515,13.7515,13.7515,13.7515,13.7709,13.8096,13.8599,13.8985,13.9411,13.9914,13.9611,13.891,13.8291,13.8,13.769,13.718,13.7297,13.7501,13.6911,13.6796,13.6796,13.6796,13.6796,13.6796,13.6796,13.6796,13.6988,13.7501,13.7617,13.7617,13.7617,13.7617,13.7309,13.6411,13.6296,13.618,13.5795,13.5795,13.5488,13.4603,13.3603,13.2307,13.0602,13.1179,13.141,13.0602,13.1295,13.1679,13.1679,13.1679,13.1679,13.1679,13.1679,13.1679,13.1679,13.1679,13.1679,13.1679,13.1679,13.1679,12.3086,12.6718,12.8398,12.3906,11.9492,11.4687,10.8593,10.1914,9.6953,9.6953,9.5117,9.414,9.6211,9.707,9.8828,10.289,10.6211,10.9101,11.1289,11.4297,11.6601,11.7383,11.8789,12.1211,12.4883,12.9883,13.4609,13.8593,13.8906,13.8906,13.8906,14.0113,14.0287,13.9399,13.8485,13.8006,13.7919,13.7017,13.6914,13.7515,13.7515,13.7515,13.7515,13.7515,13.7515,13.7515,13.7515,13.7515,13.7515,13.7515,13.7515,13.7515,13.7515,13.7515,13.7515,13.7515,13.7709,13.798,13.8908,13.9411,13.9682,14.061,14.0803,14.0715,13.97,13.8907,13.8303,13.7897,13.8093,13.8296,13.7411,13.718,13.7103,13.6911,13.6796,13.6796,13.6796,13.6988,13.7411,13.8001,13.8296,13.8411,13.8117,13.8117,13.7809,13.6911,13.6796,13.6796,13.6796,13.6796,13.6488,13.5603,13.4411,13.318,13.1718,13.2102,13.2218,13.1679,13.2179,13.2487,13.2487,13.2487,13.2487,13.2487,13.2487,13.2487,13.2487,13.2487,13.2487,13.2487,13.2487,13.2295,12.0781,12.539,12.7383,12.2187,11.7695,11.289,10.6914,10.0195,9.5234,9.5234,9.3828,9.289,9.3789,9.3945,9.5078,9.8515,10.1289,10.4219,10.7617,11.1797,11.4804,11.5586,11.6484,11.8711,12.3086,12.9687,13.5195,13.8593,13.8906,13.8906,13.8906,13.8898,13.8784,13.8507,13.7512,13.73,13.7905,13.6894,13.6816,13.7515,13.7515,13.7515,13.7515,13.7515,13.7515,13.7515,13.7515,13.7515,13.7515,13.7515,13.7515,13.7515,13.7515,13.7515,13.7515,13.7515,13.798,13.8908,13.9798,14.0687,14.15,14.2312,14.2594,14.2389,14.1616,13.998,13.8585,13.9395,13.9505,13.9104,13.8296,13.8117,13.7886,13.6988,13.6796,13.6796,13.6796,13.7501,13.8117,13.8117,13.8719,13.8988,13.8181,13.8117,13.7809,13.6911,13.6796,13.6796,13.6796,13.6796,13.6488,13.5603,13.5488,13.5103,13.4295,13.4295,13.4295,13.4295,13.4295,13.4295,13.4295,13.4295,13.4295,13.4295,13.4295,13.4295,13.4295,13.4295,13.4295,13.4295,13.4295,13.3795,11.5117,11.9609,12.2187,11.7695,11.3711,10.9687,10.4804,9.9297,9.5195,9.5195,9.3828,9.3047,9.4531,9.4804,9.5703,9.8554,10.0195,10.2304,10.5781,11.0,11.3281,11.4687,11.8789,12.289,12.6601,13.1093,13.5195,13.8593,13.8905,13.8903,13.8903,13.8202,13.7805,13.7482,13.7105,13.6901,13.6778,13.6515,13.6386,13.6703,13.7206,13.7206,13.6703,13.7206,13.7515,13.7515,13.7515,13.7515,13.7515,13.7515,13.7515,13.7515,13.7515,13.7515,13.7515,13.7515,13.7709,13.798,13.8908,13.9411,13.9798,14.061,14.0881,14.0803,14.061,14.0405,14.0207,14.0289,13.9786,13.9412,13.9681,13.9412,13.8911,13.8604,13.8488,13.8488,13.8488,13.8719,13.9104,13.9681,13.9989,14.0104,13.9912,13.9296,13.8604,13.7796,13.718,13.6796,13.6796,13.6796,13.668,13.6411,13.6411,13.5795,13.4411,13.4295,13.4295,13.4295,13.4295,13.4295,13.4295,13.4295,13.4295,13.4295,13.4295,13.4295,13.4295,13.4295,13.4295,13.4295,13.4295,13.3795,10.9687,11.3789,11.6289,11.3281,10.9883,10.6484,10.3203,9.8672,9.5195,9.5195,9.3828,9.3047,9.4453,9.4726,9.5351,9.7265,9.8281,10.0117,10.3515,10.8281,11.2695,11.6015,12.0586,12.4609,12.7383,13.0781,13.4218,13.7695,13.7888,13.7881,13.779,13.7215,13.6611,13.5917,13.6211,13.6186,13.5813,13.5813,13.5813,13.5803,13.6703,13.6819,13.6306,13.709,13.7515,13.7515,13.7515,13.7515,0.0,13.7515,13.7515,13.7515,13.7515,13.7515,13.7515,13.7515,13.7515,13.7593,13.8482,13.8792,13.8908,13.9798,14.0113,14.0108,14.0412,14.071,14.08,13.9915,13.9989,14.0296,14.0104,13.9989,13.9719,13.9412,13.9296,13.9296,13.9296,13.9604,13.9912,14.0104,14.0604,14.0912,14.0219,13.9912,13.9412,13.8309,13.7603,13.718,13.6796,13.6796,13.6796,13.6796,13.6796,13.6411,13.5295,13.5218,13.5218,13.5218,13.5218,13.5218,13.5218,13.5218,13.5218,13.5218,13.5218,13.5218,13.5218,13.5218,13.5218,13.5218,13.5218,13.4795,0.0,10.789,10.9883,10.9101,10.6406,10.3515,10.1719,9.8164,0.0,9.5117,9.3789,9.2851,9.375,9.3906,9.4219,9.5156,9.6015,9.7812,10.1289,10.7109,11.3281,11.9297,12.2187,12.4492,12.6211,12.9414,13.2812,13.6093,13.6286,13.6191,13.6013,13.5905,13.5299,13.4081,13.4905,13.5081,13.4808,13.4885,13.4885,13.4808,13.5803,13.6306,13.619,13.709,13.7515,13.7515,13.7515,13.7515,13.7515,13.7515,13.7515,13.7515,13.7515,13.7515,13.7515,13.7515,13.7515,13.7593,13.8405,13.8715,13.882,13.9583,13.9816,13.9896,14.0615,14.0914,14.0594,13.8914,14.0117,14.1489,13.9989,14.0104,14.0489,13.9719,13.9475,13.9488,13.9488,14.0104,14.0489,13.9604,14.0796,14.1412,13.9796,14.0104,14.0104,13.8502,13.8181,13.7886,13.6988,13.6911,13.6911,13.6796,13.6796,13.6796,13.6796,13.6796,13.6796,13.6796,13.6796,13.6796,13.6796,13.6796,13.6796,13.6796,13.6796,13.6796,13.6796,13.6911,13.6911,13.6796,13.6911,13.6411,9.6523,0.0,10.5508,10.4609,10.3281,10.1601,0.0,9.6836,9.5,9.4336,9.3359,9.2851,9.375,9.3906,9.4414,9.5937,9.6875,9.8867,10.3008,11.0508,11.75,12.289,12.5312,12.7304,12.9687,13.1914,13.4101,13.6093,13.6282,13.6214,13.5983,13.5298,13.4608,13.3987,13.3486,13.3205,13.3106,13.3686,13.3686,13.3106,13.5311,13.6007,13.5388,13.678,13.7515,13.7515,13.7515,13.7515,13.7515,13.7515,13.7515,13.7515,13.7515,13.7515,13.7515,13.7515,13.7515,13.7515,13.7709,13.781,13.7684,13.7776,13.8308,13.8802,13.8784,13.9787,14.0918,14.1004,14.1412,14.1912,14.2181,14.1912,14.1681,14.2104,14.1681,14.1296,14.1296,14.1412,14.1489,14.1296,14.1604,14.1797,14.1412,14.0912,14.0489,14.0104,13.9412,13.8719,13.7911,13.7809,13.7488,13.6911,13.6796,13.6796,13.6796,13.6796,13.6796,13.6796,13.6796,13.6796,13.6796,13.6796,13.6796,13.6796,13.6796,13.6796,13.6796,13.7501,13.7501,13.6796,13.7488,13.6988,9.3203,9.6601,10.0117,9.9961,9.9297,9.8398,9.7383,9.582,9.4453,9.3984,9.3203,9.2734,9.3203,9.2969,9.3281,9.5039,9.6328,9.9765,10.7304,11.4414,12.0586,12.539,12.75,12.9218,13.1015,13.2383,13.3593,13.4492,13.4914,13.4984,13.4686,13.4221,13.3685,13.3298,13.279,13.2508,13.2487,13.2912,13.2912,13.2487,13.4305,13.5117,13.5001,13.6394,13.7206,13.7515,13.7515,13.7515,13.7515,13.7515,13.7515,13.7515,13.7515,13.7515,13.7515,13.7515,13.7515,13.7515,13.7515,13.7479,13.7408,13.7204,13.7507,13.7909,13.8606,13.9698,14.0711,14.0708,14.1797,14.2989,14.2604,14.2797,14.3105,14.3105,14.2797,14.2297,14.1989,14.1912,14.1797,14.1412,14.1604,14.1797,14.1412,14.1181,14.1104,14.0681,14.0219,13.9604,13.8796,13.8296,13.7886,13.7411,13.6988,13.6796,13.6796,13.6796,13.6796,13.6796,13.6796,13.6796,13.6796,13.6796,13.6796,13.6796,13.6796,13.6988,13.7411,13.7886,13.7988,13.7911,13.8117,13.7617,9.2187,9.3867,9.5625,9.6484,9.6211,9.5976,9.6719,9.5742,9.4609,9.4336,9.3594,9.3008,9.3008,9.2383,9.2539,9.4531,9.7109,10.2304,11.2383,11.8086,12.2812,12.6797,12.8984,13.039,13.1289,13.2187,13.2695,13.2695,13.3308,13.3507,13.3117,13.3096,13.29,13.2507,13.2487,13.2487,13.2487,13.2487,13.2409,13.2293,13.3299,13.4189,13.5001,13.588,13.6703,13.7515,13.7515,13.7515,13.7515,13.7515,13.7515,13.7515,13.7515,13.7515,13.7515,13.7515,13.7515,13.7515,13.7522,13.7408,13.7296,13.7196,13.7179,13.74,13.8889,14.0005,14.0604,13.9719,14.1912,14.4105,14.2797,14.3412,14.422,14.3605,14.3297,14.2912,14.2181,14.1989,14.1681,14.0912,14.1412,14.1681,14.0912,14.1412,14.1604,14.0912,14.0796,14.0489,13.9604,13.8911,13.8425,13.8117,13.7411,13.6911,13.6796,13.6911,13.6988,13.6988,13.6988,13.7103,13.718,13.718,13.718,13.718,13.718,13.7488,13.8296,13.8411,13.8796,13.9296,13.8681,13.8296,9.1445,9.3867,9.6484,9.7304,9.7969,9.8437,9.8594,9.8398,9.7812,9.6406,9.539,9.4804,9.4804,9.4687,9.5625,9.8789,10.5117,11.1093,11.5781,12.0312,12.4101,12.6992,12.9492,13.1289,13.2187,13.3006,13.3511,13.3511,13.3505,13.3383,13.3093,13.3013,13.2812,13.2507,13.2487,13.2487,13.2487,13.2487,13.21,13.1414,13.299,13.4189,13.5001,13.588,13.6703,13.7515,13.7515,13.7515,13.7515,13.7515,13.7515,13.7515,13.7515,13.7515,13.7515,13.7515,13.7515,13.7494,13.7296,13.7204,13.7196,13.6912,13.731,13.7989,13.822,13.99,14.1489,14.0604,14.2297,14.4489,14.499,14.4797,14.4605,14.5182,14.4182,14.3118,14.2912,14.2412,14.1912,14.1681,14.1797,14.1912,14.1681,14.1797,14.1912,14.1681,14.1681,14.1412,14.0489,14.0296,13.9681,13.8309,13.8001,13.7617,13.6911,13.7501,13.7886,13.7886,13.7886,13.8181,13.8911,13.8911,13.8911,13.8911,13.8911,13.8988,13.9104,13.9912,13.9912,13.9296,13.9912,13.9488,9.0586,9.2461,9.4804,9.6601,9.875,10.0508,10.1015,10.0703,10.0117,9.8828,9.6758,9.5469,9.6367,9.6562,9.8594,10.4883,11.039,11.5,11.8008,12.1797,12.4804,12.6406,12.8906,13.0703,13.1093,13.2185,13.2802,13.2195,13.2986,13.311,13.2301,13.2612,13.2689,13.2497,13.2487,13.2487,13.2487,13.2487,13.2293,13.1906,13.268,13.3686,13.5001,13.4885,13.562,13.6819,13.6394,13.6394,13.6897,13.6897,13.709,13.7515,13.7515,13.7515,13.7515,13.7515,13.7515,13.7484,13.7289,13.7196,13.7199,13.6887,13.7103,13.7603,13.8488,13.9912,14.1296,14.1797,14.3489,14.5105,14.499,14.5413,14.572,14.572,14.5105,14.4182,14.3297,14.2797,14.2412,14.1989,14.1912,14.1912,14.1912,14.1912,14.1912,14.1912,14.1912,14.1797,14.1412,14.0912,14.0296,13.9488,13.8988,13.8604,13.8219,13.8488,13.8719,13.8719,13.8719,13.8911,13.9296,13.9296,13.9296,13.9296,13.9296,13.9475,13.9989,14.0412,14.0604,14.0719,14.0604,13.9912,9.0,9.1289,9.3164,9.5586,9.8594,10.1406,10.289,10.2812,10.2304,10.1719,9.9101,9.7344,9.8398,9.9414,10.25,11.0,11.4297,11.75,11.9883,12.3008,12.5312,12.5898,12.8515,13.0195,13.0195,13.171,13.2192,13.1316,13.2506,13.2787,13.1618,13.2308,13.2678,13.2497,13.268,13.2796,13.2796,13.299,13.2912,13.2487,13.2487,13.3415,13.5001,13.4111,13.4692,13.6316,13.5388,13.5388,13.5996,13.619,13.6703,13.7206,13.7399,13.7515,13.7515,13.7515,13.7515,13.7484,13.7289,13.7196,13.7199,13.6887,13.6911,13.7296,13.8604,13.9796,14.0912,14.2181,14.3797,14.499,14.4797,14.5797,14.6682,14.6105,14.572,14.499,14.3682,14.3105,14.2604,14.1989,14.1912,14.1912,14.1912,14.1912,14.1912,14.1912,14.1912,14.1912,14.1912,14.1296,14.0796,14.0604,13.9989,13.9604,13.9604,13.9398,13.9488,13.9912,13.9912,13.9912,13.9912,13.9912,13.9912,13.9912,13.9912,14.0219,14.0912,14.0912,14.1181,14.1912,14.1181,14.0412,9.0,9.1289,9.3047,9.4844,9.7265,10.0117,10.3398,10.4687,10.5195,10.5117,10.3594,10.2109,10.1406,10.4609,10.8515,11.2383,11.6601,12.0,12.1797,12.4297,12.5898,12.6015,12.8983,13.1088,13.1088,13.2485,13.2998,13.2102,13.2614,13.2593,13.1603,13.2192,13.2606,13.2497,13.3183,13.3609,13.3609,13.4421,13.3995,13.2487,13.2487,13.3415,13.5001,13.4111,13.4692,13.6316,13.5388,13.5001,13.5194,13.6007,13.6306,13.651,13.7206,13.7515,13.7515,13.7515,13.7515,13.7484,13.7289,13.7196,13.7199,13.6887,13.7296,13.8001,13.8117,13.9296,14.0604,14.0719,14.1989,14.3605,14.5182,14.6221,14.6913,14.6798,14.5605,14.4489,14.4297,14.3105,14.1989,14.1912,14.1912,14.1912,14.1912,14.1912,14.1912,14.1912,14.1912,14.1912,14.1912,14.1797,14.1489,14.0681,14.0489,14.0489,14.0489,13.9796,13.9989,14.1604,14.1681,14.1681,14.1681,14.1681,14.1681,14.1681,14.1681,14.1681,14.1797,14.1797,14.1797,14.1912,14.1797,14.1296,9.0,9.0078,9.0859,9.3672,9.5937,9.8633,10.3203,10.5703,10.7383,10.8398,10.6914,10.5,10.4219,10.6601,11.0312,11.4804,11.7812,12.039,12.2695,12.4687,12.6015,12.6015,12.8592,13.0301,13.0197,13.1188,13.1611,13.0999,13.159,13.1811,13.1287,13.2093,13.2798,13.3183,13.3492,13.3995,13.4498,13.4808,13.4421,13.3299,13.3802,13.4382,13.5001,13.4692,13.4885,13.5377,13.4614,13.4189,13.4305,13.5117,13.5813,13.6383,13.7206,13.7515,13.7515,13.7515,13.7512,13.7386,13.7305,13.7109,13.7089,13.7515,13.7796,13.8309,13.9296,14.0104,14.0719,14.1296,14.1912,14.2489,14.3181,14.4297,14.522,14.4682,14.4489,14.4297,14.3682,14.3105,14.2489,14.1989,14.1912,14.1912,14.1912,14.1912,14.1912,14.1912,14.1912,14.1912,14.1912,14.1912,14.1797,14.1412,14.0912,14.0412,13.9796,13.9989,14.0412,14.0989,14.1604,14.1912,14.1912,14.1912,14.1912,14.1912,14.1912,14.1912,14.1912,14.1912,14.1912,14.1912,14.1912,14.1412,9.0078,8.9375,8.9453,9.2695,9.5,9.7929,10.3398,10.6992,10.9804,11.1797,11.0117,10.8008,10.6914,10.8789,11.1914,11.6015,11.8515,12.0898,12.3515,12.5117,12.6093,12.6406,12.8708,13.0212,12.9994,13.0918,13.1284,13.0686,13.1407,13.17,13.1192,13.1984,13.2912,13.3686,13.3995,13.4498,13.5388,13.5697,13.5194,13.4111,13.5311,13.5504,13.5001,13.5001,13.5001,13.5001,13.4111,13.3609,13.3415,13.4189,13.5311,13.6394,13.6897,13.7283,13.7515,13.7522,13.7419,13.7396,13.7196,13.7191,13.7489,13.7887,13.8502,13.9104,13.9912,14.0412,14.0681,14.0989,14.1104,14.0989,14.0796,14.2104,14.3489,14.3181,14.3412,14.3489,14.3181,14.2912,14.2604,14.1989,14.1912,14.1912,14.1912,14.1912,14.1912,14.1912,14.1912,14.1912,14.1912,14.1912,14.1797,14.1489,14.0719,13.9912,13.9412,13.9796,14.0296,14.0604,14.1412,14.1912,14.1912,14.1912,14.1912,14.1912,14.1912,14.1912,14.1912,14.1912,14.1912,14.1912,14.1912,14.1604,9.0234,8.9375,8.9336,9.1992,9.4609,9.8125,10.4219,10.8906,11.2695,11.5195,11.3711,11.1406,10.9687,11.1484,11.3789,11.5508,11.8711,12.1797,12.4414,12.5508,12.6289,12.7187,12.9485,13.1015,13.0819,13.2216,13.2683,13.1595,13.2204,13.2209,13.1298,13.1984,13.2912,13.3686,13.4614,13.5377,13.6306,13.709,13.6703,13.5001,13.6703,13.6587,13.5001,13.5001,13.5001,13.5001,13.4111,13.3299,13.2603,13.3415,13.4692,13.6306,13.6306,13.6819,13.7505,13.7386,13.738,13.7385,13.71,13.7502,13.8221,13.8118,13.9181,14.0412,13.9604,13.9912,14.0412,13.9475,13.9296,13.9104,13.8296,14.0002,14.2104,14.2912,14.2412,14.2104,14.2912,14.2412,14.1912,14.1912,14.1912,14.1912,14.1912,14.1912,14.1912,14.1912,14.1912,14.1912,14.1912,14.1912,14.1604,14.0681,13.9796,13.9296,13.9296,13.9296,13.9719,14.0489,14.1412,14.1912,14.1912,14.1912,14.1912,14.1912,14.1912,14.1912,14.1912,14.1912,14.1912,14.1912,14.1912,14.1912,8.9883,8.9804,9.0664,9.5078,9.8594,10.2695,10.9414,11.2383,11.4804,11.8593,11.8281,11.6211,11.2695,11.3203,11.4492,11.5586,11.8711,12.1797,12.4414,12.6015,12.7187,12.8086,12.9407,13.0295,13.0589,13.099,13.1286,13.1317,13.1493,13.1985,13.2912,13.3183,13.3995,13.5504,13.5813,13.6316,13.709,13.7399,13.7013,13.588,13.7013,13.6587,13.5001,13.62,13.6084,13.5001,13.4692,13.3802,13.2603,13.3415,13.4692,13.6306,13.6306,13.6819,13.7515,13.7484,13.7402,13.7204,13.7211,13.7219,13.7387,13.8617,13.8911,13.8988,13.9912,13.9989,13.9604,13.9412,13.8911,13.8411,13.8194,13.8181,13.8488,13.9425,13.9796,14.0104,14.0412,14.0719,14.0989,14.0989,14.1489,14.1912,14.1912,14.1912,14.1912,14.1912,14.1912,14.1912,14.1912,14.1412,14.0681,13.9796,13.8911,13.8181,13.7603,13.8604,13.9398,13.9719,14.1104,14.1912,14.1912,14.1912,14.1912,14.1912,14.1912,14.1912,14.1912,14.1912,14.1912,14.1912,14.1912,14.1912,8.9765,9.1015,9.332,9.8476,10.3086,10.8515,11.6484,11.8203,11.8984,12.2304,12.1718,11.9609,11.6289,11.6211,11.6797,11.7695,12.0117,12.2812,12.539,12.6718,12.7812,12.8983,12.9782,13.0518,13.1003,13.1307,13.1704,13.2179,13.2216,13.2796,13.4111,13.4189,13.4885,13.6316,13.6306,13.6703,13.7515,13.7515,13.709,13.6306,13.6819,13.6316,13.5001,13.6394,13.6316,13.5001,13.4305,13.3415,13.2487,13.299,13.4189,13.5813,13.5813,13.651,13.7515,13.7512,13.7402,13.7305,13.7199,13.7206,13.749,13.8502,13.8681,13.8681,13.9412,13.9181,13.8796,13.8411,13.7988,13.7617,13.7617,13.718,13.6988,13.7886,13.8488,13.8911,13.9219,13.9719,14.0219,14.0489,14.0989,14.1489,14.1797,14.1912,14.1912,14.1912,14.1912,14.1797,14.1412,14.0912,14.0104,13.8988,13.8411,13.768,13.6911,13.7988,13.8796,13.8796,14.0104,14.0912,14.0912,14.1489,14.1912,14.1912,14.1912,14.1912,14.1912,14.1912,14.1912,14.1912,14.1912,14.1912,8.9883,9.2734,9.6601,10.1992,10.8086,11.5195,12.4101,12.4883,12.4297,12.5781,12.4297,12.2109,12.039,12.0117,12.039,12.1093,12.2695,12.4687,12.6992,12.7381,12.8119,12.9796,13.0598,13.1289,13.1885,13.2583,13.3214,13.3794,13.3802,13.4189,13.5117,13.5117,13.5504,13.6383,13.6383,13.6703,13.7399,13.7515,13.709,13.619,13.6316,13.5803,13.5001,13.5803,13.5687,13.4808,13.3183,13.2487,13.2487,13.2603,13.3609,13.5001,13.5117,13.6084,13.7505,13.7397,13.7391,13.7396,13.7112,13.7514,13.8106,13.8079,13.8488,13.8988,13.8296,13.8001,13.7796,13.6988,13.6796,13.6796,13.6796,13.6796,13.6988,13.7886,13.8001,13.8181,13.8911,13.9104,13.9412,14.0219,14.0489,14.0912,14.1604,14.1797,14.1912,14.1912,14.1797,14.1489,14.0796,14.0604,13.9912,13.8502,13.8194,13.7809,13.6988,13.7603,13.8117,13.8117,13.8911,13.9296,13.9296,14.0796,14.1681,14.1681,14.1681,14.1681,14.1797,14.1797,14.1797,14.1912,14.1912,14.1912,9.0898,9.4101,9.7929,10.5117,11.3515,12.1211,12.5898,12.6718,12.6601,12.6914,12.6601,12.5703,12.3984,12.4218,12.4492,12.3984,12.539,12.6718,12.7187,12.7889,12.8893,13.0494,13.078,13.1606,13.3399,13.3685,13.3999,13.4712,13.4692,13.5117,13.6007,13.5996,13.6394,13.7206,13.7206,13.7013,13.6587,13.7206,13.678,13.5311,13.6007,13.5803,13.5001,13.5194,13.4808,13.3918,13.2912,13.2487,13.2487,13.3183,13.4111,13.5117,13.5813,13.6587,13.7515,13.7494,13.7391,13.7408,13.7208,13.7203,13.7412,13.7887,13.7796,13.7411,13.7911,13.7603,13.6988,13.6911,13.6796,13.6796,13.6796,13.6796,13.6988,13.7886,13.7617,13.7103,13.7296,13.7911,13.8411,13.8604,13.9681,14.0681,14.0796,14.1412,14.1912,14.1912,14.1296,14.1104,14.1604,14.0412,13.9719,13.9989,13.8911,13.8001,13.7796,13.8001,13.8117,13.8117,13.8911,13.9296,13.9296,13.9719,13.9912,13.9912,13.9912,14.0219,14.0912,14.0912,14.1181,14.1912,14.1912,14.1912,9.1836,9.664,10.2617,11.289,11.9804,12.4609,12.6797,12.7617,12.7812,12.7383,12.7304,12.6992,12.6211,12.6015,12.6015,12.6015,12.6718,12.7381,12.7889,12.8303,12.9082,13.0702,13.0689,13.1616,13.3802,13.4004,13.4415,13.5514,13.561,13.6007,13.6819,13.6897,13.709,13.7515,13.709,13.6703,13.6306,13.6316,13.5891,13.5001,13.5001,13.4614,13.3802,13.4189,13.3918,13.3106,13.268,13.2487,13.2603,13.3415,13.4189,13.5001,13.5504,13.6394,13.7515,13.709,13.7086,13.7408,13.7305,13.7199,13.7101,13.7413,13.718,13.6911,13.7296,13.718,13.6796,13.6796,13.6796,13.6796,13.6796,13.7103,13.7488,13.8001,13.7411,13.6911,13.7296,13.7501,13.7617,13.8001,13.9104,14.0104,14.0489,14.1296,14.1912,14.1912,14.1181,14.0604,14.0681,13.9912,13.9219,13.8796,13.8411,13.7886,13.7488,13.7501,13.7501,13.7501,13.7911,13.8104,13.8104,13.8104,13.8488,13.9296,13.9296,13.9488,13.9989,14.0412,14.0796,14.1296,14.1681,14.1912,9.2422,9.9687,10.8593,12.0312,12.4492,12.6015,12.6914,12.7617,12.8008,12.7383,12.7383,12.75,12.75,12.6914,12.6718,12.7617,12.7693,12.8001,12.8895,12.892,12.9293,13.0814,13.0787,13.158,13.3879,13.4114,13.4705,13.62,13.6306,13.651,13.7013,13.7206,13.7283,13.7283,13.6587,13.619,13.6112,13.5388,13.4885,13.4614,13.3802,13.3106,13.2487,13.3183,13.3106,13.2487,13.2487,13.2487,13.2603,13.3492,13.4305,13.5001,13.5194,13.62,13.7399,13.6587,13.6819,13.7484,13.7289,13.7196,13.7199,13.6887,13.6796,13.6796,13.6796,13.6796,13.6796,13.6796,13.6796,13.6796,13.6796,13.7296,13.7911,13.8181,13.7694,13.718,13.7911,13.7488,13.718,13.7809,13.8604,13.9604,14.0604,14.1412,14.1912,14.1912,14.0989,14.0219,13.9604,13.9296,13.8604,13.7411,13.7809,13.7796,13.7103,13.6911,13.6796,13.6796,13.6796,13.6796,13.6796,13.6796,13.7488,13.8796,13.8911,13.8911,13.9104,13.9796,14.0219,14.0412,14.1104,14.1489,9.2109,10.2812,11.3711,12.0586,12.3711,12.5195,12.6015,12.6289,12.6484,12.7187,12.789,12.8398,12.8398,12.8281,12.8515,12.9414,12.9608,12.979,13.0488,13.05,13.0714,13.1313,13.1394,13.231,13.4589,13.4887,13.5282,13.619,13.6306,13.6007,13.5388,13.6007,13.651,13.651,13.6394,13.588,13.5194,13.5117,13.4305,13.2796,13.268,13.2603,13.2487,13.2603,13.2603,13.2487,13.2487,13.2487,13.2603,13.4189,13.4885,13.5117,13.5803,13.6703,13.7399,13.6587,13.6819,13.7484,13.7289,13.7196,13.7199,13.6887,13.6796,13.6796,13.6796,13.6796,13.6796,13.6796,13.6796,13.6796,13.6796,13.6911,13.7296,13.8796,13.8488,13.8001,13.8117,13.8001,13.7694,13.7103,13.8219,13.9796,14.1412,14.1797,14.1912,14.1912,14.0489,13.9719,14.0296,13.9181,13.8411,13.8911,13.8411,13.8117,13.7886,13.718,13.6796,13.6796,13.6796,13.6796,13.6796,13.6796,13.6911,13.7103,13.7103,13.7488,13.8309,13.8425,13.8796,13.9488,13.9604,13.9604,9.6875,10.5898,11.4218,12.1211,12.3515,12.4297,12.5117,12.5703,12.6093,12.6484,12.7304,12.8008,12.8515,12.8593,12.8906,12.9804,12.9918,13.009,13.0803,13.0809,13.089,13.1386,13.1418,13.2304,13.479,13.5001,13.5504,13.6897,13.7013,13.6587,13.5813,13.6112,13.6112,13.562,13.5117,13.4692,13.4305,13.3802,13.3183,13.2487,13.2487,13.2487,13.2487,13.2487,13.268,13.3183,13.3183,13.3415,13.3995,13.5194,13.5377,13.5001,13.5388,13.5813,13.6007,13.5194,13.5697,13.6788,13.6594,13.681,13.7199,13.6887,13.6796,13.668,13.618,13.6411,13.668,13.618,13.6411,13.6796,13.6796,13.718,13.768,13.8488,13.9104,13.9412,13.8911,13.8796,13.8796,13.8911,13.9488,14.0412,14.1681,14.1912,14.1912,14.1912,14.0412,13.9398,13.9796,13.8796,13.7988,13.7911,13.7988,13.7886,13.7411,13.6988,13.6796,13.6796,13.6796,13.6796,13.6796,13.6796,13.6796,13.6796,13.6796,13.6988,13.7411,13.7886,13.8296,13.8604,13.9104,13.9296,9.9258,10.6015,11.1601,11.8515,12.0898,12.1718,12.2617,12.3789,12.4804,12.5312,12.6211,12.7187,12.8086,12.8515,12.8984,13.0117,13.0189,13.0504,13.1294,13.1296,13.1412,13.1698,13.1684,13.2499,13.4808,13.5001,13.562,13.709,13.7206,13.6703,13.5697,13.5803,13.562,13.4692,13.3995,13.3686,13.3686,13.2912,13.2487,13.2487,13.2487,13.2487,13.2487,13.268,13.3106,13.3686,13.3686,13.3995,13.4421,13.5504,13.5504,13.4692,13.4692,13.4808,13.4885,13.3995,13.4808,13.6323,13.6015,13.6501,13.7199,13.6887,13.6796,13.668,13.5988,13.6296,13.668,13.5988,13.6296,13.6796,13.6796,13.7309,13.7796,13.8001,13.9181,14.0219,13.9719,13.9488,13.9604,14.0412,14.0604,14.0912,14.1681,14.1912,14.1912,14.1912,14.0412,13.9296,13.9296,13.8411,13.7488,13.6911,13.7411,13.7488,13.6911,13.6796,13.6796,13.6796,13.6796,13.6796,13.6796,13.6796,13.6796,13.6796,13.6796,13.6796,13.6796,13.7501,13.7809,13.7809,13.8411,13.8719,9.5351,10.0703,10.5703,11.0195,11.3711,11.6289,11.7187,11.9414,12.1601,12.3281,12.4883,12.6289,12.7187,12.8008,12.9218,13.0898,13.1087,13.1505,13.2815,13.2981,13.2819,13.2509,13.2391,13.3116,13.4808,13.5001,13.5388,13.6316,13.6383,13.562,13.3918,13.4614,13.4692,13.3802,13.3686,13.3686,13.3686,13.2912,13.2487,13.2487,13.2487,13.2487,13.2487,13.3299,13.3686,13.3686,13.3686,13.3299,13.2796,13.4382,13.4614,13.3802,13.3802,13.4305,13.4885,13.3995,13.4808,13.6323,13.6015,13.6501,13.7199,13.6887,13.6796,13.6796,13.668,13.6796,13.6796,13.668,13.6796,13.6796,13.6796,13.6796,13.7103,13.7886,13.8719,13.9604,14.0412,13.9912,13.9604,14.0412,14.0604,14.0912,14.1681,14.1912,14.1912,14.1912,14.0412,13.9296,13.9296,13.7911,13.6911,13.6796,13.6796,13.6796,13.6796,13.6796,13.6796,13.6796,13.6796,13.6796,13.6796,13.6796,13.6796,13.6796,13.6796,13.6796,13.6796,13.6796,13.6911,13.6911,13.6911,13.6911,9.2226,9.5742,9.9609,10.4414,10.7812,11.0703,11.3906,11.6601,11.9414,12.2812,12.3984,12.5,12.6914,12.8007,12.9217,13.0896,13.1101,13.1512,13.2897,13.2988,13.2885,13.2508,13.2487,13.3183,13.4808,13.4498,13.4808,13.619,13.5813,13.4885,13.3802,13.3995,13.3802,13.299,13.2912,13.2912,13.2912,13.2603,13.2487,13.2487,13.2487,13.2487,13.2487,13.3299,13.3415,13.299,13.4111,13.4382,13.4101,13.4696,13.4397,13.3714,13.3613,13.3508,13.3415,13.299,13.3686,13.4583,13.4394,13.4804,13.5617,13.5886,13.5988,13.5988,13.5988,13.6411,13.668,13.6103,13.6411,13.6796,13.6796,13.6796,13.7103,13.8488,13.9104,13.9719,14.1104,14.1181,14.1104,14.1412,14.1412,14.1489,14.1797,14.1912,14.1912,14.1912,14.0412,13.9296,13.9296,13.7796,13.6796,13.6796,13.6796,13.6796,13.6796,13.6796,13.6796,13.6796,13.6796,13.6796,13.6796,13.6796,13.6796,13.6796,13.6796,13.6796,13.6796,13.6796,13.6796,13.6796,13.6796,13.6796,8.8515,9.0859,9.3633,9.7929,10.1406,10.4687,10.8398,11.2187,11.6093,12.039,12.2187,12.3789,12.6406,12.7614,12.8817,13.08,13.1016,13.139,13.2811,13.2897,13.2818,13.2498,13.2487,13.3183,13.4808,13.4189,13.4421,13.619,13.5504,13.4614,13.3686,13.3686,13.3299,13.2487,13.2487,13.2487,13.2487,13.2487,13.2487,13.2487,13.2487,13.2487,13.2487,13.3609,13.3686,13.299,13.4692,13.5001,13.4178,13.4386,13.401,13.3289,13.3188,13.2889,13.2487,13.2487,13.3201,13.3989,13.3908,13.451,13.5519,13.5796,13.5911,13.5911,13.5911,13.6296,13.668,13.6103,13.6411,13.6796,13.6796,13.6796,13.718,13.8604,13.9104,13.9719,14.1181,14.1681,14.1912,14.1912,14.1912,14.1912,14.1912,14.1912,14.1912,14.1912,14.0412,13.9296,13.9296,13.7796,13.6796,13.6796,13.6796,13.6796,13.6796,13.6796,13.6796,13.6796,13.6796,13.6796,13.6796,13.6796,13.6796,13.6796,13.6796,13.6796,13.6796,13.6796,13.6796,13.6796,13.6796,13.6796,0.0,0.0,0.0,9.0429,9.4258,9.8086,10.0781,10.6015,11.1601,11.6015,11.9609,12.289,12.5508,12.6713,12.8096,13.0511,13.08,13.1281,13.2618,13.2791,13.271,13.2488,13.2487,13.3106,13.4808,13.4189,13.4382,13.6112,13.5388,13.4614,13.3686,13.3686,13.3299,13.2487,13.2487,13.2487,13.2487,13.2487,13.2487,13.2487,13.2487,13.2487,13.2603,13.4189,13.4498,13.3802,13.5504,13.4885,13.2603,13.3415,13.3222,13.2487,13.2487,13.2487,13.2487,13.2477,13.3487,13.4681,13.4595,13.5596,13.6911,13.6809,13.6796,13.6796,13.6796,13.6796,13.6796,13.6796,13.6796,13.6796,13.6796,13.6796,13.6988,13.7886,13.8681,13.9488,14.0412,14.1181,14.1797,14.1912,14.1912,14.1912,14.1912,14.1912,14.1912,14.1912,14.0412,13.9296,13.9296,13.7796,13.6796,13.6796,13.6796,13.6796,13.6796,13.6796,13.6796,13.6796,13.6796,13.6796,13.6796,13.6796,13.6796,13.6796,13.6796,13.6796,13.6796,13.6796,13.6796,13.6796,13.6796,13.6796,8.1953,0.0,0.0,0.0,0.0,0.0,9.5156,10.0195,10.6015,11.2812,11.6484,12.0,12.5117,12.6208,12.7403,13.0396,13.0797,13.1289,13.2713,13.2814,13.2717,13.2517,13.2487,13.2912,13.3995,13.3299,13.3299,13.4305,13.3686,13.3106,13.2796,13.2796,13.268,13.2487,13.2487,13.2487,13.2487,13.2487,13.2487,13.2487,13.2487,13.2487,13.2603,13.4189,13.4498,13.3802,13.5504,13.5504,13.4294,13.3796,13.3111,13.2515,13.2308,13.2298,13.2313,13.2198,13.2915,13.3797,13.3591,13.429,13.5204,13.5693,13.5911,13.5988,13.6603,13.6796,13.6796,13.6796,13.6796,13.6796,13.6796,13.6796,13.6988,13.7886,13.8309,13.8681,13.9488,13.9796,14.0412,14.1681,14.1912,14.1912,14.1912,14.1412,14.0989,14.0989,13.9488,13.8411,13.8411,13.7488,13.6796,13.6796,13.6796,13.6796,13.6796,13.6796,13.6796,13.6796,13.6796,13.6796,13.6796,13.6796,13.6796,13.6796,13.6796,13.6796,13.6796,13.6796,13.6796,13.6796,13.6796,13.6796,8.0351,0.0,8.0898,8.2617,0.0,0.0,9.0937,9.5701,10.1404,10.8513,11.2302,11.6013,12.1286,12.2492,12.3607,12.6295,12.7488,12.9307,13.2505,13.2814,13.2687,13.2478,13.2487,13.2796,13.3609,13.299,13.2796,13.3609,13.299,13.2487,13.2487,13.2487,13.2487,13.2487,13.2487,13.2487,13.2487,13.2487,13.2487,13.2487,13.2487,13.2487,13.2487,13.3918,13.4382,13.4305,13.5687,13.5996,13.5494,13.4889,13.4021,13.3018,13.2804,13.2794,13.2886,13.2821,13.3506,13.4406,13.4413,13.4817,13.5514,13.5898,13.5988,13.6116,13.672,13.6887,13.69,13.7002,13.7014,13.7002,13.69,13.6887,13.6989,13.7514,13.7796,13.8181,13.8681,13.9104,13.9604,14.0604,14.0796,14.0796,14.0796,14.0412,14.0104,14.0104,13.8911,13.8117,13.8117,13.7296,13.6796,13.6796,13.6796,13.6796,13.6796,13.6796,13.6796,13.6796,13.6796,13.6796,13.6796,13.6796,13.6796,13.6796,13.6796,13.6796,13.6796,13.6796,13.6796,13.6796,13.6796,13.6796,7.9609,7.9844,0.0,8.1875,8.3476,0.0,8.7572,9.1941,9.7208,10.3103,10.7086,11.0913,11.5287,11.668,11.7792,11.9488,12.1897,12.5702,13.1512,13.2404,13.2607,13.2519,13.2508,13.2808,13.3494,13.2894,13.2806,13.3492,13.2912,13.2487,13.2487,13.2487,13.2487,13.2487,13.2487,13.2487,13.2487,13.2487,13.2487,13.2487,13.2487,13.2487,13.2487,13.3299,13.4111,13.4885,13.588,13.6306,13.6306,13.6383,13.5388,13.3802,13.3792,13.3781,13.3781,13.381,13.4714,13.5884,13.5911,13.6294,13.6783,13.6809,13.6809,13.6809,13.7002,13.7013,13.7012,13.7211,13.7196,13.7211,13.7101,13.7013,13.7014,13.6886,13.7386,13.8001,13.8001,13.8488,13.8988,13.8988,13.9219,13.9296,13.9296,13.9219,13.9219,13.9219,13.8488,13.8001,13.8001,13.7309,13.6796,13.6796,13.6796,13.6796,13.6796,13.6796,13.6796,13.6796,13.6796,13.6796,13.6796,13.6796,13.6796,13.6796,13.6796,13.6796,13.6796,13.6796,13.6796,13.6796,13.6796,13.6796,8.0508,8.0742,8.1015,8.2031,8.2577,0.0,8.419,8.7333,9.1525,9.6747,10.0601,10.4586,10.9588,11.0596,11.1292,11.3005,11.6002,12.0704,12.8002,13.0213,13.1512,13.2706,13.2818,13.2779,13.2902,13.2702,13.2615,13.269,13.2603,13.2487,13.2487,13.2487,13.2487,13.2487,13.2487,13.2487,13.2487,13.2487,13.2487,13.2487,13.2487,13.2487,13.2487,13.3299,13.3802,13.3995,13.562,13.6306,13.6394,13.7013,13.6316,13.472,13.4597,13.4603,13.4593,13.4493,13.5082,13.5911,13.5803,13.632,13.6912,13.6796,13.6912,13.7014,13.7001,13.7114,13.7211,13.7196,13.7196,13.7196,13.7211,13.7087,13.7001,13.7014,13.7002,13.7103,13.7103,13.718,13.7296,13.7296,13.8411,13.9296,13.9296,13.8796,13.8296,13.8296,13.7603,13.7103,13.7103,13.6911,13.6796,13.6796,13.6796,13.6796,13.6796,13.6796,13.6796,13.6796,13.6796,13.6796,13.6796,13.6796,13.6796,13.6796,13.6796,13.6796,13.6796,13.6796,13.6796,13.6796,13.6796,13.6796,8.0742,8.1015,8.1211,8.207,8.2303,0.0,0.0,8.5389,8.8441,9.263,9.5583,9.8588,10.2493,10.3496,10.4105,10.4912,10.8712,11.3502,11.9095,12.5396,13.0111,13.2119,13.2708,13.2914,13.279,13.2689,13.2594,13.2507,13.2487,13.2487,13.2487,13.2487,13.2487,13.2487,13.2487,13.2487,13.2487,13.2487,13.2487,13.2487,13.2487,13.2487,13.2487,13.2912,13.3299,13.3686,13.4614,13.5504,13.6306,13.6703,13.6587,13.619,13.5712,13.5497,13.5486,13.5509,13.5995,13.6594,13.6602,13.6813,13.7087,13.6987,13.7012,13.7112,13.7184,13.7289,13.7303,13.7303,13.7303,13.7292,13.7312,13.7204,13.7184,13.7124,13.7012,13.6988,13.6912,13.69,13.6887,13.6809,13.7488,13.8104,13.8104,13.768,13.7501,13.7501,13.7103,13.6796,13.6796,13.6796,13.6796,13.6796,13.6796,13.6796,13.6796,13.6796,13.6796,13.6796,13.6796,13.6796,13.6796,13.6796,13.6796,13.6796,13.6796,13.6796,13.6796,13.6796,13.6796,13.6796,13.6796,13.6796,8.1562,8.164,8.1679,8.2383,8.2419,8.244,0.0,0.0,0.0,8.9147,9.0971,9.2767,9.4937,9.6074,9.6616,9.6556,10.0918,10.5606,10.9009,11.8019,12.5715,12.9707,13.0889,13.1508,13.1617,13.1882,13.1995,13.1793,13.1812,13.1802,13.1782,13.1917,13.1984,13.1984,13.1984,13.21,13.2216,13.2216,13.2293,13.2487,13.2487,13.2487,13.2487,13.2487,13.2912,13.3492,13.3609,13.4498,13.5803,13.619,13.6703,13.7206,13.6703,13.651,13.651,13.651,13.691,13.7414,13.7391,13.7285,13.7193,13.7208,13.7219,13.7305,13.738,13.7391,13.7494,13.7515,13.7505,13.7512,13.7397,13.7402,13.7396,13.7305,13.7219,13.7211,13.7101,13.6987,13.7014,13.6899,13.6822,13.6796,13.6796,13.6796,13.6796,13.6796,13.6796,13.6796,13.6796,13.6796,13.6796,13.6796,13.6796,13.6796,13.6796,13.6796,13.6796,13.6796,13.6796,13.6796,13.6796,13.6796,13.6796,13.6796,13.6796,13.6796,13.6796,13.6796,13.6796,13.6796,13.6796,13.6796,0.0,8.3906,8.332,8.3437,8.2887,8.2277,8.2123,0.0,8.3867,8.4881,0.0,8.6907,8.7832,0.0,0.0,8.912,9.3484,9.813,10.1616,10.659,11.339,12.3083,12.489,12.5799,12.721,12.8512,12.9293,12.9306,12.9297,12.93,12.9217,12.979,13.0204,13.0204,13.0204,13.0591,13.1288,13.1288,13.1713,13.2487,13.2487,13.2487,13.2487,13.2487,13.2487,13.268,13.3415,13.3802,13.4111,13.5697,13.6394,13.651,13.709,13.7399,13.7399,13.7399,13.7389,13.7484,13.7386,13.7419,13.7385,13.7193,13.7316,13.7391,13.7501,13.7518,13.7386,13.7494,13.749,13.7386,13.7512,13.738,13.738,13.7408,13.7278,13.7196,13.7184,13.7087,13.7001,13.6988,13.6887,13.6796,13.6796,13.6796,13.6796,13.6796,13.6796,13.6796,13.6796,13.6796,13.6796,13.6796,13.6796,13.6796,13.6796,13.6796,13.6796,13.6796,13.6796,13.6796,13.6796,13.6796,13.6796,13.6796,13.6796,13.6796,13.6796,13.6796,13.6796,13.6796,13.6796,13.6796,8.7851,8.7226,8.6445,8.5976,8.5192,8.4193,8.2972,8.3446,8.4161,8.4412,0.0,0.0,0.0,0.0,0.0,0.0,9.0419,9.3914,9.6862,10.0208,10.5992,11.6016,11.8721,12.1216,12.4794,12.6493,12.7503,12.7596,12.7006,12.6904,12.7411,12.8492,12.9111,12.9111,12.9614,13.0088,13.0398,13.0901,13.1414,13.1801,13.2293,13.2487,13.2487,13.2487,13.2487,13.2487,13.2912,13.3299,13.3802,13.4498,13.5388,13.6306,13.6703,13.709,13.7515,13.7515,13.7515,13.7515,13.7501,13.749,13.7402,13.7386,13.7408,13.7501,13.7505,13.7484,13.7501,13.7505,13.7484,13.7501,13.7505,13.7484,13.749,13.749,13.7408,13.7391,13.7285,13.7305,13.7184,13.7,13.7002,13.69,13.6809,13.6796,13.6796,13.6796,13.6796,13.6796,13.6796,13.6796,13.6796,13.6796,13.6796,13.6796,13.6796,13.6796,13.6796,13.6796,13.6796,13.6796,13.6796,13.6796,13.6796,13.6796,13.6796,13.6796,13.6796,13.6796,13.6796,13.6796,13.6796,13.6488,9.1836,9.1133,9.0273,8.9453,8.8201,8.6623,8.4536,8.4562,8.4982,8.4704,8.5323,0.0,0.0,0.0,8.6989,8.6657,0.0,9.0742,9.2613,9.4523,9.9207,10.8501,11.271,11.6519,12.0903,12.2998,12.3982,12.3815,12.31,12.3216,12.4188,12.5896,12.711,12.7497,12.8618,12.9305,12.9498,13.0398,13.0978,13.122,13.21,13.2487,13.2487,13.2487,13.2487,13.2487,13.2487,13.2796,13.3415,13.3609,13.4421,13.561,13.6112,13.651,13.6897,13.7283,13.7515,13.7515,13.7515,13.7515,13.7515,13.7515,13.7399,13.7206,13.7206,13.6991,13.6777,13.6809,13.6798,13.6777,13.7079,13.7206,13.7206,13.7399,13.7283,13.7185,13.7408,13.7209,13.7103,13.7109,13.7089,13.7014,13.6912,13.6783,13.6796,13.6796,13.6603,13.6488,13.6796,13.6603,13.6488,13.6796,13.6796,13.6796,13.6796,13.6796,13.6796,13.6796,13.6796,13.668,13.6488,13.6411,13.6296,13.6103,13.6103,13.6103,13.6103,13.6103,13.6103,13.6103,13.6296,13.6103,9.6484,9.5664,9.4765,9.3906,9.1757,8.9172,8.6523,8.5977,8.5787,8.4873,8.5427,8.6332,8.7139,0.0,0.0,0.0,0.0,0.0,0.0,8.8454,9.1789,10.0586,10.6806,11.1413,11.409,11.6696,11.7809,11.6881,11.6713,11.7283,11.8888,12.1214,12.3203,12.4915,12.6607,12.7884,12.8609,12.9498,13.0398,13.122,13.21,13.2487,13.2487,13.2487,13.2487,13.2487,13.2487,13.2487,13.2603,13.3415,13.3686,13.3995,13.561,13.5813,13.5311,13.6897,13.7515,13.7515,13.7515,13.7515,13.7515,13.7515,13.7013,13.6306,13.6306,13.569,13.4891,13.5009,13.4994,13.5084,13.6091,13.6306,13.651,13.7283,13.6897,13.6587,13.7322,13.6811,13.6414,13.7187,13.7222,13.7001,13.7001,13.6887,13.6796,13.6796,13.6103,13.5795,13.668,13.6103,13.5911,13.668,13.6796,13.6796,13.6796,13.6796,13.6796,13.6796,13.6796,13.6411,13.5603,13.5488,13.5218,13.4411,13.4411,13.4411,13.4411,13.4411,13.4411,13.4411,13.5218,13.5488,10.25,10.1797,10.0781,9.9375,9.746,9.5112,9.1897,9.1192,9.0842,8.9355,8.9318,8.963,8.99,0.0,0.0,0.0,0.0,0.0,0.0,8.7445,8.9674,9.5573,10.0415,10.4612,10.7793,11.0394,11.1787,11.1613,11.0816,11.1605,11.4309,11.7811,12.0805,12.3087,12.5911,12.7497,12.7806,12.9199,13.0001,13.0398,13.179,13.2487,13.2487,13.2487,13.2487,13.2487,13.2487,13.2487,13.2487,13.2796,13.3183,13.3802,13.4305,13.4808,13.5117,13.6316,13.6703,13.6819,13.7283,13.7515,13.7515,13.7515,13.7013,13.6306,13.6306,13.5705,13.491,13.4991,13.5009,13.4988,13.5416,13.5891,13.619,13.5891,13.6084,13.619,13.5891,13.6014,13.6309,13.6514,13.6887,13.7208,13.7,13.6501,13.6014,13.6001,13.5719,13.5411,13.5218,13.4911,13.4795,13.5103,13.5103,13.5411,13.5911,13.6488,13.6796,13.6796,13.6296,13.5795,13.5488,13.4988,13.4603,13.4295,13.4295,13.4295,13.4295,13.4295,13.4295,13.4295,13.3987,13.3795,10.8203,10.7812,10.7109,10.6015,10.4218,10.1795,9.8277,9.7065,9.5972,9.3628,9.3159,9.3042,9.2729,0.0,0.0,0.0,0.0,0.0,0.0,8.6735,8.7999,9.1521,9.5563,9.9342,10.2598,10.4899,10.5991,10.5806,10.5005,10.6117,10.9812,11.4193,11.8097,12.1308,12.5292,12.7381,12.7381,12.8812,12.9586,12.9885,13.1404,13.2177,13.2487,13.2487,13.2487,13.2487,13.2487,13.2487,13.2487,13.2487,13.2796,13.3299,13.3609,13.3918,13.4305,13.5388,13.5803,13.588,13.6394,13.6587,13.6587,13.6587,13.6084,13.5388,13.5388,13.4808,13.4111,13.4111,13.4111,13.4189,13.4498,13.5001,13.5311,13.5117,13.5194,13.5311,13.5117,13.5194,13.5406,13.5679,13.61,13.6408,13.6208,13.5714,13.5295,13.5514,13.4988,13.4487,13.4295,13.3987,13.3987,13.4295,13.4295,13.4603,13.5411,13.6296,13.6796,13.6796,13.5988,13.5411,13.5103,13.4295,13.368,13.341,13.341,13.341,13.341,13.341,13.341,13.341,13.2795,13.2487]}]]